<?xml version="1.0" encoding="UTF-8" standalone="no" ?><gpx xmlns="http://www.topografix.com/GPX/1/1" xmlns:gpxx="http://www.garmin.com/xmlschemas/GpxExtensions/v3" xmlns:wptx1="http://www.garmin.com/xmlschemas/WaypointExtension/v1" xmlns:gpxtpx="http://www.garmin.com/xmlschemas/TrackPointExtension/v1" creator="GPSMAP 62s" version="1.1" xmlns:xsi="http://www.w3.org/2001/XMLSchema-instance" xsi:schemaLocation="http://www.topografix.com/GPX/1/1 http://www.topografix.com/GPX/1/1/gpx.xsd http://www.garmin.com/xmlschemas/GpxExtensions/v3 http://www8.garmin.com/xmlschemas/GpxExtensionsv3.xsd http://www.garmin.com/xmlschemas/WaypointExtension/v1 http://www8.garmin.com/xmlschemas/WaypointExtensionv1.xsd http://www.garmin.com/xmlschemas/TrackPointExtension/v1 http://www.garmin.com/xmlschemas/TrackPointExtensionv1.xsd"><metadata><link href="http://www.garmin.com"><text>Garmin International</text></link><time>2012-11-30T14:30:36Z</time></metadata><trk><name>Current Track: 30 NOV 2012 08:34</name><extensions><gpxx:TrackExtension><gpxx:DisplayColor>Blue</gpxx:DisplayColor></gpxx:TrackExtension></extensions><trkseg><trkpt lat="32.6454856060" lon="35.1008366514"><ele>179.90</ele><time>2012-11-30T06:34:00Z</time></trkpt><trkpt lat="32.6454876177" lon="35.1008504815"><ele>181.35</ele><time>2012-11-30T06:34:30Z</time></trkpt><trkpt lat="32.6454859413" lon="35.1008572709"><ele>181.35</ele><time>2012-11-30T06:34:57Z</time></trkpt><trkpt lat="32.6454920601" lon="35.1008540019"><ele>180.87</ele><time>2012-11-30T06:35:24Z</time></trkpt><trkpt lat="32.6454866119" lon="35.1008445304"><ele>181.35</ele><time>2012-11-30T06:35:54Z</time></trkpt><trkpt lat="32.6454825047" lon="35.1008339692"><ele>180.87</ele><time>2012-11-30T06:36:24Z</time></trkpt><trkpt lat="32.6454934850" lon="35.1008234918"><ele>181.35</ele><time>2012-11-30T06:36:50Z</time></trkpt><trkpt lat="32.6454895455" lon="35.1008207258"><ele>181.35</ele><time>2012-11-30T06:37:10Z</time></trkpt><trkpt lat="32.6454314590" lon="35.1008448657"><ele>181.83</ele><time>2012-11-30T06:37:35Z</time></trkpt><trkpt lat="32.6454390865" lon="35.1007182989"><ele>181.83</ele><time>2012-11-30T06:37:47Z</time></trkpt><trkpt lat="32.6454446185" lon="35.1006128546"><ele>181.83</ele><time>2012-11-30T06:38:04Z</time></trkpt><trkpt lat="32.6453816704" lon="35.1006220747"><ele>182.31</ele><time>2012-11-30T06:38:18Z</time></trkpt><trkpt lat="32.6453339774" lon="35.1006756350"><ele>182.31</ele><time>2012-11-30T06:38:33Z</time></trkpt><trkpt lat="32.6453366596" lon="35.1006849390"><ele>182.31</ele><time>2012-11-30T06:38:45Z</time></trkpt><trkpt lat="32.6453204826" lon="35.1007587835"><ele>182.31</ele><time>2012-11-30T06:38:50Z</time></trkpt><trkpt lat="32.6453125197" lon="35.1007853542"><ele>182.31</ele><time>2012-11-30T06:38:51Z</time></trkpt><trkpt lat="32.6453010365" lon="35.1008128468"><ele>182.79</ele><time>2012-11-30T06:38:52Z</time></trkpt><trkpt lat="32.6452884637" lon="35.1008406747"><ele>182.31</ele><time>2012-11-30T06:38:53Z</time></trkpt><trkpt lat="32.6452718675" lon="35.1008635573"><ele>182.31</ele><time>2012-11-30T06:38:54Z</time></trkpt><trkpt lat="32.6452572830" lon="35.1008860208"><ele>182.79</ele><time>2012-11-30T06:38:55Z</time></trkpt><trkpt lat="32.6452448778" lon="35.1009077299"><ele>183.27</ele><time>2012-11-30T06:38:56Z</time></trkpt><trkpt lat="32.6452347357" lon="35.1009283494"><ele>183.27</ele><time>2012-11-30T06:38:57Z</time></trkpt><trkpt lat="32.6450913213" lon="35.1012530643"><ele>184.23</ele><time>2012-11-30T06:39:10Z</time></trkpt><trkpt lat="32.6449362561" lon="35.1015726663"><ele>186.15</ele><time>2012-11-30T06:39:23Z</time></trkpt><trkpt lat="32.6447483338" lon="35.1017703954"><ele>188.08</ele><time>2012-11-30T06:39:37Z</time></trkpt><trkpt lat="32.6445496827" lon="35.1019288134"><ele>189.04</ele><time>2012-11-30T06:39:50Z</time></trkpt><trkpt lat="32.6442907657" lon="35.1020482555"><ele>190.00</ele><time>2012-11-30T06:40:06Z</time></trkpt><trkpt lat="32.6439523045" lon="35.1022727229"><ele>187.59</ele><time>2012-11-30T06:40:19Z</time></trkpt><trkpt lat="32.6438228879" lon="35.1028297003"><ele>185.67</ele><time>2012-11-30T06:40:33Z</time></trkpt><trkpt lat="32.6436860114" lon="35.1032796409"><ele>186.15</ele><time>2012-11-30T06:40:47Z</time></trkpt><trkpt lat="32.6434500609" lon="35.1039445773"><ele>185.67</ele><time>2012-11-30T06:41:04Z</time></trkpt><trkpt lat="32.6431855280" lon="35.1042858046"><ele>187.11</ele><time>2012-11-30T06:41:22Z</time></trkpt><trkpt lat="32.6432126015" lon="35.1045208331"><ele>188.08</ele><time>2012-11-30T06:41:34Z</time></trkpt><trkpt lat="32.6434861869" lon="35.1048281975"><ele>185.19</ele><time>2012-11-30T06:41:46Z</time></trkpt><trkpt lat="32.6435256656" lon="35.1049465500"><ele>184.23</ele><time>2012-11-30T06:41:49Z</time></trkpt><trkpt lat="32.6435310300" lon="35.1050025411"><ele>183.75</ele><time>2012-11-30T06:41:50Z</time></trkpt><trkpt lat="32.6435340475" lon="35.1050619688"><ele>182.79</ele><time>2012-11-30T06:41:51Z</time></trkpt><trkpt lat="32.6435320359" lon="35.1051239111"><ele>182.31</ele><time>2012-11-30T06:41:52Z</time></trkpt><trkpt lat="32.6435279287" lon="35.1051887870"><ele>181.83</ele><time>2012-11-30T06:41:53Z</time></trkpt><trkpt lat="32.6435244922" lon="35.1053772122"><ele>179.42</ele><time>2012-11-30T06:41:56Z</time></trkpt><trkpt lat="32.6435380708" lon="35.1054864284"><ele>178.46</ele><time>2012-11-30T06:41:58Z</time></trkpt><trkpt lat="32.6435570978" lon="35.1055440959"><ele>177.50</ele><time>2012-11-30T06:41:59Z</time></trkpt><trkpt lat="32.6435824111" lon="35.1055980753"><ele>176.54</ele><time>2012-11-30T06:42:00Z</time></trkpt><trkpt lat="32.6436173636" lon="35.1056456845"><ele>176.06</ele><time>2012-11-30T06:42:01Z</time></trkpt><trkpt lat="32.6436612848" lon="35.1056853309"><ele>176.06</ele><time>2012-11-30T06:42:02Z</time></trkpt><trkpt lat="32.6437114086" lon="35.1057160925"><ele>175.58</ele><time>2012-11-30T06:42:03Z</time></trkpt><trkpt lat="32.6437622029" lon="35.1057455968"><ele>174.62</ele><time>2012-11-30T06:42:04Z</time></trkpt><trkpt lat="32.6438618638" lon="35.1058089640"><ele>173.66</ele><time>2012-11-30T06:42:06Z</time></trkpt><trkpt lat="32.6439046953" lon="35.1058475208"><ele>173.17</ele><time>2012-11-30T06:42:07Z</time></trkpt><trkpt lat="32.6441562362" lon="35.1060943678"><ele>169.81</ele><time>2012-11-30T06:42:13Z</time></trkpt><trkpt lat="32.6443138998" lon="35.1062018238"><ele>168.37</ele><time>2012-11-30T06:42:16Z</time></trkpt><trkpt lat="32.6444933563" lon="35.1063300669"><ele>165.96</ele><time>2012-11-30T06:42:19Z</time></trkpt><trkpt lat="32.6447802689" lon="35.1066868007"><ele>167.89</ele><time>2012-11-30T06:42:28Z</time></trkpt><trkpt lat="32.6448788401" lon="35.1069932431"><ele>171.25</ele><time>2012-11-30T06:42:41Z</time></trkpt><trkpt lat="32.6449463982" lon="35.1073328778"><ele>174.14</ele><time>2012-11-30T06:42:56Z</time></trkpt><trkpt lat="32.6449726336" lon="35.1076244004"><ele>175.58</ele><time>2012-11-30T06:43:09Z</time></trkpt><trkpt lat="32.6449967735" lon="35.1079455949"><ele>177.50</ele><time>2012-11-30T06:43:23Z</time></trkpt><trkpt lat="32.6450494118" lon="35.1081383787"><ele>179.42</ele><time>2012-11-30T06:43:35Z</time></trkpt><trkpt lat="32.6451049838" lon="35.1083622593"><ele>181.83</ele><time>2012-11-30T06:43:48Z</time></trkpt><trkpt lat="32.6451638248" lon="35.1085654367"><ele>184.71</ele><time>2012-11-30T06:44:02Z</time></trkpt><trkpt lat="32.6451792475" lon="35.1086630020"><ele>186.15</ele><time>2012-11-30T06:44:09Z</time></trkpt><trkpt lat="32.6451910660" lon="35.1087060012"><ele>186.63</ele><time>2012-11-30T06:44:12Z</time></trkpt><trkpt lat="32.6451978553" lon="35.1087197475"><ele>186.63</ele><time>2012-11-30T06:44:13Z</time></trkpt><trkpt lat="32.6451986097" lon="35.1087324880"><ele>186.63</ele><time>2012-11-30T06:44:14Z</time></trkpt><trkpt lat="32.6452572830" lon="35.1089463942"><ele>188.56</ele><time>2012-11-30T06:44:27Z</time></trkpt><trkpt lat="32.6453557704" lon="35.1092244219"><ele>190.00</ele><time>2012-11-30T06:44:44Z</time></trkpt><trkpt lat="32.6454597898" lon="35.1095540822"><ele>190.96</ele><time>2012-11-30T06:45:01Z</time></trkpt><trkpt lat="32.6454833429" lon="35.1096351352"><ele>191.44</ele><time>2012-11-30T06:45:05Z</time></trkpt><trkpt lat="32.6454894617" lon="35.1096515637"><ele>190.96</ele><time>2012-11-30T06:45:06Z</time></trkpt><trkpt lat="32.6454911381" lon="35.1096707582"><ele>191.44</ele><time>2012-11-30T06:45:07Z</time></trkpt><trkpt lat="32.6454900485" lon="35.1096901204"><ele>190.96</ele><time>2012-11-30T06:45:08Z</time></trkpt><trkpt lat="32.6454926468" lon="35.1097127516"><ele>190.96</ele><time>2012-11-30T06:45:09Z</time></trkpt><trkpt lat="32.6454974245" lon="35.1097352989"><ele>191.44</ele><time>2012-11-30T06:45:10Z</time></trkpt><trkpt lat="32.6455052197" lon="35.1097583491"><ele>190.96</ele><time>2012-11-30T06:45:11Z</time></trkpt><trkpt lat="32.6455685031" lon="35.1100481953"><ele>190.48</ele><time>2012-11-30T06:45:24Z</time></trkpt><trkpt lat="32.6456837542" lon="35.1103991456"><ele>188.56</ele><time>2012-11-30T06:45:36Z</time></trkpt><trkpt lat="32.6457983349" lon="35.1107991301"><ele>184.71</ele><time>2012-11-30T06:45:46Z</time></trkpt><trkpt lat="32.6458765380" lon="35.1110980287"><ele>181.35</ele><time>2012-11-30T06:45:53Z</time></trkpt><trkpt lat="32.6458861772" lon="35.1111418661"><ele>181.35</ele><time>2012-11-30T06:45:54Z</time></trkpt><trkpt lat="32.6459201239" lon="35.1113691833"><ele>178.46</ele><time>2012-11-30T06:45:59Z</time></trkpt><trkpt lat="32.6459106524" lon="35.1114026271"><ele>177.98</ele><time>2012-11-30T06:46:00Z</time></trkpt><trkpt lat="32.6457552519" lon="35.1115190517"><ele>176.06</ele><time>2012-11-30T06:46:05Z</time></trkpt><trkpt lat="32.6456199680" lon="35.1115518250"><ele>174.62</ele><time>2012-11-30T06:46:08Z</time></trkpt><trkpt lat="32.6455186307" lon="35.1115570217"><ele>174.14</ele><time>2012-11-30T06:46:10Z</time></trkpt><trkpt lat="32.6454668306" lon="35.1115519088"><ele>173.66</ele><time>2012-11-30T06:46:11Z</time></trkpt><trkpt lat="32.6454128511" lon="35.1115407608"><ele>173.17</ele><time>2012-11-30T06:46:12Z</time></trkpt><trkpt lat="32.6453607157" lon="35.1115241647"><ele>173.17</ele><time>2012-11-30T06:46:13Z</time></trkpt><trkpt lat="32.6453117654" lon="35.1115055569"><ele>172.69</ele><time>2012-11-30T06:46:14Z</time></trkpt><trkpt lat="32.6451627351" lon="35.1114422735"><ele>172.69</ele><time>2012-11-30T06:46:17Z</time></trkpt><trkpt lat="32.6449360885" lon="35.1113549341"><ele>172.21</ele><time>2012-11-30T06:46:22Z</time></trkpt><trkpt lat="32.6448999625" lon="35.1113312133"><ele>171.73</ele><time>2012-11-30T06:46:23Z</time></trkpt><trkpt lat="32.6448272914" lon="35.1112771500"><ele>171.73</ele><time>2012-11-30T06:46:25Z</time></trkpt><trkpt lat="32.6445738226" lon="35.1109547820"><ele>171.73</ele><time>2012-11-30T06:46:37Z</time></trkpt><trkpt lat="32.6444573142" lon="35.1108104456"><ele>170.29</ele><time>2012-11-30T06:46:42Z</time></trkpt><trkpt lat="32.6444332581" lon="35.1107697934"><ele>170.29</ele><time>2012-11-30T06:46:43Z</time></trkpt><trkpt lat="32.6444152370" lon="35.1107288059"><ele>170.29</ele><time>2012-11-30T06:46:44Z</time></trkpt><trkpt lat="32.6442672964" lon="35.1103439927"><ele>169.81</ele><time>2012-11-30T06:46:56Z</time></trkpt><trkpt lat="32.6441384666" lon="35.1099544857"><ele>168.85</ele><time>2012-11-30T06:47:08Z</time></trkpt><trkpt lat="32.6440340281" lon="35.1095893700"><ele>169.81</ele><time>2012-11-30T06:47:21Z</time></trkpt><trkpt lat="32.6438730117" lon="35.1093825884"><ele>172.21</ele><time>2012-11-30T06:47:36Z</time></trkpt><trkpt lat="32.6438481174" lon="35.1093799900"><ele>171.73</ele><time>2012-11-30T06:47:38Z</time></trkpt><trkpt lat="32.6438352093" lon="35.1093835942"><ele>172.21</ele><time>2012-11-30T06:47:39Z</time></trkpt><trkpt lat="32.6438212115" lon="35.1093851030"><ele>172.21</ele><time>2012-11-30T06:47:40Z</time></trkpt><trkpt lat="32.6438038610" lon="35.1093849353"><ele>171.73</ele><time>2012-11-30T06:47:53Z</time></trkpt><trkpt lat="32.6437080558" lon="35.1093757991"><ele>172.21</ele><time>2012-11-30T06:48:09Z</time></trkpt><trkpt lat="32.6435285993" lon="35.1094157808"><ele>172.21</ele><time>2012-11-30T06:48:20Z</time></trkpt><trkpt lat="32.6434977539" lon="35.1094243303"><ele>171.73</ele><time>2012-11-30T06:48:28Z</time></trkpt><trkpt lat="32.6434006076" lon="35.1093992684"><ele>171.73</ele><time>2012-11-30T06:49:02Z</time></trkpt><trkpt lat="32.6433543395" lon="35.1094217319"><ele>171.73</ele><time>2012-11-30T06:49:35Z</time></trkpt><trkpt lat="32.6433927286" lon="35.1094322931"><ele>172.21</ele><time>2012-11-30T06:50:10Z</time></trkpt><trkpt lat="32.6434309501" lon="35.1095147710"><ele>172.21</ele><time>2012-11-30T06:50:14Z</time></trkpt><trkpt lat="32.6434202213" lon="35.1095208898"><ele>172.21</ele><time>2012-11-30T06:50:15Z</time></trkpt><trkpt lat="32.6434043795" lon="35.1095218956"><ele>171.73</ele><time>2012-11-30T06:50:16Z</time></trkpt><trkpt lat="32.6433905493" lon="35.1095187943"><ele>172.69</ele><time>2012-11-30T06:50:17Z</time></trkpt><trkpt lat="32.6433771383" lon="35.1095211413"><ele>171.73</ele><time>2012-11-30T06:50:18Z</time></trkpt><trkpt lat="32.6431634836" lon="35.1096450258"><ele>170.29</ele><time>2012-11-30T06:50:25Z</time></trkpt><trkpt lat="32.6431219932" lon="35.1096748654"><ele>169.81</ele><time>2012-11-30T06:50:26Z</time></trkpt><trkpt lat="32.6430750545" lon="35.1097103208"><ele>169.33</ele><time>2012-11-30T06:50:27Z</time></trkpt><trkpt lat="32.6428357512" lon="35.1098856702"><ele>166.45</ele><time>2012-11-30T06:50:31Z</time></trkpt><trkpt lat="32.6426035725" lon="35.1100725867"><ele>163.08</ele><time>2012-11-30T06:50:34Z</time></trkpt><trkpt lat="32.6424449869" lon="35.1101942081"><ele>161.16</ele><time>2012-11-30T06:50:36Z</time></trkpt><trkpt lat="32.6421663724" lon="35.1104699727"><ele>160.20</ele><time>2012-11-30T06:50:40Z</time></trkpt><trkpt lat="32.6421165001" lon="35.1105477568"><ele>160.20</ele><time>2012-11-30T06:50:41Z</time></trkpt><trkpt lat="32.6420724113" lon="35.1106330007"><ele>160.20</ele><time>2012-11-30T06:50:42Z</time></trkpt><trkpt lat="32.6419405639" lon="35.1108923368"><ele>158.75</ele><time>2012-11-30T06:50:45Z</time></trkpt><trkpt lat="32.6416848321" lon="35.1115850173"><ele>154.91</ele><time>2012-11-30T06:50:53Z</time></trkpt><trkpt lat="32.6416023541" lon="35.1118208840"><ele>153.47</ele><time>2012-11-30T06:50:56Z</time></trkpt><trkpt lat="32.6415728498" lon="35.1118816528"><ele>152.99</ele><time>2012-11-30T06:50:57Z</time></trkpt><trkpt lat="32.6415136736" lon="35.1119876001"><ele>151.54</ele><time>2012-11-30T06:50:59Z</time></trkpt><trkpt lat="32.6414840855" lon="35.1120300964"><ele>151.54</ele><time>2012-11-30T06:51:00Z</time></trkpt><trkpt lat="32.6413104963" lon="35.1122468524"><ele>148.18</ele><time>2012-11-30T06:51:08Z</time></trkpt><trkpt lat="32.6411360689" lon="35.1123794541"><ele>144.34</ele><time>2012-11-30T06:51:14Z</time></trkpt><trkpt lat="32.6411066484" lon="35.1123978104"><ele>144.34</ele><time>2012-11-30T06:51:15Z</time></trkpt><trkpt lat="32.6409597136" lon="35.1124739181"><ele>140.97</ele><time>2012-11-30T06:51:19Z</time></trkpt><trkpt lat="32.6409184746" lon="35.1124825515"><ele>140.49</ele><time>2012-11-30T06:51:20Z</time></trkpt><trkpt lat="32.6406599768" lon="35.1122387219"><ele>139.05</ele><time>2012-11-30T06:51:29Z</time></trkpt><trkpt lat="32.6403615810" lon="35.1118902024"><ele>137.13</ele><time>2012-11-30T06:51:41Z</time></trkpt><trkpt lat="32.6402094495" lon="35.1117026154"><ele>134.72</ele><time>2012-11-30T06:51:46Z</time></trkpt><trkpt lat="32.6400584914" lon="35.1114791539"><ele>131.84</ele><time>2012-11-30T06:51:52Z</time></trkpt><trkpt lat="32.6397928689" lon="35.1114363223"><ele>130.40</ele><time>2012-11-30T06:51:59Z</time></trkpt><trkpt lat="32.6396245603" lon="35.1114596240"><ele>127.51</ele><time>2012-11-30T06:52:04Z</time></trkpt><trkpt lat="32.6394261606" lon="35.1115188003"><ele>124.63</ele><time>2012-11-30T06:52:12Z</time></trkpt><trkpt lat="32.6392691676" lon="35.1115436107"><ele>120.78</ele><time>2012-11-30T06:52:16Z</time></trkpt><trkpt lat="32.6392244920" lon="35.1115443651"><ele>120.78</ele><time>2012-11-30T06:52:17Z</time></trkpt><trkpt lat="32.6390564349" lon="35.1115117595"><ele>117.42</ele><time>2012-11-30T06:52:22Z</time></trkpt><trkpt lat="32.6389045548" lon="35.1114619710"><ele>115.98</ele><time>2012-11-30T06:52:27Z</time></trkpt><trkpt lat="32.6388219092" lon="35.1114442851"><ele>115.50</ele><time>2012-11-30T06:52:29Z</time></trkpt><trkpt lat="32.6384051610" lon="35.1113063190"><ele>114.05</ele><time>2012-11-30T06:52:41Z</time></trkpt><trkpt lat="32.6382121257" lon="35.1111204922"><ele>117.42</ele><time>2012-11-30T06:52:51Z</time></trkpt><trkpt lat="32.6380214375" lon="35.1109030657"><ele>119.82</ele><time>2012-11-30T06:53:05Z</time></trkpt><trkpt lat="32.6379320864" lon="35.1107235253"><ele>122.71</ele><time>2012-11-30T06:53:16Z</time></trkpt><trkpt lat="32.6379261352" lon="35.1107078511"><ele>123.19</ele><time>2012-11-30T06:53:17Z</time></trkpt><trkpt lat="32.6378270611" lon="35.1104549691"><ele>125.59</ele><time>2012-11-30T06:53:33Z</time></trkpt><trkpt lat="32.6377475169" lon="35.1102067810"><ele>127.51</ele><time>2012-11-30T06:53:48Z</time></trkpt><trkpt lat="32.6377278194" lon="35.1100015920"><ele>129.43</ele><time>2012-11-30T06:54:01Z</time></trkpt><trkpt lat="32.6377223711" lon="35.1098018512"><ele>131.84</ele><time>2012-11-30T06:54:13Z</time></trkpt><trkpt lat="32.6377361175" lon="35.1097477041"><ele>132.80</ele><time>2012-11-30T06:54:17Z</time></trkpt><trkpt lat="32.6377448346" lon="35.1096964907"><ele>133.28</ele><time>2012-11-30T06:54:21Z</time></trkpt><trkpt lat="32.6377512049" lon="35.1096575148"><ele>133.76</ele><time>2012-11-30T06:54:24Z</time></trkpt><trkpt lat="32.6377500314" lon="35.1096426789"><ele>134.24</ele><time>2012-11-30T06:54:25Z</time></trkpt><trkpt lat="32.6377553120" lon="35.1096155215"><ele>134.24</ele><time>2012-11-30T06:54:27Z</time></trkpt><trkpt lat="32.6377593353" lon="35.1096014399"><ele>134.24</ele><time>2012-11-30T06:54:28Z</time></trkpt><trkpt lat="32.6377628557" lon="35.1095885318"><ele>134.72</ele><time>2012-11-30T06:54:29Z</time></trkpt><trkpt lat="32.6377657894" lon="35.1095728576"><ele>134.72</ele><time>2012-11-30T06:54:30Z</time></trkpt><trkpt lat="32.6377656218" lon="35.1095564291"><ele>135.20</ele><time>2012-11-30T06:54:31Z</time></trkpt><trkpt lat="32.6377642807" lon="35.1095423475"><ele>135.20</ele><time>2012-11-30T06:54:32Z</time></trkpt><trkpt lat="32.6377611794" lon="35.1095277630"><ele>135.20</ele><time>2012-11-30T06:54:33Z</time></trkpt><trkpt lat="32.6377578266" lon="35.1095113344"><ele>135.68</ele><time>2012-11-30T06:54:34Z</time></trkpt><trkpt lat="32.6377558149" lon="35.1094993483"><ele>135.68</ele><time>2012-11-30T06:54:35Z</time></trkpt><trkpt lat="32.6377535518" lon="35.1094866078"><ele>135.20</ele><time>2012-11-30T06:54:36Z</time></trkpt><trkpt lat="32.6377489418" lon="35.1094736159"><ele>135.20</ele><time>2012-11-30T06:54:37Z</time></trkpt><trkpt lat="32.6377455052" lon="35.1094600372"><ele>135.68</ele><time>2012-11-30T06:54:38Z</time></trkpt><trkpt lat="32.6377178449" lon="35.1092738751"><ele>133.76</ele><time>2012-11-30T06:54:50Z</time></trkpt><trkpt lat="32.6377125643" lon="35.1091805007"><ele>133.76</ele><time>2012-11-30T06:54:54Z</time></trkpt><trkpt lat="32.6377064455" lon="35.1091525052"><ele>132.80</ele><time>2012-11-30T06:54:55Z</time></trkpt><trkpt lat="32.6377063617" lon="35.1091252640"><ele>132.80</ele><time>2012-11-30T06:54:56Z</time></trkpt><trkpt lat="32.6377087086" lon="35.1091061532"><ele>133.28</ele><time>2012-11-30T06:54:57Z</time></trkpt><trkpt lat="32.6377097145" lon="35.1090877131"><ele>132.80</ele><time>2012-11-30T06:54:58Z</time></trkpt><trkpt lat="32.6377257239" lon="35.1087666862"><ele>132.32</ele><time>2012-11-30T06:55:11Z</time></trkpt><trkpt lat="32.6377497800" lon="35.1083830465"><ele>130.88</ele><time>2012-11-30T06:55:25Z</time></trkpt><trkpt lat="32.6378800347" lon="35.1078532264"><ele>129.43</ele><time>2012-11-30T06:55:41Z</time></trkpt><trkpt lat="32.6380634308" lon="35.1074456144"><ele>128.47</ele><time>2012-11-30T06:55:53Z</time></trkpt><trkpt lat="32.6380608324" lon="35.1073785592"><ele>128.95</ele><time>2012-11-30T06:56:04Z</time></trkpt><trkpt lat="32.6381167397" lon="35.1072992664"><ele>128.95</ele><time>2012-11-30T06:56:38Z</time></trkpt><trkpt lat="32.6381055918" lon="35.1071804110"><ele>127.99</ele><time>2012-11-30T06:56:43Z</time></trkpt><trkpt lat="32.6380818710" lon="35.1071761362"><ele>127.51</ele><time>2012-11-30T06:56:44Z</time></trkpt><trkpt lat="32.6380571444" lon="35.1071782317"><ele>127.51</ele><time>2012-11-30T06:56:45Z</time></trkpt><trkpt lat="32.6379874907" lon="35.1072143577"><ele>125.59</ele><time>2012-11-30T06:56:49Z</time></trkpt><trkpt lat="32.6378188469" lon="35.1074712630"><ele>124.15</ele><time>2012-11-30T06:57:03Z</time></trkpt><trkpt lat="32.6375260670" lon="35.1079380512"><ele>120.78</ele><time>2012-11-30T06:57:14Z</time></trkpt><trkpt lat="32.6374510489" lon="35.1080807950"><ele>119.34</ele><time>2012-11-30T06:57:17Z</time></trkpt><trkpt lat="32.6374290884" lon="35.1081331819"><ele>118.86</ele><time>2012-11-30T06:57:18Z</time></trkpt><trkpt lat="32.6374069601" lon="35.1081832219"><ele>118.38</ele><time>2012-11-30T06:57:19Z</time></trkpt><trkpt lat="32.6372655574" lon="35.1084625069"><ele>115.01</ele><time>2012-11-30T06:57:25Z</time></trkpt><trkpt lat="32.6371789724" lon="35.1085434761"><ele>114.05</ele><time>2012-11-30T06:57:28Z</time></trkpt><trkpt lat="32.6370477956" lon="35.1085717231"><ele>111.65</ele><time>2012-11-30T06:57:32Z</time></trkpt><trkpt lat="32.6370001864" lon="35.1085839607"><ele>111.17</ele><time>2012-11-30T06:57:33Z</time></trkpt><trkpt lat="32.6369560137" lon="35.1086113695"><ele>110.21</ele><time>2012-11-30T06:57:34Z</time></trkpt><trkpt lat="32.6369265933" lon="35.1086516026"><ele>109.73</ele><time>2012-11-30T06:57:35Z</time></trkpt><trkpt lat="32.6369064767" lon="35.1087013073"><ele>109.25</ele><time>2012-11-30T06:57:36Z</time></trkpt><trkpt lat="32.6368943229" lon="35.1088111941"><ele>108.77</ele><time>2012-11-30T06:57:38Z</time></trkpt><trkpt lat="32.6368925627" lon="35.1088705380"><ele>108.77</ele><time>2012-11-30T06:57:39Z</time></trkpt><trkpt lat="32.6368875336" lon="35.1089308877"><ele>108.29</ele><time>2012-11-30T06:57:40Z</time></trkpt><trkpt lat="32.6368770562" lon="35.1089919917"><ele>107.81</ele><time>2012-11-30T06:57:41Z</time></trkpt><trkpt lat="32.6368598733" lon="35.1090516709"><ele>107.81</ele><time>2012-11-30T06:57:42Z</time></trkpt><trkpt lat="32.6368424390" lon="35.1091024652"><ele>107.81</ele><time>2012-11-30T06:57:43Z</time></trkpt><trkpt lat="32.6368266810" lon="35.1091497391"><ele>106.84</ele><time>2012-11-30T06:57:44Z</time></trkpt><trkpt lat="32.6367586199" lon="35.1093436126"><ele>105.88</ele><time>2012-11-30T06:57:50Z</time></trkpt><trkpt lat="32.6367422752" lon="35.1093498990"><ele>105.40</ele><time>2012-11-30T06:57:51Z</time></trkpt><trkpt lat="32.6367275231" lon="35.1093478035"><ele>104.92</ele><time>2012-11-30T06:57:52Z</time></trkpt><trkpt lat="32.6367091667" lon="35.1093115937"><ele>104.92</ele><time>2012-11-30T06:57:57Z</time></trkpt><trkpt lat="32.6366961747" lon="35.1093080733"><ele>104.92</ele><time>2012-11-30T06:57:58Z</time></trkpt><trkpt lat="32.6366784051" lon="35.1093059778"><ele>104.92</ele><time>2012-11-30T06:57:59Z</time></trkpt><trkpt lat="32.6366563607" lon="35.1093038823"><ele>104.44</ele><time>2012-11-30T06:58:00Z</time></trkpt><trkpt lat="32.6366328076" lon="35.1092989370"><ele>104.92</ele><time>2012-11-30T06:58:01Z</time></trkpt><trkpt lat="32.6366091706" lon="35.1092908066"><ele>104.92</ele><time>2012-11-30T06:58:02Z</time></trkpt><trkpt lat="32.6363851223" lon="35.1091035549"><ele>106.36</ele><time>2012-11-30T06:58:16Z</time></trkpt><trkpt lat="32.6361982059" lon="35.1089620683"><ele>108.29</ele><time>2012-11-30T06:58:30Z</time></trkpt><trkpt lat="32.6361003052" lon="35.1088292990"><ele>111.17</ele><time>2012-11-30T06:58:41Z</time></trkpt><trkpt lat="32.6360238623" lon="35.1085754111"><ele>113.09</ele><time>2012-11-30T06:58:56Z</time></trkpt><trkpt lat="32.6360260416" lon="35.1085558813"><ele>113.09</ele><time>2012-11-30T06:58:57Z</time></trkpt><trkpt lat="32.6360358484" lon="35.1082715672"><ele>114.53</ele><time>2012-11-30T06:59:12Z</time></trkpt><trkpt lat="32.6360393688" lon="35.1082261372"><ele>115.01</ele><time>2012-11-30T06:59:15Z</time></trkpt><trkpt lat="32.6360365190" lon="35.1082094572"><ele>115.01</ele><time>2012-11-30T06:59:16Z</time></trkpt><trkpt lat="32.6360349264" lon="35.1081929449"><ele>115.01</ele><time>2012-11-30T06:59:17Z</time></trkpt><trkpt lat="32.6360340044" lon="35.1081765164"><ele>115.01</ele><time>2012-11-30T06:59:18Z</time></trkpt><trkpt lat="32.6360307354" lon="35.1081579085"><ele>115.01</ele><time>2012-11-30T06:59:19Z</time></trkpt><trkpt lat="32.6359616686" lon="35.1080579963"><ele>115.98</ele><time>2012-11-30T06:59:27Z</time></trkpt><trkpt lat="32.6359081920" lon="35.1082107145"><ele>117.42</ele><time>2012-11-30T06:59:39Z</time></trkpt><trkpt lat="32.6358545478" lon="35.1084297337"><ele>118.86</ele><time>2012-11-30T06:59:53Z</time></trkpt><trkpt lat="32.6358214393" lon="35.1086185779"><ele>119.34</ele><time>2012-11-30T07:00:05Z</time></trkpt><trkpt lat="32.6357799489" lon="35.1087659318"><ele>120.30</ele><time>2012-11-30T07:00:18Z</time></trkpt><trkpt lat="32.6356901787" lon="35.1089562848"><ele>122.71</ele><time>2012-11-30T07:00:34Z</time></trkpt><trkpt lat="32.6355850697" lon="35.1091245096"><ele>125.11</ele><time>2012-11-30T07:00:49Z</time></trkpt><trkpt lat="32.6354849059" lon="35.1092095021"><ele>127.51</ele><time>2012-11-30T07:00:59Z</time></trkpt><trkpt lat="32.6353539806" lon="35.1093774755"><ele>130.40</ele><time>2012-11-30T07:01:16Z</time></trkpt><trkpt lat="32.6352441777" lon="35.1094771363"><ele>131.36</ele><time>2012-11-30T07:01:27Z</time></trkpt><trkpt lat="32.6350259967" lon="35.1095878612"><ele>133.28</ele><time>2012-11-30T07:01:44Z</time></trkpt><trkpt lat="32.6348365657" lon="35.1096703392"><ele>134.24</ele><time>2012-11-30T07:01:57Z</time></trkpt><trkpt lat="32.6347113401" lon="35.1097096503"><ele>135.20</ele><time>2012-11-30T07:02:05Z</time></trkpt><trkpt lat="32.6344427001" lon="35.1097689942"><ele>135.20</ele><time>2012-11-30T07:02:19Z</time></trkpt><trkpt lat="32.6340562943" lon="35.1098427549"><ele>133.76</ele><time>2012-11-30T07:02:31Z</time></trkpt><trkpt lat="32.6337862294" lon="35.1098829042"><ele>134.24</ele><time>2012-11-30T07:02:45Z</time></trkpt><trkpt lat="32.6333934534" lon="35.1100290846"><ele>131.84</ele><time>2012-11-30T07:02:58Z</time></trkpt><trkpt lat="32.6333499514" lon="35.1100417413"><ele>131.36</ele><time>2012-11-30T07:02:59Z</time></trkpt><trkpt lat="32.6329522301" lon="35.1101459283"><ele>131.84</ele><time>2012-11-30T07:03:12Z</time></trkpt><trkpt lat="32.6326276828" lon="35.1104784384"><ele>131.84</ele><time>2012-11-30T07:03:28Z</time></trkpt><trkpt lat="32.6323564444" lon="35.1108055003"><ele>132.32</ele><time>2012-11-30T07:03:44Z</time></trkpt><trkpt lat="32.6322806720" lon="35.1109109446"><ele>132.80</ele><time>2012-11-30T07:03:50Z</time></trkpt><trkpt lat="32.6322509162" lon="35.1109502558"><ele>132.80</ele><time>2012-11-30T07:03:52Z</time></trkpt><trkpt lat="32.6322384272" lon="35.1109754853"><ele>132.32</ele><time>2012-11-30T07:03:53Z</time></trkpt><trkpt lat="32.6322257705" lon="35.1110005472"><ele>132.80</ele><time>2012-11-30T07:03:54Z</time></trkpt><trkpt lat="32.6322131138" lon="35.1110268664"><ele>132.80</ele><time>2012-11-30T07:03:55Z</time></trkpt><trkpt lat="32.6321967691" lon="35.1110515092"><ele>132.80</ele><time>2012-11-30T07:03:56Z</time></trkpt><trkpt lat="32.6319921669" lon="35.1113842707"><ele>135.20</ele><time>2012-11-30T07:04:11Z</time></trkpt><trkpt lat="32.6318536140" lon="35.1115742046"><ele>138.09</ele><time>2012-11-30T07:04:23Z</time></trkpt><trkpt lat="32.6318436395" lon="35.1115894597"><ele>138.57</ele><time>2012-11-30T07:04:24Z</time></trkpt><trkpt lat="32.6318358444" lon="35.1116062235"><ele>138.57</ele><time>2012-11-30T07:04:25Z</time></trkpt><trkpt lat="32.6317854691" lon="35.1116928086"><ele>139.05</ele><time>2012-11-30T07:04:32Z</time></trkpt><trkpt lat="32.6317786798" lon="35.1117096562"><ele>139.53</ele><time>2012-11-30T07:04:33Z</time></trkpt><trkpt lat="32.6317076012" lon="35.1118235663"><ele>140.01</ele><time>2012-11-30T07:04:40Z</time></trkpt><trkpt lat="32.6314944495" lon="35.1120819803"><ele>140.01</ele><time>2012-11-30T07:04:54Z</time></trkpt><trkpt lat="32.6312052738" lon="35.1122757699"><ele>140.01</ele><time>2012-11-30T07:05:08Z</time></trkpt><trkpt lat="32.6308627892" lon="35.1124319248"><ele>141.93</ele><time>2012-11-30T07:05:25Z</time></trkpt><trkpt lat="32.6304684207" lon="35.1125196833"><ele>141.93</ele><time>2012-11-30T07:05:43Z</time></trkpt><trkpt lat="32.6301373355" lon="35.1124791149"><ele>140.97</ele><time>2012-11-30T07:05:55Z</time></trkpt><trkpt lat="32.6298103575" lon="35.1124451682"><ele>140.01</ele><time>2012-11-30T07:06:10Z</time></trkpt><trkpt lat="32.6295734849" lon="35.1124486048"><ele>137.13</ele><time>2012-11-30T07:06:19Z</time></trkpt><trkpt lat="32.6295258757" lon="35.1124500297"><ele>136.64</ele><time>2012-11-30T07:06:20Z</time></trkpt><trkpt lat="32.6294758357" lon="35.1124461740"><ele>136.16</ele><time>2012-11-30T07:06:21Z</time></trkpt><trkpt lat="32.6294288132" lon="35.1124372054"><ele>136.16</ele><time>2012-11-30T07:06:22Z</time></trkpt><trkpt lat="32.6293834671" lon="35.1124260575"><ele>136.16</ele><time>2012-11-30T07:06:23Z</time></trkpt><trkpt lat="32.6290986501" lon="35.1123602595"><ele>133.76</ele><time>2012-11-30T07:06:31Z</time></trkpt><trkpt lat="32.6290579978" lon="35.1123334374"><ele>133.28</ele><time>2012-11-30T07:06:32Z</time></trkpt><trkpt lat="32.6290258113" lon="35.1122967247"><ele>133.76</ele><time>2012-11-30T07:06:33Z</time></trkpt><trkpt lat="32.6290046889" lon="35.1122540608"><ele>133.28</ele><time>2012-11-30T07:06:34Z</time></trkpt><trkpt lat="32.6289864164" lon="35.1122221258"><ele>133.76</ele><time>2012-11-30T07:06:35Z</time></trkpt><trkpt lat="32.6289687306" lon="35.1121913642"><ele>133.28</ele><time>2012-11-30T07:06:36Z</time></trkpt><trkpt lat="32.6289536431" lon="35.1121600159"><ele>133.76</ele><time>2012-11-30T07:06:37Z</time></trkpt><trkpt lat="32.6289403159" lon="35.1121302601"><ele>133.76</ele><time>2012-11-30T07:06:38Z</time></trkpt><trkpt lat="32.6288302615" lon="35.1118035335"><ele>137.13</ele><time>2012-11-30T07:06:50Z</time></trkpt><trkpt lat="32.6288212929" lon="35.1117682457"><ele>137.61</ele><time>2012-11-30T07:06:52Z</time></trkpt><trkpt lat="32.6288222149" lon="35.1117473748"><ele>137.61</ele><time>2012-11-30T07:06:53Z</time></trkpt><trkpt lat="32.6288248971" lon="35.1117280964"><ele>138.09</ele><time>2012-11-30T07:06:54Z</time></trkpt><trkpt lat="32.6288224664" lon="35.1117069740"><ele>138.57</ele><time>2012-11-30T07:06:55Z</time></trkpt><trkpt lat="32.6288149226" lon="35.1116859354"><ele>138.09</ele><time>2012-11-30T07:06:56Z</time></trkpt><trkpt lat="32.6288061216" lon="35.1116659027"><ele>139.05</ele><time>2012-11-30T07:06:57Z</time></trkpt><trkpt lat="32.6287987456" lon="35.1116471272"><ele>139.05</ele><time>2012-11-30T07:06:58Z</time></trkpt><trkpt lat="32.6287931297" lon="35.1116277650"><ele>139.53</ele><time>2012-11-30T07:06:59Z</time></trkpt><trkpt lat="32.6287914533" lon="35.1116069779"><ele>140.01</ele><time>2012-11-30T07:07:00Z</time></trkpt><trkpt lat="32.6287673973" lon="35.1114883740"><ele>140.49</ele><time>2012-11-30T07:07:09Z</time></trkpt><trkpt lat="32.6287363004" lon="35.1114255935"><ele>140.49</ele><time>2012-11-30T07:07:15Z</time></trkpt><trkpt lat="32.6287278347" lon="35.1114114281"><ele>140.49</ele><time>2012-11-30T07:07:16Z</time></trkpt><trkpt lat="32.6287171058" lon="35.1114001125"><ele>140.49</ele><time>2012-11-30T07:07:17Z</time></trkpt><trkpt lat="32.6287073828" lon="35.1113892160"><ele>140.97</ele><time>2012-11-30T07:07:18Z</time></trkpt><trkpt lat="32.6287019346" lon="35.1113773976"><ele>140.49</ele><time>2012-11-30T07:07:19Z</time></trkpt><trkpt lat="32.6286879368" lon="35.1113597956"><ele>140.97</ele><time>2012-11-30T07:07:21Z</time></trkpt><trkpt lat="32.6286762021" lon="35.1113510784"><ele>141.45</ele><time>2012-11-30T07:07:22Z</time></trkpt><trkpt lat="32.6286420040" lon="35.1112938300"><ele>141.93</ele><time>2012-11-30T07:07:27Z</time></trkpt><trkpt lat="32.6286122482" lon="35.1112632360"><ele>140.97</ele><time>2012-11-30T07:07:39Z</time></trkpt><trkpt lat="32.6285824925" lon="35.1112509985"><ele>141.45</ele><time>2012-11-30T07:08:17Z</time></trkpt><trkpt lat="32.6285689138" lon="35.1112351567"><ele>140.97</ele><time>2012-11-30T07:08:55Z</time></trkpt><trkpt lat="32.6285465341" lon="35.1112060715"><ele>141.45</ele><time>2012-11-30T07:09:25Z</time></trkpt><trkpt lat="32.6285856776" lon="35.1112500764"><ele>142.41</ele><time>2012-11-30T07:09:59Z</time></trkpt><trkpt lat="32.6285943948" lon="35.1111917384"><ele>143.37</ele><time>2012-11-30T07:10:16Z</time></trkpt><trkpt lat="32.6285850909" lon="35.1111986954"><ele>143.37</ele><time>2012-11-30T07:10:23Z</time></trkpt><trkpt lat="32.6284295227" lon="35.1109555364"><ele>143.85</ele><time>2012-11-30T07:10:34Z</time></trkpt><trkpt lat="32.6284058858" lon="35.1109150518"><ele>143.37</ele><time>2012-11-30T07:10:35Z</time></trkpt><trkpt lat="32.6283879485" lon="35.1108702086"><ele>143.37</ele><time>2012-11-30T07:10:36Z</time></trkpt><trkpt lat="32.6283805724" lon="35.1108235214"><ele>143.85</ele><time>2012-11-30T07:10:37Z</time></trkpt><trkpt lat="32.6283610426" lon="35.1105717290"><ele>147.22</ele><time>2012-11-30T07:10:47Z</time></trkpt><trkpt lat="32.6283529960" lon="35.1102480199"><ele>148.66</ele><time>2012-11-30T07:11:02Z</time></trkpt><trkpt lat="32.6284462027" lon="35.1099704113"><ele>150.58</ele><time>2012-11-30T07:11:17Z</time></trkpt><trkpt lat="32.6286088116" lon="35.1097984985"><ele>153.47</ele><time>2012-11-30T07:11:31Z</time></trkpt><trkpt lat="32.6286269166" lon="35.1097853389"><ele>153.95</ele><time>2012-11-30T07:11:33Z</time></trkpt><trkpt lat="32.6286467817" lon="35.1097534038"><ele>154.43</ele><time>2012-11-30T07:11:36Z</time></trkpt><trkpt lat="32.6286497992" lon="35.1097337063"><ele>153.95</ele><time>2012-11-30T07:11:37Z</time></trkpt><trkpt lat="32.6286529005" lon="35.1097167749"><ele>153.95</ele><time>2012-11-30T07:11:38Z</time></trkpt><trkpt lat="32.6286529843" lon="35.1096972451"><ele>153.95</ele><time>2012-11-30T07:11:39Z</time></trkpt><trkpt lat="32.6286496315" lon="35.1096796431"><ele>153.95</ele><time>2012-11-30T07:11:40Z</time></trkpt><trkpt lat="32.6286515594" lon="35.1096591912"><ele>153.95</ele><time>2012-11-30T07:11:41Z</time></trkpt><trkpt lat="32.6286594383" lon="35.1096446905"><ele>153.47</ele><time>2012-11-30T07:11:42Z</time></trkpt><trkpt lat="32.6286720112" lon="35.1096313633"><ele>153.47</ele><time>2012-11-30T07:11:43Z</time></trkpt><trkpt lat="32.6286869310" lon="35.1096166950"><ele>152.99</ele><time>2012-11-30T07:11:44Z</time></trkpt><trkpt lat="32.6286988333" lon="35.1095963269"><ele>152.99</ele><time>2012-11-30T07:11:45Z</time></trkpt><trkpt lat="32.6287121605" lon="35.1095710136"><ele>152.99</ele><time>2012-11-30T07:11:46Z</time></trkpt><trkpt lat="32.6289049443" lon="35.1092271879"><ele>149.62</ele><time>2012-11-30T07:11:56Z</time></trkpt><trkpt lat="32.6289281622" lon="35.1091802493"><ele>149.14</ele><time>2012-11-30T07:11:57Z</time></trkpt><trkpt lat="32.6290051080" lon="35.1090240944"><ele>147.22</ele><time>2012-11-30T07:12:00Z</time></trkpt><trkpt lat="32.6290667150" lon="35.1089191530"><ele>146.26</ele><time>2012-11-30T07:12:02Z</time></trkpt><trkpt lat="32.6293024980" lon="35.1086203381"><ele>142.41</ele><time>2012-11-30T07:12:08Z</time></trkpt><trkpt lat="32.6293855626" lon="35.1085235272"><ele>140.97</ele><time>2012-11-30T07:12:10Z</time></trkpt><trkpt lat="32.6299192384" lon="35.1079645380"><ele>139.05</ele><time>2012-11-30T07:12:22Z</time></trkpt><trkpt lat="32.6300975215" lon="35.1077357121"><ele>139.05</ele><time>2012-11-30T07:12:31Z</time></trkpt><trkpt lat="32.6301197335" lon="35.1077257376"><ele>138.57</ele><time>2012-11-30T07:12:45Z</time></trkpt><trkpt lat="32.6300932467" lon="35.1077644620"><ele>139.05</ele><time>2012-11-30T07:13:02Z</time></trkpt><trkpt lat="32.6300765667" lon="35.1077854168"><ele>138.57</ele><time>2012-11-30T07:13:05Z</time></trkpt><trkpt lat="32.6300671790" lon="35.1077968162"><ele>138.57</ele><time>2012-11-30T07:13:06Z</time></trkpt><trkpt lat="32.6298163924" lon="35.1080506202"><ele>138.57</ele><time>2012-11-30T07:13:21Z</time></trkpt><trkpt lat="32.6294841338" lon="35.1083825435"><ele>139.05</ele><time>2012-11-30T07:13:37Z</time></trkpt><trkpt lat="32.6292682998" lon="35.1086117886"><ele>140.49</ele><time>2012-11-30T07:13:50Z</time></trkpt><trkpt lat="32.6291471813" lon="35.1087802649"><ele>142.89</ele><time>2012-11-30T07:14:01Z</time></trkpt><trkpt lat="32.6291382965" lon="35.1087941788"><ele>142.89</ele><time>2012-11-30T07:14:02Z</time></trkpt><trkpt lat="32.6291282382" lon="35.1088067517"><ele>142.89</ele><time>2012-11-30T07:14:03Z</time></trkpt><trkpt lat="32.6291194372" lon="35.1088217553"><ele>142.89</ele><time>2012-11-30T07:14:04Z</time></trkpt><trkpt lat="32.6291105524" lon="35.1088358369"><ele>143.85</ele><time>2012-11-30T07:14:05Z</time></trkpt><trkpt lat="32.6290982310" lon="35.1088501699"><ele>143.37</ele><time>2012-11-30T07:14:06Z</time></trkpt><trkpt lat="32.6290844847" lon="35.1088672690"><ele>143.85</ele><time>2012-11-30T07:14:07Z</time></trkpt><trkpt lat="32.6289678924" lon="35.1090561133"><ele>146.74</ele><time>2012-11-30T07:14:21Z</time></trkpt><trkpt lat="32.6288859174" lon="35.1092087477"><ele>148.66</ele><time>2012-11-30T07:14:33Z</time></trkpt><trkpt lat="32.6287734322" lon="35.1093969215"><ele>151.06</ele><time>2012-11-30T07:14:49Z</time></trkpt><trkpt lat="32.6287299301" lon="35.1094829198"><ele>152.03</ele><time>2012-11-30T07:14:56Z</time></trkpt><trkpt lat="32.6287199557" lon="35.1094938163"><ele>152.03</ele><time>2012-11-30T07:14:57Z</time></trkpt><trkpt lat="32.6286302693" lon="35.1096685790"><ele>153.95</ele><time>2012-11-30T07:15:12Z</time></trkpt><trkpt lat="32.6285749488" lon="35.1098823175"><ele>154.43</ele><time>2012-11-30T07:15:28Z</time></trkpt><trkpt lat="32.6285386551" lon="35.1100698207"><ele>155.87</ele><time>2012-11-30T07:15:41Z</time></trkpt><trkpt lat="32.6285389904" lon="35.1100870036"><ele>155.87</ele><time>2012-11-30T07:15:42Z</time></trkpt><trkpt lat="32.6285541616" lon="35.1101319306"><ele>156.83</ele><time>2012-11-30T07:15:45Z</time></trkpt><trkpt lat="32.6285669021" lon="35.1101397257"><ele>157.31</ele><time>2012-11-30T07:15:46Z</time></trkpt><trkpt lat="32.6286222227" lon="35.1100971457"><ele>158.27</ele><time>2012-11-30T07:15:58Z</time></trkpt><trkpt lat="32.6286034472" lon="35.1100657135"><ele>157.79</ele><time>2012-11-30T07:16:27Z</time></trkpt><trkpt lat="32.6286218036" lon="35.1100605167"><ele>157.79</ele><time>2012-11-30T07:16:55Z</time></trkpt><trkpt lat="32.6286219712" lon="35.1100354549"><ele>158.27</ele><time>2012-11-30T07:17:01Z</time></trkpt><trkpt lat="32.6286545768" lon="35.1099828165"><ele>158.75</ele><time>2012-11-30T07:17:06Z</time></trkpt><trkpt lat="32.6286628749" lon="35.1099729259"><ele>158.75</ele><time>2012-11-30T07:17:07Z</time></trkpt><trkpt lat="32.6286716759" lon="35.1099596824"><ele>159.24</ele><time>2012-11-30T07:17:08Z</time></trkpt><trkpt lat="32.6286795549" lon="35.1099465229"><ele>159.24</ele><time>2012-11-30T07:17:09Z</time></trkpt><trkpt lat="32.6286845002" lon="35.1099315193"><ele>158.75</ele><time>2012-11-30T07:17:10Z</time></trkpt><trkpt lat="32.6286897808" lon="35.1099165156"><ele>159.24</ele><time>2012-11-30T07:17:11Z</time></trkpt><trkpt lat="32.6286958158" lon="35.1099002548"><ele>159.72</ele><time>2012-11-30T07:17:12Z</time></trkpt><trkpt lat="32.6287040301" lon="35.1098832395"><ele>159.72</ele><time>2012-11-30T07:17:13Z</time></trkpt><trkpt lat="32.6287155133" lon="35.1098715886"><ele>159.24</ele><time>2012-11-30T07:17:14Z</time></trkpt><trkpt lat="32.6287279185" lon="35.1098585129"><ele>160.20</ele><time>2012-11-30T07:17:15Z</time></trkpt><trkpt lat="32.6287392341" lon="35.1098423358"><ele>160.20</ele><time>2012-11-30T07:17:16Z</time></trkpt><trkpt lat="32.6287521422" lon="35.1098280028"><ele>160.20</ele><time>2012-11-30T07:17:17Z</time></trkpt><trkpt lat="32.6289228816" lon="35.1096397452"><ele>161.64</ele><time>2012-11-30T07:17:30Z</time></trkpt><trkpt lat="32.6291568205" lon="35.1093917247"><ele>162.60</ele><time>2012-11-30T07:17:46Z</time></trkpt><trkpt lat="32.6294516120" lon="35.1091633178"><ele>163.56</ele><time>2012-11-30T07:18:01Z</time></trkpt><trkpt lat="32.6297149714" lon="35.1089219190"><ele>162.60</ele><time>2012-11-30T07:18:12Z</time></trkpt><trkpt lat="32.6297488343" lon="35.1088882238"><ele>162.12</ele><time>2012-11-30T07:18:13Z</time></trkpt><trkpt lat="32.6297878101" lon="35.1088577975"><ele>162.12</ele><time>2012-11-30T07:18:14Z</time></trkpt><trkpt lat="32.6298257802" lon="35.1088287961"><ele>161.64</ele><time>2012-11-30T07:18:15Z</time></trkpt><trkpt lat="32.6298649237" lon="35.1087968610"><ele>161.64</ele><time>2012-11-30T07:18:16Z</time></trkpt><trkpt lat="32.6299049892" lon="35.1087660156"><ele>161.64</ele><time>2012-11-30T07:18:17Z</time></trkpt><trkpt lat="32.6303346455" lon="35.1084397081"><ele>160.68</ele><time>2012-11-30T07:18:29Z</time></trkpt><trkpt lat="32.6305835880" lon="35.1082355250"><ele>161.16</ele><time>2012-11-30T07:18:41Z</time></trkpt><trkpt lat="32.6308335364" lon="35.1080569904"><ele>161.64</ele><time>2012-11-30T07:18:54Z</time></trkpt><trkpt lat="32.6310475264" lon="35.1078876760"><ele>163.56</ele><time>2012-11-30T07:19:06Z</time></trkpt><trkpt lat="32.6312265638" lon="35.1076468639"><ele>165.48</ele><time>2012-11-30T07:19:20Z</time></trkpt><trkpt lat="32.6314514503" lon="35.1072436105"><ele>165.00</ele><time>2012-11-30T07:19:36Z</time></trkpt><trkpt lat="32.6316416357" lon="35.1070052292"><ele>167.41</ele><time>2012-11-30T07:19:51Z</time></trkpt><trkpt lat="32.6317955274" lon="35.1068251021"><ele>169.33</ele><time>2012-11-30T07:20:05Z</time></trkpt><trkpt lat="32.6319300570" lon="35.1066307258"><ele>170.77</ele><time>2012-11-30T07:20:20Z</time></trkpt><trkpt lat="32.6320866309" lon="35.1063574757"><ele>170.29</ele><time>2012-11-30T07:20:34Z</time></trkpt><trkpt lat="32.6320939232" lon="35.1063217688"><ele>170.29</ele><time>2012-11-30T07:20:36Z</time></trkpt><trkpt lat="32.6321020536" lon="35.1063110400"><ele>170.29</ele><time>2012-11-30T07:20:37Z</time></trkpt><trkpt lat="32.6321090944" lon="35.1062963717"><ele>170.29</ele><time>2012-11-30T07:20:38Z</time></trkpt><trkpt lat="32.6321149617" lon="35.1062785182"><ele>170.29</ele><time>2012-11-30T07:20:39Z</time></trkpt><trkpt lat="32.6321214158" lon="35.1062597428"><ele>170.29</ele><time>2012-11-30T07:20:40Z</time></trkpt><trkpt lat="32.6321292110" lon="35.1062448230"><ele>170.29</ele><time>2012-11-30T07:20:41Z</time></trkpt><trkpt lat="32.6321860403" lon="35.1061697211"><ele>170.29</ele><time>2012-11-30T07:20:47Z</time></trkpt><trkpt lat="32.6321947575" lon="35.1061575674"><ele>170.29</ele><time>2012-11-30T07:20:48Z</time></trkpt><trkpt lat="32.6322014630" lon="35.1061403006"><ele>170.29</ele><time>2012-11-30T07:20:49Z</time></trkpt><trkpt lat="32.6323418599" lon="35.1058465987"><ele>172.21</ele><time>2012-11-30T07:21:04Z</time></trkpt><trkpt lat="32.6324721146" lon="35.1056197844"><ele>174.62</ele><time>2012-11-30T07:21:18Z</time></trkpt><trkpt lat="32.6325768884" lon="35.1054576784"><ele>177.02</ele><time>2012-11-30T07:21:32Z</time></trkpt><trkpt lat="32.6326205581" lon="35.1054474525"><ele>177.50</ele><time>2012-11-30T07:21:36Z</time></trkpt><trkpt lat="32.6327745337" lon="35.1054232288"><ele>180.38</ele><time>2012-11-30T07:21:50Z</time></trkpt><trkpt lat="32.6328208018" lon="35.1054075547"><ele>181.35</ele><time>2012-11-30T07:21:54Z</time></trkpt><trkpt lat="32.6329333708" lon="35.1053153537"><ele>182.79</ele><time>2012-11-30T07:22:07Z</time></trkpt><trkpt lat="32.6329563372" lon="35.1052933931"><ele>183.27</ele><time>2012-11-30T07:22:10Z</time></trkpt><trkpt lat="32.6329637133" lon="35.1052839216"><ele>182.79</ele><time>2012-11-30T07:22:11Z</time></trkpt><trkpt lat="32.6330337860" lon="35.1051975880"><ele>183.27</ele><time>2012-11-30T07:22:24Z</time></trkpt><trkpt lat="32.6330349594" lon="35.1052020304"><ele>183.27</ele><time>2012-11-30T07:22:52Z</time></trkpt><trkpt lat="32.6330497954" lon="35.1052104123"><ele>183.27</ele><time>2012-11-30T07:23:16Z</time></trkpt><trkpt lat="32.6330685709" lon="35.1051828358"><ele>183.75</ele><time>2012-11-30T07:23:45Z</time></trkpt><trkpt lat="32.6330528967" lon="35.1051940676"><ele>183.75</ele><time>2012-11-30T07:24:12Z</time></trkpt><trkpt lat="32.6330869272" lon="35.1052016113"><ele>183.75</ele><time>2012-11-30T07:24:43Z</time></trkpt><trkpt lat="32.6331792120" lon="35.1051875297"><ele>183.75</ele><time>2012-11-30T07:24:57Z</time></trkpt><trkpt lat="32.6331802178" lon="35.1051912177"><ele>183.27</ele><time>2012-11-30T07:25:34Z</time></trkpt><trkpt lat="32.6332108956" lon="35.1051804889"><ele>183.27</ele><time>2012-11-30T07:26:24Z</time></trkpt><trkpt lat="32.6331841573" lon="35.1051577739"><ele>184.23</ele><time>2012-11-30T07:26:34Z</time></trkpt><trkpt lat="32.6331909467" lon="35.1051478833"><ele>184.23</ele><time>2012-11-30T07:26:35Z</time></trkpt><trkpt lat="32.6331967302" lon="35.1051335502"><ele>184.23</ele><time>2012-11-30T07:26:36Z</time></trkpt><trkpt lat="32.6332067885" lon="35.1051171217"><ele>184.23</ele><time>2012-11-30T07:26:37Z</time></trkpt><trkpt lat="32.6332231332" lon="35.1051059738"><ele>184.23</ele><time>2012-11-30T07:26:38Z</time></trkpt><trkpt lat="32.6332431659" lon="35.1051038783"><ele>183.75</ele><time>2012-11-30T07:26:39Z</time></trkpt><trkpt lat="32.6332598459" lon="35.1051075663"><ele>183.75</ele><time>2012-11-30T07:26:40Z</time></trkpt><trkpt lat="32.6332782861" lon="35.1051267609"><ele>183.75</ele><time>2012-11-30T07:26:42Z</time></trkpt><trkpt lat="32.6333074551" lon="35.1052678283"><ele>185.67</ele><time>2012-11-30T07:26:52Z</time></trkpt><trkpt lat="32.6333010010" lon="35.1054435968"><ele>189.04</ele><time>2012-11-30T07:27:04Z</time></trkpt><trkpt lat="32.6332554873" lon="35.1055220515"><ele>190.48</ele><time>2012-11-30T07:27:11Z</time></trkpt><trkpt lat="32.6332288329" lon="35.1055363007"><ele>190.00</ele><time>2012-11-30T07:27:13Z</time></trkpt><trkpt lat="32.6332025975" lon="35.1055655535"><ele>190.48</ele><time>2012-11-30T07:27:16Z</time></trkpt><trkpt lat="32.6331820618" lon="35.1056499593"><ele>190.48</ele><time>2012-11-30T07:27:22Z</time></trkpt><trkpt lat="32.6331732608" lon="35.1058465987"><ele>192.88</ele><time>2012-11-30T07:27:37Z</time></trkpt><trkpt lat="32.6331917010" lon="35.1060369518"><ele>194.80</ele><time>2012-11-30T07:27:52Z</time></trkpt><trkpt lat="32.6332153380" lon="35.1062279753"><ele>197.21</ele><time>2012-11-30T07:28:05Z</time></trkpt><trkpt lat="32.6332486141" lon="35.1064231899"><ele>199.61</ele><time>2012-11-30T07:28:20Z</time></trkpt><trkpt lat="32.6332964748" lon="35.1066096034"><ele>200.09</ele><time>2012-11-30T07:28:35Z</time></trkpt><trkpt lat="32.6333066169" lon="35.1066319831"><ele>200.57</ele><time>2012-11-30T07:28:37Z</time></trkpt><trkpt lat="32.6333513763" lon="35.1068534330"><ele>204.90</ele><time>2012-11-30T07:28:52Z</time></trkpt><trkpt lat="32.6333346963" lon="35.1070028823"><ele>205.86</ele><time>2012-11-30T07:29:04Z</time></trkpt><trkpt lat="32.6333232131" lon="35.1070281118"><ele>205.86</ele><time>2012-11-30T07:29:06Z</time></trkpt><trkpt lat="32.6333214529" lon="35.1071449555"><ele>206.34</ele><time>2012-11-30T07:29:13Z</time></trkpt><trkpt lat="32.6333157532" lon="35.1074153557"><ele>207.78</ele><time>2012-11-30T07:29:30Z</time></trkpt><trkpt lat="32.6333497837" lon="35.1075290143"><ele>208.74</ele><time>2012-11-30T07:29:38Z</time></trkpt><trkpt lat="32.6334175933" lon="35.1076544914"><ele>209.70</ele><time>2012-11-30T07:29:46Z</time></trkpt><trkpt lat="32.6334496122" lon="35.1077379752"><ele>209.70</ele><time>2012-11-30T07:30:00Z</time></trkpt><trkpt lat="32.6334290765" lon="35.1077593490"><ele>209.22</ele><time>2012-11-30T07:30:20Z</time></trkpt><trkpt lat="32.6334936172" lon="35.1077765319"><ele>209.22</ele><time>2012-11-30T07:30:35Z</time></trkpt><trkpt lat="32.6336366963" lon="35.1077562477"><ele>208.74</ele><time>2012-11-30T07:30:43Z</time></trkpt><trkpt lat="32.6338441484" lon="35.1077571698"><ele>205.86</ele><time>2012-11-30T07:30:50Z</time></trkpt><trkpt lat="32.6339029055" lon="35.1077179424"><ele>204.90</ele><time>2012-11-30T07:30:52Z</time></trkpt><trkpt lat="32.6339591481" lon="35.1072992664"><ele>202.98</ele><time>2012-11-30T07:31:02Z</time></trkpt><trkpt lat="32.6339466590" lon="35.1070416905"><ele>200.57</ele><time>2012-11-30T07:31:11Z</time></trkpt><trkpt lat="32.6339826174" lon="35.1070128568"><ele>200.57</ele><time>2012-11-30T07:31:31Z</time></trkpt><trkpt lat="32.6340334117" lon="35.1070390921"><ele>200.57</ele><time>2012-11-30T07:32:12Z</time></trkpt><trkpt lat="32.6340937614" lon="35.1070415229"><ele>200.57</ele><time>2012-11-30T07:32:59Z</time></trkpt><trkpt lat="32.6340697054" lon="35.1069821790"><ele>201.05</ele><time>2012-11-30T07:33:25Z</time></trkpt><trkpt lat="32.6340346690" lon="35.1069546863"><ele>200.57</ele><time>2012-11-30T07:33:28Z</time></trkpt><trkpt lat="32.6340736449" lon="35.1071069855"><ele>199.61</ele><time>2012-11-30T07:33:34Z</time></trkpt><trkpt lat="32.6340815239" lon="35.1071442850"><ele>199.61</ele><time>2012-11-30T07:33:35Z</time></trkpt><trkpt lat="32.6340892352" lon="35.1071803272"><ele>199.61</ele><time>2012-11-30T07:33:36Z</time></trkpt><trkpt lat="32.6340977009" lon="35.1072149444"><ele>199.61</ele><time>2012-11-30T07:33:37Z</time></trkpt><trkpt lat="32.6341040712" lon="35.1072486397"><ele>199.13</ele><time>2012-11-30T07:33:38Z</time></trkpt><trkpt lat="32.6341102738" lon="35.1072799042"><ele>199.13</ele><time>2012-11-30T07:33:39Z</time></trkpt><trkpt lat="32.6342054922" lon="35.1076862589"><ele>197.69</ele><time>2012-11-30T07:33:50Z</time></trkpt><trkpt lat="32.6342367567" lon="35.1078114007"><ele>196.73</ele><time>2012-11-30T07:33:52Z</time></trkpt><trkpt lat="32.6342494134" lon="35.1078709122"><ele>196.25</ele><time>2012-11-30T07:33:53Z</time></trkpt><trkpt lat="32.6342894789" lon="35.1080491953"><ele>194.80</ele><time>2012-11-30T07:33:56Z</time></trkpt><trkpt lat="32.6342939213" lon="35.1081087068"><ele>194.32</ele><time>2012-11-30T07:33:57Z</time></trkpt><trkpt lat="32.6342918258" lon="35.1081626024"><ele>193.84</ele><time>2012-11-30T07:33:58Z</time></trkpt><trkpt lat="32.6342746429" lon="35.1082693879"><ele>192.88</ele><time>2012-11-30T07:34:00Z</time></trkpt><trkpt lat="32.6342493296" lon="35.1083180867"><ele>192.88</ele><time>2012-11-30T07:34:01Z</time></trkpt><trkpt lat="32.6339136343" lon="35.1085461583"><ele>193.84</ele><time>2012-11-30T07:34:11Z</time></trkpt><trkpt lat="32.6334434096" lon="35.1086769998"><ele>192.88</ele><time>2012-11-30T07:34:24Z</time></trkpt><trkpt lat="32.6332310960" lon="35.1087479945"><ele>192.88</ele><time>2012-11-30T07:34:29Z</time></trkpt><trkpt lat="32.6331849117" lon="35.1087651774"><ele>192.88</ele><time>2012-11-30T07:34:30Z</time></trkpt><trkpt lat="32.6331362966" lon="35.1087758224"><ele>192.88</ele><time>2012-11-30T07:34:31Z</time></trkpt><trkpt lat="32.6329841651" lon="35.1088062488"><ele>192.40</ele><time>2012-11-30T07:34:34Z</time></trkpt><trkpt lat="32.6326685864" lon="35.1089134533"><ele>190.00</ele><time>2012-11-30T07:34:39Z</time></trkpt><trkpt lat="32.6326074824" lon="35.1089271996"><ele>190.00</ele><time>2012-11-30T07:34:40Z</time></trkpt><trkpt lat="32.6324939914" lon="35.1089599729"><ele>190.00</ele><time>2012-11-30T07:34:42Z</time></trkpt><trkpt lat="32.6323882118" lon="35.1090014633"><ele>189.04</ele><time>2012-11-30T07:34:44Z</time></trkpt><trkpt lat="32.6323432848" lon="35.1090267766"><ele>189.52</ele><time>2012-11-30T07:34:45Z</time></trkpt><trkpt lat="32.6321655884" lon="35.1092730369"><ele>188.56</ele><time>2012-11-30T07:34:54Z</time></trkpt><trkpt lat="32.6320201624" lon="35.1095517352"><ele>187.59</ele><time>2012-11-30T07:35:05Z</time></trkpt><trkpt lat="32.6318908297" lon="35.1097989175"><ele>186.63</ele><time>2012-11-30T07:35:13Z</time></trkpt><trkpt lat="32.6317281369" lon="35.1100500394"><ele>187.11</ele><time>2012-11-30T07:35:25Z</time></trkpt><trkpt lat="32.6315442380" lon="35.1103216130"><ele>187.11</ele><time>2012-11-30T07:35:36Z</time></trkpt><trkpt lat="32.6312971395" lon="35.1106918417"><ele>188.08</ele><time>2012-11-30T07:35:50Z</time></trkpt><trkpt lat="32.6312285755" lon="35.1108661853"><ele>187.11</ele><time>2012-11-30T07:35:58Z</time></trkpt><trkpt lat="32.6312208641" lon="35.1108852960"><ele>187.11</ele><time>2012-11-30T07:35:59Z</time></trkpt><trkpt lat="32.6312107220" lon="35.1108951867"><ele>187.11</ele><time>2012-11-30T07:36:00Z</time></trkpt><trkpt lat="32.6311968919" lon="35.1109017245"><ele>187.11</ele><time>2012-11-30T07:36:01Z</time></trkpt><trkpt lat="32.6311824750" lon="35.1109071728"><ele>187.11</ele><time>2012-11-30T07:36:02Z</time></trkpt><trkpt lat="32.6311658788" lon="35.1109133754"><ele>187.11</ele><time>2012-11-30T07:36:03Z</time></trkpt><trkpt lat="32.6311502885" lon="35.1109139621"><ele>187.11</ele><time>2012-11-30T07:36:04Z</time></trkpt><trkpt lat="32.6311484445" lon="35.1109090168"><ele>186.63</ele><time>2012-11-30T07:36:17Z</time></trkpt><trkpt lat="32.6311310939" lon="35.1108816918"><ele>187.59</ele><time>2012-11-30T07:36:48Z</time></trkpt><trkpt lat="32.6311395597" lon="35.1108950190"><ele>186.63</ele><time>2012-11-30T07:37:19Z</time></trkpt><trkpt lat="32.6311332732" lon="35.1108792610"><ele>186.63</ele><time>2012-11-30T07:37:58Z</time></trkpt><trkpt lat="32.6311287470" lon="35.1108862180"><ele>186.15</ele><time>2012-11-30T07:38:19Z</time></trkpt><trkpt lat="32.6311149169" lon="35.1109000482"><ele>186.63</ele><time>2012-11-30T07:38:52Z</time></trkpt><trkpt lat="32.6311046071" lon="35.1109531894"><ele>186.63</ele><time>2012-11-30T07:39:12Z</time></trkpt><trkpt lat="32.6310987398" lon="35.1109707914"><ele>187.11</ele><time>2012-11-30T07:39:13Z</time></trkpt><trkpt lat="32.6310869213" lon="35.1109956019"><ele>186.63</ele><time>2012-11-30T07:39:14Z</time></trkpt><trkpt lat="32.6310720015" lon="35.1110256929"><ele>186.63</ele><time>2012-11-30T07:39:15Z</time></trkpt><trkpt lat="32.6310566626" lon="35.1110653393"><ele>186.15</ele><time>2012-11-30T07:39:16Z</time></trkpt><trkpt lat="32.6310411561" lon="35.1111128647"><ele>185.67</ele><time>2012-11-30T07:39:17Z</time></trkpt><trkpt lat="32.6310204528" lon="35.1111622341"><ele>185.19</ele><time>2012-11-30T07:39:18Z</time></trkpt><trkpt lat="32.6309968159" lon="35.1112102624"><ele>184.71</ele><time>2012-11-30T07:39:19Z</time></trkpt><trkpt lat="32.6309765317" lon="35.1112587098"><ele>184.23</ele><time>2012-11-30T07:39:20Z</time></trkpt><trkpt lat="32.6309621986" lon="35.1113084983"><ele>183.75</ele><time>2012-11-30T07:39:21Z</time></trkpt><trkpt lat="32.6309526432" lon="35.1113557722"><ele>183.27</ele><time>2012-11-30T07:39:22Z</time></trkpt><trkpt lat="32.6309436746" lon="35.1113972627"><ele>182.31</ele><time>2012-11-30T07:39:23Z</time></trkpt><trkpt lat="32.6308841631" lon="35.1115229074"><ele>180.87</ele><time>2012-11-30T07:39:31Z</time></trkpt><trkpt lat="32.6308894437" lon="35.1115215663"><ele>180.87</ele><time>2012-11-30T07:39:53Z</time></trkpt><trkpt lat="32.6308882702" lon="35.1115320437"><ele>181.35</ele><time>2012-11-30T07:40:26Z</time></trkpt><trkpt lat="32.6308578439" lon="35.1115374081"><ele>180.87</ele><time>2012-11-30T07:41:05Z</time></trkpt><trkpt lat="32.6308261603" lon="35.1115885377"><ele>181.35</ele><time>2012-11-30T07:41:33Z</time></trkpt><trkpt lat="32.6308181137" lon="35.1115936507"><ele>181.35</ele><time>2012-11-30T07:41:34Z</time></trkpt><trkpt lat="32.6308064628" lon="35.1115997694"><ele>181.83</ele><time>2012-11-30T07:41:35Z</time></trkpt><trkpt lat="32.6307919621" lon="35.1116094086"><ele>181.35</ele><time>2012-11-30T07:41:36Z</time></trkpt><trkpt lat="32.6307726000" lon="35.1116203051"><ele>181.83</ele><time>2012-11-30T07:41:37Z</time></trkpt><trkpt lat="32.6307486277" lon="35.1116327103"><ele>181.35</ele><time>2012-11-30T07:41:38Z</time></trkpt><trkpt lat="32.6303910557" lon="35.1115934830"><ele>182.31</ele><time>2012-11-30T07:41:49Z</time></trkpt><trkpt lat="32.6300155465" lon="35.1114109252"><ele>182.79</ele><time>2012-11-30T07:42:02Z</time></trkpt><trkpt lat="32.6299820188" lon="35.1113801636"><ele>182.31</ele><time>2012-11-30T07:42:03Z</time></trkpt><trkpt lat="32.6299521793" lon="35.1113411039"><ele>181.83</ele><time>2012-11-30T07:42:04Z</time></trkpt><trkpt lat="32.6295784302" lon="35.1108628325"><ele>179.42</ele><time>2012-11-30T07:42:17Z</time></trkpt><trkpt lat="32.6294955332" lon="35.1107495930"><ele>178.46</ele><time>2012-11-30T07:42:19Z</time></trkpt><trkpt lat="32.6292874105" lon="35.1103715692"><ele>177.98</ele><time>2012-11-30T07:42:26Z</time></trkpt><trkpt lat="32.6292683836" lon="35.1103172544"><ele>177.02</ele><time>2012-11-30T07:42:27Z</time></trkpt><trkpt lat="32.6292496920" lon="35.1102069486"><ele>177.02</ele><time>2012-11-30T07:42:29Z</time></trkpt><trkpt lat="32.6292565651" lon="35.1101603452"><ele>177.02</ele><time>2012-11-30T07:42:30Z</time></trkpt><trkpt lat="32.6292702276" lon="35.1101224590"><ele>177.02</ele><time>2012-11-30T07:42:31Z</time></trkpt><trkpt lat="32.6292879134" lon="35.1100932062"><ele>177.50</ele><time>2012-11-30T07:42:32Z</time></trkpt><trkpt lat="32.6293074433" lon="35.1100689825"><ele>177.50</ele><time>2012-11-30T07:42:33Z</time></trkpt><trkpt lat="32.6293269731" lon="35.1100461837"><ele>177.98</ele><time>2012-11-30T07:42:34Z</time></trkpt><trkpt lat="32.6293417253" lon="35.1100239716"><ele>177.50</ele><time>2012-11-30T07:42:35Z</time></trkpt><trkpt lat="32.6293551363" lon="35.1100025140"><ele>177.98</ele><time>2012-11-30T07:42:36Z</time></trkpt><trkpt lat="32.6293698885" lon="35.1099771168"><ele>178.46</ele><time>2012-11-30T07:42:37Z</time></trkpt><trkpt lat="32.6293827128" lon="35.1099531446"><ele>177.50</ele><time>2012-11-30T07:42:38Z</time></trkpt><trkpt lat="32.6297127921" lon="35.1095824968"><ele>179.42</ele><time>2012-11-30T07:42:55Z</time></trkpt><trkpt lat="32.6300484035" lon="35.1092503220"><ele>178.94</ele><time>2012-11-30T07:43:10Z</time></trkpt><trkpt lat="32.6303094160" lon="35.1090881322"><ele>179.90</ele><time>2012-11-30T07:43:23Z</time></trkpt><trkpt lat="32.6305244956" lon="35.1089331508"><ele>181.35</ele><time>2012-11-30T07:43:36Z</time></trkpt><trkpt lat="32.6307701692" lon="35.1087673567"><ele>183.27</ele><time>2012-11-30T07:43:51Z</time></trkpt><trkpt lat="32.6309680659" lon="35.1086661872"><ele>184.23</ele><time>2012-11-30T07:44:02Z</time></trkpt><trkpt lat="32.6309841592" lon="35.1086558774"><ele>184.23</ele><time>2012-11-30T07:44:03Z</time></trkpt><trkpt lat="32.6310011744" lon="35.1086463220"><ele>184.23</ele><time>2012-11-30T07:44:04Z</time></trkpt><trkpt lat="32.6312647015" lon="35.1085246168"><ele>186.15</ele><time>2012-11-30T07:44:20Z</time></trkpt><trkpt lat="32.6315158233" lon="35.1083304081"><ele>187.11</ele><time>2012-11-30T07:44:35Z</time></trkpt><trkpt lat="32.6317409612" lon="35.1080853213"><ele>189.04</ele><time>2012-11-30T07:44:52Z</time></trkpt><trkpt lat="32.6319329068" lon="35.1078426652"><ele>190.96</ele><time>2012-11-30T07:45:07Z</time></trkpt><trkpt lat="32.6321252715" lon="35.1075896993"><ele>191.92</ele><time>2012-11-30T07:45:21Z</time></trkpt><trkpt lat="32.6322981063" lon="35.1072982606"><ele>191.92</ele><time>2012-11-30T07:45:35Z</time></trkpt><trkpt lat="32.6324702706" lon="35.1070064027"><ele>192.88</ele><time>2012-11-30T07:45:48Z</time></trkpt><trkpt lat="32.6326446980" lon="35.1066925842"><ele>192.40</ele><time>2012-11-30T07:46:00Z</time></trkpt><trkpt lat="32.6328308601" lon="35.1063333359"><ele>191.92</ele><time>2012-11-30T07:46:15Z</time></trkpt><trkpt lat="32.6329755317" lon="35.1059850678"><ele>190.96</ele><time>2012-11-30T07:46:29Z</time></trkpt><trkpt lat="32.6331922878" lon="35.1056336984"><ele>190.48</ele><time>2012-11-30T07:46:44Z</time></trkpt><trkpt lat="32.6332499553" lon="35.1055482030"><ele>189.52</ele><time>2012-11-30T07:46:50Z</time></trkpt><trkpt lat="32.6332535595" lon="35.1055311039"><ele>189.52</ele><time>2012-11-30T07:46:51Z</time></trkpt><trkpt lat="32.6332567446" lon="35.1055118255"><ele>189.04</ele><time>2012-11-30T07:46:52Z</time></trkpt><trkpt lat="32.6332697365" lon="35.1053476240"><ele>185.67</ele><time>2012-11-30T07:46:58Z</time></trkpt><trkpt lat="32.6332662161" lon="35.1053017750"><ele>185.19</ele><time>2012-11-30T07:46:59Z</time></trkpt><trkpt lat="32.6332686469" lon="35.1052373182"><ele>184.23</ele><time>2012-11-30T07:47:01Z</time></trkpt><trkpt lat="32.6332507934" lon="35.1051775552"><ele>182.79</ele><time>2012-11-30T07:47:03Z</time></trkpt><trkpt lat="32.6332279108" lon="35.1051566843"><ele>183.27</ele><time>2012-11-30T07:47:04Z</time></trkpt><trkpt lat="32.6331039425" lon="35.1051615458"><ele>183.27</ele><time>2012-11-30T07:47:11Z</time></trkpt><trkpt lat="32.6330421679" lon="35.1052294392"><ele>183.75</ele><time>2012-11-30T07:47:16Z</time></trkpt><trkpt lat="32.6330725942" lon="35.1052424312"><ele>183.27</ele><time>2012-11-30T07:47:27Z</time></trkpt><trkpt lat="32.6330784615" lon="35.1051985100"><ele>183.75</ele><time>2012-11-30T07:47:52Z</time></trkpt><trkpt lat="32.6331142522" lon="35.1051940676"><ele>183.75</ele><time>2012-11-30T07:48:16Z</time></trkpt><trkpt lat="32.6330959797" lon="35.1051760465"><ele>183.75</ele><time>2012-11-30T07:48:37Z</time></trkpt><trkpt lat="32.6330641285" lon="35.1051899604"><ele>183.75</ele><time>2012-11-30T07:49:05Z</time></trkpt><trkpt lat="32.6330172736" lon="35.1051814109"><ele>183.75</ele><time>2012-11-30T07:49:31Z</time></trkpt><trkpt lat="32.6330007613" lon="35.1051762141"><ele>183.27</ele><time>2012-11-30T07:49:37Z</time></trkpt><trkpt lat="32.6329885237" lon="35.1051823329"><ele>183.27</ele><time>2012-11-30T07:49:38Z</time></trkpt><trkpt lat="32.6327462867" lon="35.1054430939"><ele>180.87</ele><time>2012-11-30T07:49:53Z</time></trkpt><trkpt lat="32.6326815784" lon="35.1054445188"><ele>179.42</ele><time>2012-11-30T07:49:56Z</time></trkpt><trkpt lat="32.6326610427" lon="35.1054260787"><ele>178.94</ele><time>2012-11-30T07:49:57Z</time></trkpt><trkpt lat="32.6326403394" lon="35.1054018550"><ele>177.98</ele><time>2012-11-30T07:49:58Z</time></trkpt><trkpt lat="32.6326208096" lon="35.1053718477"><ele>177.98</ele><time>2012-11-30T07:49:59Z</time></trkpt><trkpt lat="32.6326115057" lon="35.1053356379"><ele>177.50</ele><time>2012-11-30T07:50:00Z</time></trkpt><trkpt lat="32.6326123439" lon="35.1052948181"><ele>177.50</ele><time>2012-11-30T07:50:01Z</time></trkpt><trkpt lat="32.6326228213" lon="35.1052583568"><ele>177.50</ele><time>2012-11-30T07:50:02Z</time></trkpt><trkpt lat="32.6326418482" lon="35.1052280143"><ele>177.50</ele><time>2012-11-30T07:50:03Z</time></trkpt><trkpt lat="32.6328332908" lon="35.1049582846"><ele>176.06</ele><time>2012-11-30T07:50:13Z</time></trkpt><trkpt lat="32.6331176888" lon="35.1046387665"><ele>172.69</ele><time>2012-11-30T07:50:21Z</time></trkpt><trkpt lat="32.6331972331" lon="35.1045722980"><ele>172.69</ele><time>2012-11-30T07:50:23Z</time></trkpt><trkpt lat="32.6333263144" lon="35.1045049913"><ele>171.25</ele><time>2012-11-30T07:50:26Z</time></trkpt><trkpt lat="32.6334284898" lon="35.1044687815"><ele>171.25</ele><time>2012-11-30T07:50:29Z</time></trkpt><trkpt lat="32.6334525459" lon="35.1044524368"><ele>170.77</ele><time>2012-11-30T07:50:30Z</time></trkpt><trkpt lat="32.6334723271" lon="35.1044352539"><ele>170.29</ele><time>2012-11-30T07:50:31Z</time></trkpt><trkpt lat="32.6334885880" lon="35.1044135448"><ele>169.81</ele><time>2012-11-30T07:50:32Z</time></trkpt><trkpt lat="32.6335049327" lon="35.1043874770"><ele>169.81</ele><time>2012-11-30T07:50:33Z</time></trkpt><trkpt lat="32.6335149910" lon="35.1043577213"><ele>169.33</ele><time>2012-11-30T07:50:34Z</time></trkpt><trkpt lat="32.6335175056" lon="35.1043303963"><ele>169.33</ele><time>2012-11-30T07:50:35Z</time></trkpt><trkpt lat="32.6335133146" lon="35.1043045800"><ele>168.85</ele><time>2012-11-30T07:50:36Z</time></trkpt><trkpt lat="32.6334975567" lon="35.1042832900"><ele>168.37</ele><time>2012-11-30T07:50:37Z</time></trkpt><trkpt lat="32.6334708184" lon="35.1042693760"><ele>168.37</ele><time>2012-11-30T07:50:38Z</time></trkpt><trkpt lat="32.6334418170" lon="35.1042609941"><ele>168.37</ele><time>2012-11-30T07:50:39Z</time></trkpt><trkpt lat="32.6334099658" lon="35.1042511873"><ele>167.89</ele><time>2012-11-30T07:50:40Z</time></trkpt><trkpt lat="32.6331261545" lon="35.1041896641"><ele>166.45</ele><time>2012-11-30T07:50:47Z</time></trkpt><trkpt lat="32.6328129228" lon="35.1042041648"><ele>164.04</ele><time>2012-11-30T07:50:55Z</time></trkpt><trkpt lat="32.6327581890" lon="35.1042225212"><ele>163.56</ele><time>2012-11-30T07:50:56Z</time></trkpt><trkpt lat="32.6327050477" lon="35.1042542048"><ele>163.56</ele><time>2012-11-30T07:50:57Z</time></trkpt><trkpt lat="32.6326540019" lon="35.1042948570"><ele>163.08</ele><time>2012-11-30T07:50:58Z</time></trkpt><trkpt lat="32.6326027885" lon="35.1043403707"><ele>162.60</ele><time>2012-11-30T07:50:59Z</time></trkpt><trkpt lat="32.6324228290" lon="35.1045406144"><ele>162.12</ele><time>2012-11-30T07:51:03Z</time></trkpt><trkpt lat="32.6323932409" lon="35.1045890618"><ele>162.60</ele><time>2012-11-30T07:51:04Z</time></trkpt><trkpt lat="32.6323643234" lon="35.1046342403"><ele>162.12</ele><time>2012-11-30T07:51:05Z</time></trkpt><trkpt lat="32.6323307958" lon="35.1046784129"><ele>162.12</ele><time>2012-11-30T07:51:06Z</time></trkpt><trkpt lat="32.6322971843" lon="35.1047240105"><ele>162.12</ele><time>2012-11-30T07:51:07Z</time></trkpt><trkpt lat="32.6319018099" lon="35.1052286010"><ele>158.75</ele><time>2012-11-30T07:51:16Z</time></trkpt><trkpt lat="32.6317002252" lon="35.1054334547"><ele>155.87</ele><time>2012-11-30T07:51:19Z</time></trkpt><trkpt lat="32.6313944533" lon="35.1057519671"><ele>152.03</ele><time>2012-11-30T07:51:23Z</time></trkpt><trkpt lat="32.6313257217" lon="35.1058441680"><ele>151.06</ele><time>2012-11-30T07:51:24Z</time></trkpt><trkpt lat="32.6310663857" lon="35.1061855629"><ele>148.18</ele><time>2012-11-30T07:51:28Z</time></trkpt><trkpt lat="32.6308036130" lon="35.1065127086"><ele>144.82</ele><time>2012-11-30T07:51:32Z</time></trkpt><trkpt lat="32.6305574365" lon="35.1068660896"><ele>141.45</ele><time>2012-11-30T07:51:36Z</time></trkpt><trkpt lat="32.6304042991" lon="35.1071521640"><ele>140.49</ele><time>2012-11-30T07:51:42Z</time></trkpt><trkpt lat="32.6303877030" lon="35.1071629766"><ele>140.49</ele><time>2012-11-30T07:51:43Z</time></trkpt><trkpt lat="32.6303726155" lon="35.1071701013"><ele>140.49</ele><time>2012-11-30T07:51:44Z</time></trkpt><trkpt lat="32.6303587854" lon="35.1071783155"><ele>140.49</ele><time>2012-11-30T07:51:45Z</time></trkpt><trkpt lat="32.6303477213" lon="35.1071735378"><ele>140.01</ele><time>2012-11-30T07:51:57Z</time></trkpt><trkpt lat="32.6303574443" lon="35.1071382500"><ele>140.01</ele><time>2012-11-30T07:52:28Z</time></trkpt><trkpt lat="32.6303520799" lon="35.1071355678"><ele>140.49</ele><time>2012-11-30T07:52:52Z</time></trkpt><trkpt lat="32.6303319633" lon="35.1071332209"><ele>140.49</ele><time>2012-11-30T07:52:53Z</time></trkpt><trkpt lat="32.6303048898" lon="35.1071425248"><ele>139.53</ele><time>2012-11-30T07:52:54Z</time></trkpt><trkpt lat="32.6302696019" lon="35.1071624737"><ele>139.53</ele><time>2012-11-30T07:52:55Z</time></trkpt><trkpt lat="32.6302276924" lon="35.1071899664"><ele>139.53</ele><time>2012-11-30T07:52:56Z</time></trkpt><trkpt lat="32.6301760599" lon="35.1072252542"><ele>138.57</ele><time>2012-11-30T07:52:57Z</time></trkpt><trkpt lat="32.6299041510" lon="35.1074158587"><ele>135.20</ele><time>2012-11-30T07:53:01Z</time></trkpt><trkpt lat="32.6295811962" lon="35.1076575927"><ele>131.84</ele><time>2012-11-30T07:53:05Z</time></trkpt><trkpt lat="32.6293809526" lon="35.1078216266"><ele>128.47</ele><time>2012-11-30T07:53:09Z</time></trkpt><trkpt lat="32.6292680483" lon="35.1079090498"><ele>127.03</ele><time>2012-11-30T07:53:13Z</time></trkpt><trkpt lat="32.6291367039" lon="35.1079196110"><ele>124.15</ele><time>2012-11-30T07:53:17Z</time></trkpt><trkpt lat="32.6290865801" lon="35.1078829821"><ele>123.19</ele><time>2012-11-30T07:53:18Z</time></trkpt><trkpt lat="32.6290284935" lon="35.1078365464"><ele>122.22</ele><time>2012-11-30T07:53:19Z</time></trkpt><trkpt lat="32.6289700717" lon="35.1077841595"><ele>121.26</ele><time>2012-11-30T07:53:20Z</time></trkpt><trkpt lat="32.6289174333" lon="35.1077302638"><ele>120.78</ele><time>2012-11-30T07:53:21Z</time></trkpt><trkpt lat="32.6288735960" lon="35.1076788828"><ele>120.30</ele><time>2012-11-30T07:53:22Z</time></trkpt><trkpt lat="32.6288377214" lon="35.1076358836"><ele>119.82</ele><time>2012-11-30T07:53:23Z</time></trkpt><trkpt lat="32.6287829038" lon="35.1075801440"><ele>118.86</ele><time>2012-11-30T07:53:25Z</time></trkpt><trkpt lat="32.6286356337" lon="35.1074420102"><ele>117.90</ele><time>2012-11-30T07:53:37Z</time></trkpt><trkpt lat="32.6285194606" lon="35.1072923094"><ele>118.38</ele><time>2012-11-30T07:53:51Z</time></trkpt><trkpt lat="32.6285206340" lon="35.1072512381"><ele>118.86</ele><time>2012-11-30T07:53:54Z</time></trkpt><trkpt lat="32.6285467856" lon="35.1072284393"><ele>118.86</ele><time>2012-11-30T07:53:57Z</time></trkpt><trkpt lat="32.6285610348" lon="35.1072239969"><ele>118.86</ele><time>2012-11-30T07:53:58Z</time></trkpt><trkpt lat="32.6285858452" lon="35.1072415989"><ele>118.86</ele><time>2012-11-30T07:54:13Z</time></trkpt><trkpt lat="32.6286243182" lon="35.1072652359"><ele>118.86</ele><time>2012-11-30T07:54:33Z</time></trkpt><trkpt lat="32.6285991725" lon="35.1072452869"><ele>118.86</ele><time>2012-11-30T07:55:04Z</time></trkpt><trkpt lat="32.6285711769" lon="35.1072297804"><ele>118.86</ele><time>2012-11-30T07:55:26Z</time></trkpt><trkpt lat="32.6285535749" lon="35.1072433591"><ele>118.86</ele><time>2012-11-30T07:55:55Z</time></trkpt><trkpt lat="32.6285441034" lon="35.1072570216"><ele>118.38</ele><time>2012-11-30T07:56:20Z</time></trkpt><trkpt lat="32.6285389904" lon="35.1072635595"><ele>118.38</ele><time>2012-11-30T07:56:51Z</time></trkpt><trkpt lat="32.6285423432" lon="35.1072025392"><ele>118.38</ele><time>2012-11-30T07:56:59Z</time></trkpt><trkpt lat="32.6285814028" lon="35.1070007030"><ele>119.34</ele><time>2012-11-30T07:57:09Z</time></trkpt><trkpt lat="32.6285934728" lon="35.1069801673"><ele>118.86</ele><time>2012-11-30T07:57:10Z</time></trkpt><trkpt lat="32.6286065485" lon="35.1069577038"><ele>119.34</ele><time>2012-11-30T07:57:11Z</time></trkpt><trkpt lat="32.6286202949" lon="35.1069317199"><ele>119.82</ele><time>2012-11-30T07:57:12Z</time></trkpt><trkpt lat="32.6286308561" lon="35.1069047302"><ele>119.34</ele><time>2012-11-30T07:57:13Z</time></trkpt><trkpt lat="32.6286404114" lon="35.1068776567"><ele>119.34</ele><time>2012-11-30T07:57:14Z</time></trkpt><trkpt lat="32.6286483742" lon="35.1068519242"><ele>119.82</ele><time>2012-11-30T07:57:15Z</time></trkpt><trkpt lat="32.6287090592" lon="35.1064748224"><ele>120.30</ele><time>2012-11-30T07:57:28Z</time></trkpt><trkpt lat="32.6287069637" lon="35.1061019115"><ele>121.26</ele><time>2012-11-30T07:57:41Z</time></trkpt><trkpt lat="32.6286419202" lon="35.1058342773"><ele>121.26</ele><time>2012-11-30T07:57:53Z</time></trkpt><trkpt lat="32.6286240667" lon="35.1057812199"><ele>121.74</ele><time>2012-11-30T07:58:03Z</time></trkpt><trkpt lat="32.6286152657" lon="35.1057560742"><ele>121.74</ele><time>2012-11-30T07:58:05Z</time></trkpt><trkpt lat="32.6285706740" lon="35.1054774597"><ele>121.26</ele><time>2012-11-30T07:58:16Z</time></trkpt><trkpt lat="32.6285523176" lon="35.1054544095"><ele>121.26</ele><time>2012-11-30T07:58:17Z</time></trkpt><trkpt lat="32.6285322011" lon="35.1054361369"><ele>121.74</ele><time>2012-11-30T07:58:18Z</time></trkpt><trkpt lat="32.6284072269" lon="35.1051498950"><ele>123.19</ele><time>2012-11-30T07:58:29Z</time></trkpt><trkpt lat="32.6281823404" lon="35.1047826838"><ele>123.67</ele><time>2012-11-30T07:58:44Z</time></trkpt><trkpt lat="32.6279712003" lon="35.1045499183"><ele>124.63</ele><time>2012-11-30T07:58:58Z</time></trkpt><trkpt lat="32.6277992036" lon="35.1043719705"><ele>127.51</ele><time>2012-11-30T07:59:12Z</time></trkpt><trkpt lat="32.6275951881" lon="35.1041744929"><ele>128.47</ele><time>2012-11-30T07:59:28Z</time></trkpt><trkpt lat="32.6273034140" lon="35.1039532945"><ele>127.51</ele><time>2012-11-30T07:59:43Z</time></trkpt><trkpt lat="32.6270293258" lon="35.1039124746"><ele>128.47</ele><time>2012-11-30T07:59:55Z</time></trkpt><trkpt lat="32.6266280003" lon="35.1038042642"><ele>128.95</ele><time>2012-11-30T08:00:13Z</time></trkpt><trkpt lat="32.6262493897" lon="35.1038057730"><ele>128.95</ele><time>2012-11-30T08:00:27Z</time></trkpt><trkpt lat="32.6258816756" lon="35.1038080361"><ele>130.40</ele><time>2012-11-30T08:00:42Z</time></trkpt><trkpt lat="32.6255287137" lon="35.1038247999"><ele>130.88</ele><time>2012-11-30T08:00:56Z</time></trkpt><trkpt lat="32.6251568925" lon="35.1038701460"><ele>132.80</ele><time>2012-11-30T08:01:11Z</time></trkpt><trkpt lat="32.6249054354" lon="35.1038221177"><ele>133.76</ele><time>2012-11-30T08:01:23Z</time></trkpt><trkpt lat="32.6246706583" lon="35.1037064474"><ele>133.28</ele><time>2012-11-30T08:01:32Z</time></trkpt><trkpt lat="32.6245087199" lon="35.1036100555"><ele>133.76</ele><time>2012-11-30T08:01:43Z</time></trkpt><trkpt lat="32.6244938839" lon="35.1036243048"><ele>133.76</ele><time>2012-11-30T08:02:14Z</time></trkpt><trkpt lat="32.6244649664" lon="35.1036332734"><ele>133.76</ele><time>2012-11-30T08:02:34Z</time></trkpt><trkpt lat="32.6244661398" lon="35.1036362071"><ele>134.24</ele><time>2012-11-30T08:02:57Z</time></trkpt><trkpt lat="32.6244568359" lon="35.1036519650"><ele>133.76</ele><time>2012-11-30T08:03:17Z</time></trkpt><trkpt lat="32.6243799739" lon="35.1036151685"><ele>134.72</ele><time>2012-11-30T08:03:42Z</time></trkpt><trkpt lat="32.6242319494" lon="35.1035484485"><ele>135.20</ele><time>2012-11-30T08:03:57Z</time></trkpt><trkpt lat="32.6241828315" lon="35.1035539806"><ele>136.16</ele><time>2012-11-30T08:04:08Z</time></trkpt><trkpt lat="32.6241390780" lon="35.1035072934"><ele>135.68</ele><time>2012-11-30T08:04:16Z</time></trkpt><trkpt lat="32.6241338812" lon="35.1034899428"><ele>135.68</ele><time>2012-11-30T08:04:17Z</time></trkpt><trkpt lat="32.6241283491" lon="35.1034762803"><ele>135.20</ele><time>2012-11-30T08:04:18Z</time></trkpt><trkpt lat="32.6240425184" lon="35.1034623664"><ele>135.68</ele><time>2012-11-30T08:04:31Z</time></trkpt><trkpt lat="32.6239201427" lon="35.1034156792"><ele>136.16</ele><time>2012-11-30T08:04:43Z</time></trkpt><trkpt lat="32.6237522531" lon="35.1033489592"><ele>137.61</ele><time>2012-11-30T08:04:56Z</time></trkpt><trkpt lat="32.6235292107" lon="35.1031994261"><ele>139.05</ele><time>2012-11-30T08:05:10Z</time></trkpt><trkpt lat="32.6233246922" lon="35.1029593684"><ele>138.09</ele><time>2012-11-30T08:05:22Z</time></trkpt><trkpt lat="32.6232918352" lon="35.1029374078"><ele>138.09</ele><time>2012-11-30T08:05:35Z</time></trkpt><trkpt lat="32.6232742332" lon="35.1029330492"><ele>138.09</ele><time>2012-11-30T08:05:40Z</time></trkpt><trkpt lat="32.6232675277" lon="35.1029271819"><ele>138.09</ele><time>2012-11-30T08:05:41Z</time></trkpt><trkpt lat="32.6232593134" lon="35.1029198058"><ele>138.57</ele><time>2012-11-30T08:05:42Z</time></trkpt><trkpt lat="32.6232466567" lon="35.1029100828"><ele>138.57</ele><time>2012-11-30T08:05:43Z</time></trkpt><trkpt lat="32.6232329942" lon="35.1028940734"><ele>138.09</ele><time>2012-11-30T08:05:44Z</time></trkpt><trkpt lat="32.6232205052" lon="35.1028778125"><ele>138.09</ele><time>2012-11-30T08:05:45Z</time></trkpt><trkpt lat="32.6232063398" lon="35.1028604619"><ele>138.57</ele><time>2012-11-30T08:05:46Z</time></trkpt><trkpt lat="32.6231912524" lon="35.1028452069"><ele>139.05</ele><time>2012-11-30T08:05:47Z</time></trkpt><trkpt lat="32.6231758296" lon="35.1028323825"><ele>139.05</ele><time>2012-11-30T08:05:48Z</time></trkpt><trkpt lat="32.6231605746" lon="35.1028170437"><ele>138.57</ele><time>2012-11-30T08:05:49Z</time></trkpt><trkpt lat="32.6230812818" lon="35.1027219929"><ele>139.05</ele><time>2012-11-30T08:05:55Z</time></trkpt><trkpt lat="32.6230630931" lon="35.1027172152"><ele>138.57</ele><time>2012-11-30T08:05:56Z</time></trkpt><trkpt lat="32.6230433118" lon="35.1027109288"><ele>139.05</ele><time>2012-11-30T08:05:57Z</time></trkpt><trkpt lat="32.6227792818" lon="35.1027377509"><ele>140.49</ele><time>2012-11-30T08:06:11Z</time></trkpt><trkpt lat="32.6227199379" lon="35.1027509943"><ele>141.93</ele><time>2012-11-30T08:06:15Z</time></trkpt><trkpt lat="32.6225030981" lon="35.1028383337"><ele>144.34</ele><time>2012-11-30T08:06:31Z</time></trkpt><trkpt lat="32.6223170199" lon="35.1029146090"><ele>146.26</ele><time>2012-11-30T08:06:45Z</time></trkpt><trkpt lat="32.6222513895" lon="35.1029536687"><ele>146.74</ele><time>2012-11-30T08:06:50Z</time></trkpt><trkpt lat="32.6221481245" lon="35.1030504797"><ele>148.18</ele><time>2012-11-30T08:07:00Z</time></trkpt><trkpt lat="32.6221406646" lon="35.1030608732"><ele>148.18</ele><time>2012-11-30T08:07:01Z</time></trkpt><trkpt lat="32.6221369766" lon="35.1030712668"><ele>148.18</ele><time>2012-11-30T08:07:02Z</time></trkpt><trkpt lat="32.6221875194" lon="35.1032359712"><ele>151.06</ele><time>2012-11-30T08:07:17Z</time></trkpt><trkpt lat="32.6222415827" lon="35.1033902820"><ele>152.99</ele><time>2012-11-30T08:07:30Z</time></trkpt><trkpt lat="32.6222824864" lon="35.1034849137"><ele>155.39</ele><time>2012-11-30T08:07:37Z</time></trkpt><trkpt lat="32.6222853363" lon="35.1035211235"><ele>155.87</ele><time>2012-11-30T08:07:40Z</time></trkpt><trkpt lat="32.6222787984" lon="35.1035720017"><ele>156.35</ele><time>2012-11-30T08:07:52Z</time></trkpt><trkpt lat="32.6222720090" lon="35.1035290025"><ele>155.87</ele><time>2012-11-30T08:08:12Z</time></trkpt><trkpt lat="32.6222641300" lon="35.1034906134"><ele>156.35</ele><time>2012-11-30T08:08:52Z</time></trkpt><trkpt lat="32.6222706679" lon="35.1035374682"><ele>156.35</ele><time>2012-11-30T08:09:07Z</time></trkpt><trkpt lat="32.6222851686" lon="35.1035846584"><ele>157.31</ele><time>2012-11-30T08:09:14Z</time></trkpt><trkpt lat="32.6222106535" lon="35.1037039328"><ele>160.20</ele><time>2012-11-30T08:09:29Z</time></trkpt><trkpt lat="32.6221337914" lon="35.1037708204"><ele>162.60</ele><time>2012-11-30T08:09:44Z</time></trkpt><trkpt lat="32.6219974179" lon="35.1038625184"><ele>164.04</ele><time>2012-11-30T08:10:02Z</time></trkpt><trkpt lat="32.6218899619" lon="35.1038828027"><ele>165.00</ele><time>2012-11-30T08:10:17Z</time></trkpt><trkpt lat="32.6218910515" lon="35.1038846467"><ele>165.00</ele><time>2012-11-30T08:10:18Z</time></trkpt><trkpt lat="32.6218441967" lon="35.1039065234"><ele>165.00</ele><time>2012-11-30T08:10:22Z</time></trkpt><trkpt lat="32.6216235012" lon="35.1040100399"><ele>166.45</ele><time>2012-11-30T08:10:37Z</time></trkpt><trkpt lat="32.6215452980" lon="35.1040568110"><ele>167.89</ele><time>2012-11-30T08:10:43Z</time></trkpt><trkpt lat="32.6213414501" lon="35.1041356008"><ele>167.89</ele><time>2012-11-30T08:10:58Z</time></trkpt><trkpt lat="32.6210927591" lon="35.1042529475"><ele>169.81</ele><time>2012-11-30T08:11:14Z</time></trkpt><trkpt lat="32.6210451499" lon="35.1042853855"><ele>169.33</ele><time>2012-11-30T08:11:17Z</time></trkpt><trkpt lat="32.6209414657" lon="35.1044360921"><ele>170.77</ele><time>2012-11-30T08:11:31Z</time></trkpt><trkpt lat="32.6207547169" lon="35.1044651773"><ele>170.29</ele><time>2012-11-30T08:11:42Z</time></trkpt><trkpt lat="32.6204361208" lon="35.1045531034"><ele>170.77</ele><time>2012-11-30T08:11:58Z</time></trkpt><trkpt lat="32.6200372260" lon="35.1046173088"><ele>171.73</ele><time>2012-11-30T08:12:14Z</time></trkpt><trkpt lat="32.6196300332" lon="35.1047121920"><ele>172.21</ele><time>2012-11-30T08:12:29Z</time></trkpt><trkpt lat="32.6190512627" lon="35.1048213243"><ele>174.14</ele><time>2012-11-30T08:12:50Z</time></trkpt><trkpt lat="32.6187671162" lon="35.1050154492"><ele>176.06</ele><time>2012-11-30T08:13:04Z</time></trkpt><trkpt lat="32.6187159866" lon="35.1052954886"><ele>178.46</ele><time>2012-11-30T08:13:19Z</time></trkpt><trkpt lat="32.6187283918" lon="35.1053702552"><ele>179.42</ele><time>2012-11-30T08:13:23Z</time></trkpt><trkpt lat="32.6187309902" lon="35.1053862646"><ele>179.42</ele><time>2012-11-30T08:13:24Z</time></trkpt><trkpt lat="32.6187323313" lon="35.1053995918"><ele>179.42</ele><time>2012-11-30T08:13:25Z</time></trkpt><trkpt lat="32.6187360194" lon="35.1054131705"><ele>179.42</ele><time>2012-11-30T08:13:26Z</time></trkpt><trkpt lat="32.6187406294" lon="35.1054285932"><ele>179.90</ele><time>2012-11-30T08:13:27Z</time></trkpt><trkpt lat="32.6187441498" lon="35.1054435130"><ele>179.42</ele><time>2012-11-30T08:13:28Z</time></trkpt><trkpt lat="32.6187479217" lon="35.1054596063"><ele>179.42</ele><time>2012-11-30T08:13:29Z</time></trkpt><trkpt lat="32.6187569741" lon="35.1056694053"><ele>181.83</ele><time>2012-11-30T08:13:42Z</time></trkpt><trkpt lat="32.6187646855" lon="35.1057578344"><ele>182.79</ele><time>2012-11-30T08:13:48Z</time></trkpt><trkpt lat="32.6187651046" lon="35.1057735924"><ele>182.79</ele><time>2012-11-30T08:13:49Z</time></trkpt><trkpt lat="32.6187854726" lon="35.1059464272"><ele>183.27</ele><time>2012-11-30T08:13:59Z</time></trkpt><trkpt lat="32.6187868137" lon="35.1059612632"><ele>183.27</ele><time>2012-11-30T08:14:00Z</time></trkpt><trkpt lat="32.6187887415" lon="35.1059765182"><ele>183.75</ele><time>2012-11-30T08:14:01Z</time></trkpt><trkpt lat="32.6187905855" lon="35.1059921924"><ele>183.75</ele><time>2012-11-30T08:14:02Z</time></trkpt><trkpt lat="32.6187945250" lon="35.1060070284"><ele>184.23</ele><time>2012-11-30T08:14:03Z</time></trkpt><trkpt lat="32.6188650168" lon="35.1062247902"><ele>185.19</ele><time>2012-11-30T08:14:17Z</time></trkpt><trkpt lat="32.6189309824" lon="35.1064849645"><ele>187.59</ele><time>2012-11-30T08:14:34Z</time></trkpt><trkpt lat="32.6189787593" lon="35.1067123655"><ele>188.08</ele><time>2012-11-30T08:14:47Z</time></trkpt><trkpt lat="32.6189936791" lon="35.1068816800"><ele>189.52</ele><time>2012-11-30T08:14:57Z</time></trkpt><trkpt lat="32.6189935952" lon="35.1068965159"><ele>190.00</ele><time>2012-11-30T08:14:58Z</time></trkpt><trkpt lat="32.6189940982" lon="35.1069118548"><ele>189.52</ele><time>2012-11-30T08:14:59Z</time></trkpt><trkpt lat="32.6189863868" lon="35.1069565304"><ele>190.00</ele><time>2012-11-30T08:15:02Z</time></trkpt><trkpt lat="32.6189846266" lon="35.1069743838"><ele>190.00</ele><time>2012-11-30T08:15:03Z</time></trkpt><trkpt lat="32.6189715508" lon="35.1072175428"><ele>191.92</ele><time>2012-11-30T08:15:17Z</time></trkpt><trkpt lat="32.6190042403" lon="35.1074639708"><ele>193.36</ele><time>2012-11-30T08:15:32Z</time></trkpt><trkpt lat="32.6189947687" lon="35.1076036971"><ele>194.32</ele><time>2012-11-30T08:15:40Z</time></trkpt><trkpt lat="32.6189889014" lon="35.1076184493"><ele>194.80</ele><time>2012-11-30T08:15:41Z</time></trkpt><trkpt lat="32.6189842913" lon="35.1076332852"><ele>194.80</ele><time>2012-11-30T08:15:42Z</time></trkpt><trkpt lat="32.6189822797" lon="35.1076460257"><ele>195.28</ele><time>2012-11-30T08:15:43Z</time></trkpt><trkpt lat="32.6189845428" lon="35.1076625381"><ele>195.28</ele><time>2012-11-30T08:15:44Z</time></trkpt><trkpt lat="32.6189855486" lon="35.1076775417"><ele>195.28</ele><time>2012-11-30T08:15:45Z</time></trkpt><trkpt lat="32.6189859677" lon="35.1076899469"><ele>195.28</ele><time>2012-11-30T08:15:46Z</time></trkpt><trkpt lat="32.6189868897" lon="35.1077032741"><ele>195.28</ele><time>2012-11-30T08:15:47Z</time></trkpt><trkpt lat="32.6189876441" lon="35.1077175234"><ele>195.28</ele><time>2012-11-30T08:15:48Z</time></trkpt><trkpt lat="32.6189697068" lon="35.1079793740"><ele>196.73</ele><time>2012-11-30T08:16:06Z</time></trkpt><trkpt lat="32.6189694554" lon="35.1079948805"><ele>196.73</ele><time>2012-11-30T08:16:07Z</time></trkpt><trkpt lat="32.6189685334" lon="35.1080082916"><ele>197.21</ele><time>2012-11-30T08:16:08Z</time></trkpt><trkpt lat="32.6189671084" lon="35.1080225408"><ele>196.73</ele><time>2012-11-30T08:16:09Z</time></trkpt><trkpt lat="32.6189676113" lon="35.1080389693"><ele>197.21</ele><time>2012-11-30T08:16:10Z</time></trkpt><trkpt lat="32.6189649291" lon="35.1080522127"><ele>197.21</ele><time>2012-11-30T08:16:11Z</time></trkpt><trkpt lat="32.6189604029" lon="35.1080642827"><ele>197.69</ele><time>2012-11-30T08:16:12Z</time></trkpt><trkpt lat="32.6189585589" lon="35.1080783643"><ele>197.21</ele><time>2012-11-30T08:16:13Z</time></trkpt><trkpt lat="32.6189583912" lon="35.1080979779"><ele>197.69</ele><time>2012-11-30T08:16:14Z</time></trkpt><trkpt lat="32.6189588942" lon="35.1081128139"><ele>197.69</ele><time>2012-11-30T08:16:15Z</time></trkpt><trkpt lat="32.6189578045" lon="35.1081293263"><ele>198.17</ele><time>2012-11-30T08:16:16Z</time></trkpt><trkpt lat="32.6189531945" lon="35.1081465092"><ele>197.69</ele><time>2012-11-30T08:16:17Z</time></trkpt><trkpt lat="32.6188881509" lon="35.1083940268"><ele>200.09</ele><time>2012-11-30T08:16:33Z</time></trkpt><trkpt lat="32.6187514421" lon="35.1086086873"><ele>201.05</ele><time>2012-11-30T08:16:49Z</time></trkpt><trkpt lat="32.6186964568" lon="35.1088437159"><ele>202.49</ele><time>2012-11-30T08:17:04Z</time></trkpt><trkpt lat="32.6186846383" lon="35.1088901516"><ele>202.01</ele><time>2012-11-30T08:17:07Z</time></trkpt><trkpt lat="32.6186859794" lon="35.1089085080"><ele>202.01</ele><time>2012-11-30T08:17:08Z</time></trkpt><trkpt lat="32.6186190080" lon="35.1091834344"><ele>202.01</ele><time>2012-11-30T08:17:23Z</time></trkpt><trkpt lat="32.6186154038" lon="35.1092001144"><ele>202.01</ele><time>2012-11-30T08:17:24Z</time></trkpt><trkpt lat="32.6186094526" lon="35.1092220750"><ele>201.53</ele><time>2012-11-30T08:17:25Z</time></trkpt><trkpt lat="32.6186057646" lon="35.1092451252"><ele>201.53</ele><time>2012-11-30T08:17:26Z</time></trkpt><trkpt lat="32.6186048426" lon="35.1092613023"><ele>201.05</ele><time>2012-11-30T08:17:27Z</time></trkpt><trkpt lat="32.6186060999" lon="35.1092839334"><ele>200.57</ele><time>2012-11-30T08:17:28Z</time></trkpt><trkpt lat="32.6186101232" lon="35.1093053911"><ele>200.57</ele><time>2012-11-30T08:17:29Z</time></trkpt><trkpt lat="32.6186130568" lon="35.1093228254"><ele>200.57</ele><time>2012-11-30T08:17:30Z</time></trkpt><trkpt lat="32.6186505239" lon="35.1093287766"><ele>200.57</ele><time>2012-11-30T08:17:44Z</time></trkpt><trkpt lat="32.6186559722" lon="35.1093403436"><ele>201.05</ele><time>2012-11-30T08:18:25Z</time></trkpt><trkpt lat="32.6186371967" lon="35.1093511563"><ele>200.57</ele><time>2012-11-30T08:19:01Z</time></trkpt><trkpt lat="32.6186412200" lon="35.1093424391"><ele>201.05</ele><time>2012-11-30T08:19:22Z</time></trkpt><trkpt lat="32.6186866499" lon="35.1092921477"><ele>200.57</ele><time>2012-11-30T08:19:40Z</time></trkpt><trkpt lat="32.6187303197" lon="35.1092897169"><ele>200.57</ele><time>2012-11-30T08:20:01Z</time></trkpt><trkpt lat="32.6187386177" lon="35.1092920639"><ele>200.09</ele><time>2012-11-30T08:20:02Z</time></trkpt><trkpt lat="32.6187462453" lon="35.1092994399"><ele>200.57</ele><time>2012-11-30T08:20:03Z</time></trkpt><trkpt lat="32.6187547110" lon="35.1093098335"><ele>200.57</ele><time>2012-11-30T08:20:04Z</time></trkpt><trkpt lat="32.6187633444" lon="35.1093212329"><ele>200.57</ele><time>2012-11-30T08:20:05Z</time></trkpt><trkpt lat="32.6187706366" lon="35.1093332190"><ele>200.57</ele><time>2012-11-30T08:20:06Z</time></trkpt><trkpt lat="32.6188376918" lon="35.1094001904"><ele>202.01</ele><time>2012-11-30T08:20:14Z</time></trkpt><trkpt lat="32.6189759932" lon="35.1095925551"><ele>203.46</ele><time>2012-11-30T08:20:30Z</time></trkpt><trkpt lat="32.6191245206" lon="35.1097793039"><ele>205.38</ele><time>2012-11-30T08:20:45Z</time></trkpt><trkpt lat="32.6192362513" lon="35.1099756919"><ele>207.30</ele><time>2012-11-30T08:20:58Z</time></trkpt><trkpt lat="32.6193256024" lon="35.1101828925"><ele>208.74</ele><time>2012-11-30T08:21:11Z</time></trkpt><trkpt lat="32.6194069907" lon="35.1103678811"><ele>210.67</ele><time>2012-11-30T08:21:24Z</time></trkpt><trkpt lat="32.6194406021" lon="35.1104188431"><ele>211.63</ele><time>2012-11-30T08:21:29Z</time></trkpt><trkpt lat="32.6195713598" lon="35.1105026621"><ele>213.55</ele><time>2012-11-30T08:21:43Z</time></trkpt><trkpt lat="32.6195856091" lon="35.1105010696"><ele>214.03</ele><time>2012-11-30T08:21:44Z</time></trkpt><trkpt lat="32.6197366510" lon="35.1105683763"><ele>216.43</ele><time>2012-11-30T08:21:57Z</time></trkpt><trkpt lat="32.6197801530" lon="35.1106089447"><ele>217.40</ele><time>2012-11-30T08:22:02Z</time></trkpt><trkpt lat="32.6199003495" lon="35.1107106172"><ele>220.76</ele><time>2012-11-30T08:22:16Z</time></trkpt><trkpt lat="32.6200361364" lon="35.1107868925"><ele>223.64</ele><time>2012-11-30T08:22:29Z</time></trkpt><trkpt lat="32.6201678999" lon="35.1108321548"><ele>226.53</ele><time>2012-11-30T08:22:41Z</time></trkpt><trkpt lat="32.6203036867" lon="35.1108985394"><ele>228.45</ele><time>2012-11-30T08:22:56Z</time></trkpt><trkpt lat="32.6204181835" lon="35.1109231822"><ele>229.41</ele><time>2012-11-30T08:23:09Z</time></trkpt><trkpt lat="32.6204319298" lon="35.1109234337"><ele>228.93</ele><time>2012-11-30T08:23:10Z</time></trkpt><trkpt lat="32.6205750089" lon="35.1108878944"><ele>229.89</ele><time>2012-11-30T08:23:22Z</time></trkpt><trkpt lat="32.6207458321" lon="35.1108117029"><ele>230.85</ele><time>2012-11-30T08:23:38Z</time></trkpt><trkpt lat="32.6209438127" lon="35.1107169874"><ele>230.85</ele><time>2012-11-30T08:23:56Z</time></trkpt><trkpt lat="32.6210004743" lon="35.1107048336"><ele>230.85</ele><time>2012-11-30T08:24:11Z</time></trkpt><trkpt lat="32.6210085209" lon="35.1106879860"><ele>230.85</ele><time>2012-11-30T08:24:36Z</time></trkpt><trkpt lat="32.6210220158" lon="35.1106942724"><ele>231.81</ele><time>2012-11-30T08:25:00Z</time></trkpt><trkpt lat="32.6210186630" lon="35.1107720565"><ele>230.85</ele><time>2012-11-30T08:25:24Z</time></trkpt><trkpt lat="32.6210127119" lon="35.1107873116"><ele>231.81</ele><time>2012-11-30T08:25:50Z</time></trkpt><trkpt lat="32.6209557988" lon="35.1107516885"><ele>231.33</ele><time>2012-11-30T08:26:10Z</time></trkpt><trkpt lat="32.6209036633" lon="35.1107287221"><ele>231.81</ele><time>2012-11-30T08:26:43Z</time></trkpt><trkpt lat="32.6208979636" lon="35.1106656063"><ele>231.81</ele><time>2012-11-30T08:27:09Z</time></trkpt><trkpt lat="32.6209156495" lon="35.1106705517"><ele>232.30</ele><time>2012-11-30T08:27:39Z</time></trkpt><trkpt lat="32.6209655218" lon="35.1106117945"><ele>232.30</ele><time>2012-11-30T08:27:56Z</time></trkpt><trkpt lat="32.6209868118" lon="35.1105983835"><ele>232.30</ele><time>2012-11-30T08:27:58Z</time></trkpt><trkpt lat="32.6209993009" lon="35.1105970424"><ele>232.30</ele><time>2012-11-30T08:27:59Z</time></trkpt><trkpt lat="32.6210140530" lon="35.1105981320"><ele>232.30</ele><time>2012-11-30T08:28:00Z</time></trkpt><trkpt lat="32.6210314035" lon="35.1105972100"><ele>232.30</ele><time>2012-11-30T08:28:01Z</time></trkpt><trkpt lat="32.6210503466" lon="35.1105946954"><ele>231.81</ele><time>2012-11-30T08:28:02Z</time></trkpt><trkpt lat="32.6213432942" lon="35.1104893349"><ele>228.93</ele><time>2012-11-30T08:28:17Z</time></trkpt><trkpt lat="32.6215070765" lon="35.1103758439"><ele>226.05</ele><time>2012-11-30T08:28:26Z</time></trkpt><trkpt lat="32.6216551848" lon="35.1102933660"><ele>222.68</ele><time>2012-11-30T08:28:33Z</time></trkpt><trkpt lat="32.6216782350" lon="35.1102922764"><ele>221.72</ele><time>2012-11-30T08:28:34Z</time></trkpt><trkpt lat="32.6217026263" lon="35.1103046816"><ele>221.72</ele><time>2012-11-30T08:28:35Z</time></trkpt><trkpt lat="32.6217270177" lon="35.1103284024"><ele>221.72</ele><time>2012-11-30T08:28:36Z</time></trkpt><trkpt lat="32.6217762195" lon="35.1104002353"><ele>221.24</ele><time>2012-11-30T08:28:38Z</time></trkpt><trkpt lat="32.6217896305" lon="35.1104356907"><ele>220.76</ele><time>2012-11-30T08:28:39Z</time></trkpt><trkpt lat="32.6218046341" lon="35.1104728226"><ele>220.28</ele><time>2012-11-30T08:28:40Z</time></trkpt><trkpt lat="32.6218779758" lon="35.1108453982"><ele>220.76</ele><time>2012-11-30T08:28:51Z</time></trkpt><trkpt lat="32.6218766347" lon="35.1108651794"><ele>221.24</ele><time>2012-11-30T08:28:52Z</time></trkpt><trkpt lat="32.6218720246" lon="35.1108843740"><ele>221.24</ele><time>2012-11-30T08:28:53Z</time></trkpt><trkpt lat="32.6217992697" lon="35.1112393476"><ele>221.72</ele><time>2012-11-30T08:29:09Z</time></trkpt><trkpt lat="32.6216063183" lon="35.1115493104"><ele>220.28</ele><time>2012-11-30T08:29:21Z</time></trkpt><trkpt lat="32.6212923322" lon="35.1116180420"><ele>217.88</ele><time>2012-11-30T08:29:31Z</time></trkpt><trkpt lat="32.6210037433" lon="35.1114514098"><ele>218.36</ele><time>2012-11-30T08:29:42Z</time></trkpt><trkpt lat="32.6208780985" lon="35.1114631444"><ele>219.32</ele><time>2012-11-30T08:29:48Z</time></trkpt><trkpt lat="32.6208306570" lon="35.1114741247"><ele>218.84</ele><time>2012-11-30T08:29:51Z</time></trkpt><trkpt lat="32.6208205987" lon="35.1114872843"><ele>219.32</ele><time>2012-11-30T08:29:52Z</time></trkpt><trkpt lat="32.6208180003" lon="35.1115048025"><ele>219.32</ele><time>2012-11-30T08:29:53Z</time></trkpt><trkpt lat="32.6208163239" lon="35.1115249190"><ele>218.84</ele><time>2012-11-30T08:29:54Z</time></trkpt><trkpt lat="32.6208142284" lon="35.1115433592"><ele>218.84</ele><time>2012-11-30T08:29:55Z</time></trkpt><trkpt lat="32.6208157372" lon="35.1115583628"><ele>218.36</ele><time>2012-11-30T08:29:56Z</time></trkpt><trkpt lat="32.6208191738" lon="35.1115726959"><ele>218.84</ele><time>2012-11-30T08:29:57Z</time></trkpt><trkpt lat="32.6208273042" lon="35.1115851011"><ele>218.36</ele><time>2012-11-30T08:29:58Z</time></trkpt><trkpt lat="32.6208402123" lon="35.1115945727"><ele>218.36</ele><time>2012-11-30T08:29:59Z</time></trkpt><trkpt lat="32.6208506059" lon="35.1116082352"><ele>218.36</ele><time>2012-11-30T08:30:00Z</time></trkpt><trkpt lat="32.6208604127" lon="35.1116255857"><ele>217.88</ele><time>2012-11-30T08:30:01Z</time></trkpt><trkpt lat="32.6208713930" lon="35.1116477977"><ele>217.88</ele><time>2012-11-30T08:30:02Z</time></trkpt><trkpt lat="32.6208817028" lon="35.1116724405"><ele>217.88</ele><time>2012-11-30T08:30:03Z</time></trkpt><trkpt lat="32.6208968740" lon="35.1117211394"><ele>217.40</ele><time>2012-11-30T08:30:05Z</time></trkpt><trkpt lat="32.6209583133" lon="35.1119446009"><ele>215.47</ele><time>2012-11-30T08:30:14Z</time></trkpt><trkpt lat="32.6210906636" lon="35.1123925298"><ele>212.59</ele><time>2012-11-30T08:30:26Z</time></trkpt><trkpt lat="32.6211795956" lon="35.1127833780"><ele>210.19</ele><time>2012-11-30T08:30:38Z</time></trkpt><trkpt lat="32.6212907396" lon="35.1130488329"><ele>207.78</ele><time>2012-11-30T08:30:52Z</time></trkpt><trkpt lat="32.6213339902" lon="35.1132843643"><ele>204.42</ele><time>2012-11-30T08:31:03Z</time></trkpt><trkpt lat="32.6213400252" lon="35.1132996194"><ele>203.94</ele><time>2012-11-30T08:31:04Z</time></trkpt><trkpt lat="32.6213721279" lon="35.1134190615"><ele>201.53</ele><time>2012-11-30T08:31:10Z</time></trkpt><trkpt lat="32.6213671826" lon="35.1136026252"><ele>198.65</ele><time>2012-11-30T08:31:19Z</time></trkpt><trkpt lat="32.6212981157" lon="35.1138342172"><ele>194.80</ele><time>2012-11-30T08:31:28Z</time></trkpt><trkpt lat="32.6211985387" lon="35.1142071281"><ele>194.32</ele><time>2012-11-30T08:31:38Z</time></trkpt><trkpt lat="32.6211878937" lon="35.1142180245"><ele>194.80</ele><time>2012-11-30T08:31:39Z</time></trkpt><trkpt lat="32.6211807691" lon="35.1142336987"><ele>194.80</ele><time>2012-11-30T08:31:40Z</time></trkpt><trkpt lat="32.6211774163" lon="35.1142501272"><ele>194.80</ele><time>2012-11-30T08:31:41Z</time></trkpt><trkpt lat="32.6211755723" lon="35.1142642088"><ele>194.80</ele><time>2012-11-30T08:31:42Z</time></trkpt><trkpt lat="32.6211706270" lon="35.1142777037"><ele>194.80</ele><time>2012-11-30T08:31:43Z</time></trkpt><trkpt lat="32.6211608201" lon="35.1142895222"><ele>194.80</ele><time>2012-11-30T08:31:44Z</time></trkpt><trkpt lat="32.6211485825" lon="35.1142979041"><ele>194.32</ele><time>2012-11-30T08:31:45Z</time></trkpt><trkpt lat="32.6211316511" lon="35.1142886002"><ele>194.32</ele><time>2012-11-30T08:31:57Z</time></trkpt><trkpt lat="32.6211599819" lon="35.1142618619"><ele>194.80</ele><time>2012-11-30T08:32:15Z</time></trkpt><trkpt lat="32.6211709622" lon="35.1142504625"><ele>194.32</ele><time>2012-11-30T08:32:42Z</time></trkpt><trkpt lat="32.6211820263" lon="35.1142359618"><ele>194.32</ele><time>2012-11-30T08:33:11Z</time></trkpt><trkpt lat="32.6211794280" lon="35.1142111514"><ele>194.80</ele><time>2012-11-30T08:33:33Z</time></trkpt><trkpt lat="32.6211889833" lon="35.1142155938"><ele>194.32</ele><time>2012-11-30T08:33:57Z</time></trkpt><trkpt lat="32.6211903244" lon="35.1142203715"><ele>194.32</ele><time>2012-11-30T08:34:19Z</time></trkpt><trkpt lat="32.6211955212" lon="35.1142367162"><ele>194.32</ele><time>2012-11-30T08:34:42Z</time></trkpt><trkpt lat="32.6211788412" lon="35.1142612752"><ele>194.32</ele><time>2012-11-30T08:35:04Z</time></trkpt><trkpt lat="32.6211370155" lon="35.1143119857"><ele>194.80</ele><time>2012-11-30T08:35:35Z</time></trkpt><trkpt lat="32.6211074274" lon="35.1143020950"><ele>194.32</ele><time>2012-11-30T08:36:00Z</time></trkpt><trkpt lat="32.6211068407" lon="35.1143134106"><ele>194.32</ele><time>2012-11-30T08:36:27Z</time></trkpt><trkpt lat="32.6210940164" lon="35.1143169310"><ele>194.32</ele><time>2012-11-30T08:36:37Z</time></trkpt><trkpt lat="32.6210806891" lon="35.1143159252"><ele>194.80</ele><time>2012-11-30T08:36:38Z</time></trkpt><trkpt lat="32.6210386958" lon="35.1143487822"><ele>194.32</ele><time>2012-11-30T08:36:43Z</time></trkpt><trkpt lat="32.6207701396" lon="35.1144030970"><ele>192.40</ele><time>2012-11-30T08:36:55Z</time></trkpt><trkpt lat="32.6206839737" lon="35.1143731736"><ele>191.92</ele><time>2012-11-30T08:36:57Z</time></trkpt><trkpt lat="32.6201606076" lon="35.1143222116"><ele>188.56</ele><time>2012-11-30T08:37:08Z</time></trkpt><trkpt lat="32.6199471205" lon="35.1143234689"><ele>188.08</ele><time>2012-11-30T08:37:12Z</time></trkpt><trkpt lat="32.6198840886" lon="35.1143062022"><ele>186.63</ele><time>2012-11-30T08:37:13Z</time></trkpt><trkpt lat="32.6198261697" lon="35.1142777037"><ele>186.63</ele><time>2012-11-30T08:37:14Z</time></trkpt><trkpt lat="32.6197770517" lon="35.1142373867"><ele>186.15</ele><time>2012-11-30T08:37:15Z</time></trkpt><trkpt lat="32.6197417639" lon="35.1141865924"><ele>186.15</ele><time>2012-11-30T08:37:16Z</time></trkpt><trkpt lat="32.6197143551" lon="35.1141418330"><ele>186.15</ele><time>2012-11-30T08:37:17Z</time></trkpt><trkpt lat="32.6195867825" lon="35.1139850914"><ele>188.56</ele><time>2012-11-30T08:37:26Z</time></trkpt><trkpt lat="32.6195583679" lon="35.1139593590"><ele>189.52</ele><time>2012-11-30T08:37:29Z</time></trkpt><trkpt lat="32.6195447892" lon="35.1139542460"><ele>189.04</ele><time>2012-11-30T08:37:30Z</time></trkpt><trkpt lat="32.6195330545" lon="35.1139431819"><ele>189.04</ele><time>2012-11-30T08:37:31Z</time></trkpt><trkpt lat="32.6195205655" lon="35.1139322855"><ele>189.52</ele><time>2012-11-30T08:37:32Z</time></trkpt><trkpt lat="32.6195111778" lon="35.1139211375"><ele>189.04</ele><time>2012-11-30T08:37:33Z</time></trkpt><trkpt lat="32.6194936596" lon="35.1138866041"><ele>189.04</ele><time>2012-11-30T08:37:42Z</time></trkpt><trkpt lat="32.6194664184" lon="35.1138771325"><ele>189.04</ele><time>2012-11-30T08:37:44Z</time></trkpt><trkpt lat="32.6194518339" lon="35.1138688345"><ele>189.52</ele><time>2012-11-30T08:37:45Z</time></trkpt><trkpt lat="32.6194385905" lon="35.1138557587"><ele>189.04</ele><time>2012-11-30T08:37:46Z</time></trkpt><trkpt lat="32.6191599760" lon="35.1135343127"><ele>189.04</ele><time>2012-11-30T08:38:02Z</time></trkpt><trkpt lat="32.6189842075" lon="35.1133025531"><ele>190.48</ele><time>2012-11-30T08:38:16Z</time></trkpt><trkpt lat="32.6189692039" lon="35.1130536105"><ele>192.40</ele><time>2012-11-30T08:38:30Z</time></trkpt><trkpt lat="32.6190678589" lon="35.1128342561"><ele>193.84</ele><time>2012-11-30T08:38:43Z</time></trkpt><trkpt lat="32.6190774143" lon="35.1128214318"><ele>193.84</ele><time>2012-11-30T08:38:44Z</time></trkpt><trkpt lat="32.6190841198" lon="35.1128061768"><ele>194.32</ele><time>2012-11-30T08:38:45Z</time></trkpt><trkpt lat="32.6191056613" lon="35.1126471721"><ele>195.28</ele><time>2012-11-30T08:38:55Z</time></trkpt><trkpt lat="32.6190966088" lon="35.1126287319"><ele>195.77</ele><time>2012-11-30T08:38:56Z</time></trkpt><trkpt lat="32.6190857962" lon="35.1126154047"><ele>195.77</ele><time>2012-11-30T08:38:57Z</time></trkpt><trkpt lat="32.6190753188" lon="35.1126053464"><ele>196.73</ele><time>2012-11-30T08:38:58Z</time></trkpt><trkpt lat="32.6190640032" lon="35.1125966292"><ele>196.73</ele><time>2012-11-30T08:38:59Z</time></trkpt><trkpt lat="32.6190336607" lon="35.1125895046"><ele>196.73</ele><time>2012-11-30T08:39:02Z</time></trkpt><trkpt lat="32.6190194953" lon="35.1125848107"><ele>196.73</ele><time>2012-11-30T08:39:03Z</time></trkpt><trkpt lat="32.6190062519" lon="35.1125813741"><ele>196.73</ele><time>2012-11-30T08:39:04Z</time></trkpt><trkpt lat="32.6189490873" lon="35.1125657838"><ele>196.73</ele><time>2012-11-30T08:39:08Z</time></trkpt><trkpt lat="32.6188879833" lon="35.1125543006"><ele>196.73</ele><time>2012-11-30T08:39:12Z</time></trkpt><trkpt lat="32.6188731473" lon="35.1125415601"><ele>196.73</ele><time>2012-11-30T08:39:13Z</time></trkpt><trkpt lat="32.6188604068" lon="35.1125246286"><ele>196.73</ele><time>2012-11-30T08:39:14Z</time></trkpt><trkpt lat="32.6188485045" lon="35.1125061885"><ele>196.73</ele><time>2012-11-30T08:39:15Z</time></trkpt><trkpt lat="32.6188365184" lon="35.1124877483"><ele>196.25</ele><time>2012-11-30T08:39:16Z</time></trkpt><trkpt lat="32.6188223530" lon="35.1124704815"><ele>196.25</ele><time>2012-11-30T08:39:17Z</time></trkpt><trkpt lat="32.6188068464" lon="35.1124554779"><ele>196.73</ele><time>2012-11-30T08:39:18Z</time></trkpt><trkpt lat="32.6187907532" lon="35.1124385465"><ele>196.73</ele><time>2012-11-30T08:39:19Z</time></trkpt><trkpt lat="32.6187757496" lon="35.1124166697"><ele>197.21</ele><time>2012-11-30T08:39:20Z</time></trkpt><trkpt lat="32.6187605783" lon="35.1123941224"><ele>196.73</ele><time>2012-11-30T08:39:21Z</time></trkpt><trkpt lat="32.6187473349" lon="35.1123713236"><ele>196.73</ele><time>2012-11-30T08:39:22Z</time></trkpt><trkpt lat="32.6185324229" lon="35.1118926331"><ele>195.28</ele><time>2012-11-30T08:39:37Z</time></trkpt><trkpt lat="32.6184838917" lon="35.1115113404"><ele>195.28</ele><time>2012-11-30T08:39:45Z</time></trkpt><trkpt lat="32.6184820477" lon="35.1114604622"><ele>194.80</ele><time>2012-11-30T08:39:46Z</time></trkpt><trkpt lat="32.6184766833" lon="35.1114079077"><ele>194.32</ele><time>2012-11-30T08:39:47Z</time></trkpt><trkpt lat="32.6184655353" lon="35.1113532577"><ele>194.80</ele><time>2012-11-30T08:39:48Z</time></trkpt><trkpt lat="32.6184545550" lon="35.1112995297"><ele>194.32</ele><time>2012-11-30T08:39:49Z</time></trkpt><trkpt lat="32.6184475143" lon="35.1112463884"><ele>194.32</ele><time>2012-11-30T08:39:50Z</time></trkpt><trkpt lat="32.6184097957" lon="35.1109243557"><ele>193.36</ele><time>2012-11-30T08:39:56Z</time></trkpt><trkpt lat="32.6184061915" lon="35.1108750701"><ele>192.88</ele><time>2012-11-30T08:39:57Z</time></trkpt><trkpt lat="32.6183974743" lon="35.1108327415"><ele>193.36</ele><time>2012-11-30T08:39:58Z</time></trkpt><trkpt lat="32.6183828898" lon="35.1107979566"><ele>192.88</ele><time>2012-11-30T08:39:59Z</time></trkpt><trkpt lat="32.6183622703" lon="35.1107656024"><ele>192.88</ele><time>2012-11-30T08:40:00Z</time></trkpt><trkpt lat="32.6183382142" lon="35.1107440609"><ele>192.40</ele><time>2012-11-30T08:40:01Z</time></trkpt><trkpt lat="32.6183115598" lon="35.1107365172"><ele>192.40</ele><time>2012-11-30T08:40:02Z</time></trkpt><trkpt lat="32.6182890125" lon="35.1107403729"><ele>191.92</ele><time>2012-11-30T08:40:03Z</time></trkpt><trkpt lat="32.6182721648" lon="35.1107496768"><ele>191.92</ele><time>2012-11-30T08:40:04Z</time></trkpt><trkpt lat="32.6182587538" lon="35.1107626688"><ele>191.44</ele><time>2012-11-30T08:40:05Z</time></trkpt><trkpt lat="32.6182478573" lon="35.1107766666"><ele>191.92</ele><time>2012-11-30T08:40:06Z</time></trkpt><trkpt lat="32.6182379667" lon="35.1107959449"><ele>191.44</ele><time>2012-11-30T08:40:07Z</time></trkpt><trkpt lat="32.6182258967" lon="35.1108183246"><ele>190.96</ele><time>2012-11-30T08:40:08Z</time></trkpt><trkpt lat="32.6181942970" lon="35.1108710468"><ele>190.96</ele><time>2012-11-30T08:40:10Z</time></trkpt><trkpt lat="32.6181827299" lon="35.1109141298"><ele>190.48</ele><time>2012-11-30T08:40:11Z</time></trkpt><trkpt lat="32.6180996653" lon="35.1112882979"><ele>186.63</ele><time>2012-11-30T08:40:18Z</time></trkpt><trkpt lat="32.6180562470" lon="35.1113625616"><ele>184.71</ele><time>2012-11-30T08:40:21Z</time></trkpt><trkpt lat="32.6180285029" lon="35.1113744639"><ele>184.23</ele><time>2012-11-30T08:40:22Z</time></trkpt><trkpt lat="32.6179927960" lon="35.1113809180"><ele>183.75</ele><time>2012-11-30T08:40:23Z</time></trkpt><trkpt lat="32.6179558318" lon="35.1113809180"><ele>183.75</ele><time>2012-11-30T08:40:24Z</time></trkpt><trkpt lat="32.6179261599" lon="35.1113836840"><ele>183.75</ele><time>2012-11-30T08:40:25Z</time></trkpt><trkpt lat="32.6178621221" lon="35.1113787387"><ele>184.23</ele><time>2012-11-30T08:40:28Z</time></trkpt><trkpt lat="32.6178453583" lon="35.1113863662"><ele>184.23</ele><time>2012-11-30T08:40:29Z</time></trkpt><trkpt lat="32.6178325340" lon="35.1114006992"><ele>184.23</ele><time>2012-11-30T08:40:30Z</time></trkpt><trkpt lat="32.6178223919" lon="35.1114222407"><ele>184.23</ele><time>2012-11-30T08:40:31Z</time></trkpt><trkpt lat="32.6178164408" lon="35.1114402618"><ele>183.75</ele><time>2012-11-30T08:40:32Z</time></trkpt><trkpt lat="32.6178078074" lon="35.1114618033"><ele>183.75</ele><time>2012-11-30T08:40:33Z</time></trkpt><trkpt lat="32.6177970786" lon="35.1114840992"><ele>183.75</ele><time>2012-11-30T08:40:34Z</time></trkpt><trkpt lat="32.6176938135" lon="35.1117966603"><ele>185.67</ele><time>2012-11-30T08:40:47Z</time></trkpt><trkpt lat="32.6176804863" lon="35.1120403223"><ele>187.11</ele><time>2012-11-30T08:41:00Z</time></trkpt><trkpt lat="32.6176906284" lon="35.1123134885"><ele>189.52</ele><time>2012-11-30T08:41:16Z</time></trkpt><trkpt lat="32.6176573522" lon="35.1126232836"><ele>189.04</ele><time>2012-11-30T08:41:31Z</time></trkpt><trkpt lat="32.6175746229" lon="35.1129409578"><ele>188.08</ele><time>2012-11-30T08:41:45Z</time></trkpt><trkpt lat="32.6174186356" lon="35.1132960990"><ele>185.19</ele><time>2012-11-30T08:41:58Z</time></trkpt><trkpt lat="32.6173984352" lon="35.1133248489"><ele>184.71</ele><time>2012-11-30T08:41:59Z</time></trkpt><trkpt lat="32.6172522549" lon="35.1136282738"><ele>183.75</ele><time>2012-11-30T08:42:08Z</time></trkpt><trkpt lat="32.6172602177" lon="35.1136580296"><ele>184.23</ele><time>2012-11-30T08:42:09Z</time></trkpt><trkpt lat="32.6172677614" lon="35.1136841811"><ele>184.23</ele><time>2012-11-30T08:42:10Z</time></trkpt><trkpt lat="32.6172785740" lon="35.1137136016"><ele>184.23</ele><time>2012-11-30T08:42:11Z</time></trkpt><trkpt lat="32.6172903925" lon="35.1137417648"><ele>184.71</ele><time>2012-11-30T08:42:12Z</time></trkpt><trkpt lat="32.6174603775" lon="35.1141437609"><ele>186.63</ele><time>2012-11-30T08:42:27Z</time></trkpt><trkpt lat="32.6174765546" lon="35.1144823898"><ele>187.11</ele><time>2012-11-30T08:42:39Z</time></trkpt><trkpt lat="32.6174089964" lon="35.1148657780"><ele>187.59</ele><time>2012-11-30T08:42:52Z</time></trkpt><trkpt lat="32.6173138618" lon="35.1152132917"><ele>189.52</ele><time>2012-11-30T08:43:04Z</time></trkpt><trkpt lat="32.6172343176" lon="35.1155535132"><ele>191.44</ele><time>2012-11-30T08:43:17Z</time></trkpt><trkpt lat="32.6171287894" lon="35.1158415154"><ele>193.36</ele><time>2012-11-30T08:43:31Z</time></trkpt><trkpt lat="32.6169981994" lon="35.1160656475"><ele>195.28</ele><time>2012-11-30T08:43:45Z</time></trkpt><trkpt lat="32.6167939324" lon="35.1163352933"><ele>195.77</ele><time>2012-11-30T08:44:02Z</time></trkpt><trkpt lat="32.6165755838" lon="35.1164898556"><ele>192.88</ele><time>2012-11-30T08:44:11Z</time></trkpt><trkpt lat="32.6164411381" lon="35.1164835691"><ele>191.44</ele><time>2012-11-30T08:44:15Z</time></trkpt><trkpt lat="32.6163998991" lon="35.1164647937"><ele>191.44</ele><time>2012-11-30T08:44:16Z</time></trkpt><trkpt lat="32.6163615100" lon="35.1164418273"><ele>190.96</ele><time>2012-11-30T08:44:17Z</time></trkpt><trkpt lat="32.6162921079" lon="35.1163826510"><ele>190.48</ele><time>2012-11-30T08:44:19Z</time></trkpt><trkpt lat="32.6159604359" lon="35.1160089858"><ele>187.11</ele><time>2012-11-30T08:44:28Z</time></trkpt><trkpt lat="32.6159094740" lon="35.1159394160"><ele>186.15</ele><time>2012-11-30T08:44:30Z</time></trkpt><trkpt lat="32.6157523971" lon="35.1156359911"><ele>184.23</ele><time>2012-11-30T08:44:39Z</time></trkpt><trkpt lat="32.6155460346" lon="35.1151054166"><ele>182.31</ele><time>2012-11-30T08:44:52Z</time></trkpt><trkpt lat="32.6155208051" lon="35.1149936859"><ele>182.31</ele><time>2012-11-30T08:44:54Z</time></trkpt><trkpt lat="32.6155071426" lon="35.1149401255"><ele>182.31</ele><time>2012-11-30T08:44:55Z</time></trkpt><trkpt lat="32.6154918037" lon="35.1148889121"><ele>181.83</ele><time>2012-11-30T08:44:56Z</time></trkpt><trkpt lat="32.6154724415" lon="35.1148384530"><ele>181.83</ele><time>2012-11-30T08:44:57Z</time></trkpt><trkpt lat="32.6154561806" lon="35.1147842221"><ele>180.87</ele><time>2012-11-30T08:44:58Z</time></trkpt><trkpt lat="32.6154377405" lon="35.1147309970"><ele>180.87</ele><time>2012-11-30T08:44:59Z</time></trkpt><trkpt lat="32.6153675001" lon="35.1145695616"><ele>179.90</ele><time>2012-11-30T08:45:02Z</time></trkpt><trkpt lat="32.6153329667" lon="35.1145276520"><ele>179.42</ele><time>2012-11-30T08:45:03Z</time></trkpt><trkpt lat="32.6152949128" lon="35.1144924480"><ele>178.94</ele><time>2012-11-30T08:45:04Z</time></trkpt><trkpt lat="32.6152519975" lon="35.1144638658"><ele>178.94</ele><time>2012-11-30T08:45:05Z</time></trkpt><trkpt lat="32.6152071543" lon="35.1144412346"><ele>178.46</ele><time>2012-11-30T08:45:06Z</time></trkpt><trkpt lat="32.6151652448" lon="35.1144205313"><ele>178.94</ele><time>2012-11-30T08:45:07Z</time></trkpt><trkpt lat="32.6151240058" lon="35.1143988222"><ele>178.94</ele><time>2012-11-30T08:45:08Z</time></trkpt><trkpt lat="32.6150843594" lon="35.1143798791"><ele>178.94</ele><time>2012-11-30T08:45:09Z</time></trkpt><trkpt lat="32.6147861313" lon="35.1142838225"><ele>178.46</ele><time>2012-11-30T08:45:20Z</time></trkpt><trkpt lat="32.6147291344" lon="35.1142966468"><ele>178.94</ele><time>2012-11-30T08:45:23Z</time></trkpt><trkpt lat="32.6146999653" lon="35.1143185236"><ele>179.42</ele><time>2012-11-30T08:45:26Z</time></trkpt><trkpt lat="32.6146870572" lon="35.1143564936"><ele>179.90</ele><time>2012-11-30T08:45:29Z</time></trkpt><trkpt lat="32.6146786753" lon="35.1143664680"><ele>179.90</ele><time>2012-11-30T08:45:30Z</time></trkpt><trkpt lat="32.6146697905" lon="35.1143777836"><ele>179.90</ele><time>2012-11-30T08:45:31Z</time></trkpt><trkpt lat="32.6146603189" lon="35.1143939607"><ele>179.90</ele><time>2012-11-30T08:45:32Z</time></trkpt><trkpt lat="32.6145866420" lon="35.1145204436"><ele>180.87</ele><time>2012-11-30T08:45:44Z</time></trkpt><trkpt lat="32.6145982090" lon="35.1145434100"><ele>180.87</ele><time>2012-11-30T08:46:09Z</time></trkpt><trkpt lat="32.6145354286" lon="35.1145909354"><ele>180.87</ele><time>2012-11-30T08:46:37Z</time></trkpt><trkpt lat="32.6145192515" lon="35.1145936176"><ele>180.87</ele><time>2012-11-30T08:47:01Z</time></trkpt><trkpt lat="32.6146272104" lon="35.1144775283"><ele>180.87</ele><time>2012-11-30T08:47:16Z</time></trkpt><trkpt lat="32.6146146376" lon="35.1144377142"><ele>181.35</ele><time>2012-11-30T08:47:43Z</time></trkpt><trkpt lat="32.6146103628" lon="35.1144140773"><ele>180.38</ele><time>2012-11-30T08:48:11Z</time></trkpt><trkpt lat="32.6146253664" lon="35.1144134905"><ele>180.87</ele><time>2012-11-30T08:48:40Z</time></trkpt><trkpt lat="32.6146101113" lon="35.1143945474"><ele>180.38</ele><time>2012-11-30T08:49:12Z</time></trkpt><trkpt lat="32.6146070100" lon="35.1144056115"><ele>181.35</ele><time>2012-11-30T08:49:39Z</time></trkpt><trkpt lat="32.6145966165" lon="35.1143967267"><ele>181.35</ele><time>2012-11-30T08:50:07Z</time></trkpt><trkpt lat="32.6145953592" lon="35.1144489460"><ele>180.87</ele><time>2012-11-30T08:50:36Z</time></trkpt><trkpt lat="32.6145674475" lon="35.1145745907"><ele>181.35</ele><time>2012-11-30T08:51:04Z</time></trkpt><trkpt lat="32.6144423056" lon="35.1148874871"><ele>182.79</ele><time>2012-11-30T08:51:21Z</time></trkpt><trkpt lat="32.6144159865" lon="35.1150110364"><ele>184.71</ele><time>2012-11-30T08:51:28Z</time></trkpt><trkpt lat="32.6144136395" lon="35.1150312368"><ele>184.23</ele><time>2012-11-30T08:51:29Z</time></trkpt><trkpt lat="32.6144084428" lon="35.1150524430"><ele>184.71</ele><time>2012-11-30T08:51:30Z</time></trkpt><trkpt lat="32.6143986359" lon="35.1152541954"><ele>185.67</ele><time>2012-11-30T08:51:40Z</time></trkpt><trkpt lat="32.6145388652" lon="35.1154841110"><ele>187.11</ele><time>2012-11-30T08:51:54Z</time></trkpt><trkpt lat="32.6146919187" lon="35.1157909725"><ele>189.52</ele><time>2012-11-30T08:52:10Z</time></trkpt><trkpt lat="32.6148153841" lon="35.1160911284"><ele>190.00</ele><time>2012-11-30T08:52:24Z</time></trkpt><trkpt lat="32.6149464771" lon="35.1165271550"><ele>189.52</ele><time>2012-11-30T08:52:38Z</time></trkpt><trkpt lat="32.6150743850" lon="35.1171090268"><ele>188.08</ele><time>2012-11-30T08:52:51Z</time></trkpt><trkpt lat="32.6150981057" lon="35.1172513515"><ele>187.59</ele><time>2012-11-30T08:52:54Z</time></trkpt><trkpt lat="32.6151012070" lon="35.1173060853"><ele>187.59</ele><time>2012-11-30T08:52:55Z</time></trkpt><trkpt lat="32.6151164621" lon="35.1174225099"><ele>187.11</ele><time>2012-11-30T08:52:57Z</time></trkpt><trkpt lat="32.6151236705" lon="35.1174828596"><ele>187.11</ele><time>2012-11-30T08:52:58Z</time></trkpt><trkpt lat="32.6151230000" lon="35.1175435446"><ele>186.63</ele><time>2012-11-30T08:52:59Z</time></trkpt><trkpt lat="32.6151134446" lon="35.1176064089"><ele>186.15</ele><time>2012-11-30T08:53:00Z</time></trkpt><trkpt lat="32.6150948368" lon="35.1176655013"><ele>185.67</ele><time>2012-11-30T08:53:01Z</time></trkpt><trkpt lat="32.6150696073" lon="35.1177214086"><ele>185.67</ele><time>2012-11-30T08:53:02Z</time></trkpt><trkpt lat="32.6150405221" lon="35.1177724544"><ele>185.19</ele><time>2012-11-30T08:53:03Z</time></trkpt><trkpt lat="32.6150050666" lon="35.1178153697"><ele>185.67</ele><time>2012-11-30T08:53:04Z</time></trkpt><trkpt lat="32.6149656717" lon="35.1178493164"><ele>185.19</ele><time>2012-11-30T08:53:05Z</time></trkpt><trkpt lat="32.6149260253" lon="35.1178768091"><ele>185.19</ele><time>2012-11-30T08:53:06Z</time></trkpt><trkpt lat="32.6144071855" lon="35.1180985104"><ele>185.19</ele><time>2012-11-30T08:53:19Z</time></trkpt><trkpt lat="32.6142739970" lon="35.1181348879"><ele>184.23</ele><time>2012-11-30T08:53:22Z</time></trkpt><trkpt lat="32.6137359627" lon="35.1181824971"><ele>183.27</ele><time>2012-11-30T08:53:35Z</time></trkpt><trkpt lat="32.6136107370" lon="35.1181844249"><ele>183.27</ele><time>2012-11-30T08:53:38Z</time></trkpt><trkpt lat="32.6131625567" lon="35.1180851832"><ele>185.67</ele><time>2012-11-30T08:53:50Z</time></trkpt><trkpt lat="32.6128855348" lon="35.1177813392"><ele>185.19</ele><time>2012-11-30T08:54:00Z</time></trkpt><trkpt lat="32.6128537674" lon="35.1177462190"><ele>184.71</ele><time>2012-11-30T08:54:01Z</time></trkpt><trkpt lat="32.6128221676" lon="35.1177033875"><ele>184.23</ele><time>2012-11-30T08:54:02Z</time></trkpt><trkpt lat="32.6127888914" lon="35.1176580414"><ele>184.23</ele><time>2012-11-30T08:54:03Z</time></trkpt><trkpt lat="32.6127536874" lon="35.1176127791"><ele>184.23</ele><time>2012-11-30T08:54:04Z</time></trkpt><trkpt lat="32.6125054993" lon="35.1171774231"><ele>180.87</ele><time>2012-11-30T08:54:11Z</time></trkpt><trkpt lat="32.6124776714" lon="35.1171117090"><ele>180.87</ele><time>2012-11-30T08:54:12Z</time></trkpt><trkpt lat="32.6124479156" lon="35.1170589030"><ele>180.38</ele><time>2012-11-30T08:54:13Z</time></trkpt><trkpt lat="32.6124106161" lon="35.1170203462"><ele>179.90</ele><time>2012-11-30T08:54:14Z</time></trkpt><trkpt lat="32.6123686228" lon="35.1169939432"><ele>179.42</ele><time>2012-11-30T08:54:15Z</time></trkpt><trkpt lat="32.6123239473" lon="35.1169742458"><ele>179.90</ele><time>2012-11-30T08:54:16Z</time></trkpt><trkpt lat="32.6122773439" lon="35.1169618405"><ele>179.42</ele><time>2012-11-30T08:54:17Z</time></trkpt><trkpt lat="32.6122283097" lon="35.1169516984"><ele>179.42</ele><time>2012-11-30T08:54:18Z</time></trkpt><trkpt lat="32.6120836381" lon="35.1168988086"><ele>178.94</ele><time>2012-11-30T08:54:21Z</time></trkpt><trkpt lat="32.6119436603" lon="35.1168238744"><ele>178.46</ele><time>2012-11-30T08:54:24Z</time></trkpt><trkpt lat="32.6117186062" lon="35.1166331861"><ele>177.02</ele><time>2012-11-30T08:54:29Z</time></trkpt><trkpt lat="32.6116873417" lon="35.1165835653"><ele>176.54</ele><time>2012-11-30T08:54:30Z</time></trkpt><trkpt lat="32.6116597652" lon="35.1165275741"><ele>176.06</ele><time>2012-11-30T08:54:31Z</time></trkpt><trkpt lat="32.6116361283" lon="35.1164674759"><ele>176.06</ele><time>2012-11-30T08:54:32Z</time></trkpt><trkpt lat="32.6116152573" lon="35.1164075453"><ele>175.58</ele><time>2012-11-30T08:54:33Z</time></trkpt><trkpt lat="32.6115480345" lon="35.1162207127"><ele>174.14</ele><time>2012-11-30T08:54:36Z</time></trkpt><trkpt lat="32.6115325280" lon="35.1161466166"><ele>173.66</ele><time>2012-11-30T08:54:37Z</time></trkpt><trkpt lat="32.6115145069" lon="35.1160674077"><ele>173.17</ele><time>2012-11-30T08:54:38Z</time></trkpt><trkpt lat="32.6114545763" lon="35.1158305351"><ele>172.21</ele><time>2012-11-30T08:54:41Z</time></trkpt><trkpt lat="32.6113551669" lon="35.1150875632"><ele>171.73</ele><time>2012-11-30T08:54:52Z</time></trkpt><trkpt lat="32.6113513950" lon="35.1150404569"><ele>172.21</ele><time>2012-11-30T08:54:53Z</time></trkpt><trkpt lat="32.6113225613" lon="35.1149327494"><ele>172.21</ele><time>2012-11-30T08:54:57Z</time></trkpt><trkpt lat="32.6113150176" lon="35.1149140578"><ele>172.21</ele><time>2012-11-30T08:54:58Z</time></trkpt><trkpt lat="32.6113077253" lon="35.1148940250"><ele>172.21</ele><time>2012-11-30T08:54:59Z</time></trkpt><trkpt lat="32.6113000978" lon="35.1148628443"><ele>172.21</ele><time>2012-11-30T08:55:11Z</time></trkpt><trkpt lat="32.6112737786" lon="35.1148467511"><ele>171.73</ele><time>2012-11-30T08:55:35Z</time></trkpt><trkpt lat="32.6112829987" lon="35.1148198452"><ele>172.21</ele><time>2012-11-30T08:55:56Z</time></trkpt><trkpt lat="32.6112817414" lon="35.1148078591"><ele>172.21</ele><time>2012-11-30T08:56:26Z</time></trkpt><trkpt lat="32.6112812385" lon="35.1148115471"><ele>172.21</ele><time>2012-11-30T08:56:57Z</time></trkpt><trkpt lat="32.6112712640" lon="35.1148037519"><ele>172.69</ele><time>2012-11-30T08:57:23Z</time></trkpt><trkpt lat="32.6112743653" lon="35.1148003992"><ele>172.21</ele><time>2012-11-30T08:57:34Z</time></trkpt><trkpt lat="32.6112642232" lon="35.1147910114"><ele>172.21</ele><time>2012-11-30T08:57:35Z</time></trkpt><trkpt lat="32.6112462860" lon="35.1147793606"><ele>172.21</ele><time>2012-11-30T08:57:36Z</time></trkpt><trkpt lat="32.6112242416" lon="35.1147733256"><ele>171.73</ele><time>2012-11-30T08:57:37Z</time></trkpt><trkpt lat="32.6112063043" lon="35.1147769298"><ele>171.73</ele><time>2012-11-30T08:57:38Z</time></trkpt><trkpt lat="32.6111880317" lon="35.1147803664"><ele>171.73</ele><time>2012-11-30T08:57:39Z</time></trkpt><trkpt lat="32.6111740340" lon="35.1147905085"><ele>170.77</ele><time>2012-11-30T08:57:40Z</time></trkpt><trkpt lat="32.6111587789" lon="35.1147996448"><ele>170.77</ele><time>2012-11-30T08:57:41Z</time></trkpt><trkpt lat="32.6111374050" lon="35.1148015726"><ele>170.29</ele><time>2012-11-30T08:57:42Z</time></trkpt><trkpt lat="32.6111161150" lon="35.1147962082"><ele>169.81</ele><time>2012-11-30T08:57:43Z</time></trkpt><trkpt lat="32.6110960823" lon="35.1147860661"><ele>170.29</ele><time>2012-11-30T08:57:44Z</time></trkpt><trkpt lat="32.6110783126" lon="35.1147817913"><ele>170.29</ele><time>2012-11-30T08:57:45Z</time></trkpt><trkpt lat="32.6110625546" lon="35.1147855632"><ele>170.29</ele><time>2012-11-30T08:57:46Z</time></trkpt><trkpt lat="32.6110229082" lon="35.1148226950"><ele>170.77</ele><time>2012-11-30T08:57:50Z</time></trkpt><trkpt lat="32.6110145263" lon="35.1148388721"><ele>170.77</ele><time>2012-11-30T08:57:51Z</time></trkpt><trkpt lat="32.6110082399" lon="35.1148817036"><ele>169.81</ele><time>2012-11-30T08:58:04Z</time></trkpt><trkpt lat="32.6109842677" lon="35.1149055921"><ele>169.81</ele><time>2012-11-30T08:58:33Z</time></trkpt><trkpt lat="32.6109771430" lon="35.1149310730"><ele>170.29</ele><time>2012-11-30T08:59:04Z</time></trkpt><trkpt lat="32.6109926496" lon="35.1149271335"><ele>170.77</ele><time>2012-11-30T08:59:39Z</time></trkpt><trkpt lat="32.6110141911" lon="35.1149303187"><ele>170.29</ele><time>2012-11-30T09:00:09Z</time></trkpt><trkpt lat="32.6110010315" lon="35.1149746589"><ele>170.29</ele><time>2012-11-30T09:00:14Z</time></trkpt><trkpt lat="32.6109686773" lon="35.1152001321"><ele>167.41</ele><time>2012-11-30T09:00:22Z</time></trkpt><trkpt lat="32.6109545119" lon="35.1153322309"><ele>166.45</ele><time>2012-11-30T09:00:25Z</time></trkpt><trkpt lat="32.6109177154" lon="35.1155383419"><ele>164.52</ele><time>2012-11-30T09:00:29Z</time></trkpt><trkpt lat="32.6109025441" lon="35.1155936625"><ele>163.56</ele><time>2012-11-30T09:00:30Z</time></trkpt><trkpt lat="32.6108539291" lon="35.1157524996"><ele>161.16</ele><time>2012-11-30T09:00:33Z</time></trkpt><trkpt lat="32.6108286157" lon="35.1158617157"><ele>160.20</ele><time>2012-11-30T09:00:35Z</time></trkpt><trkpt lat="32.6106979419" lon="35.1162200421"><ele>157.31</ele><time>2012-11-30T09:00:41Z</time></trkpt><trkpt lat="32.6106499135" lon="35.1163231395"><ele>156.35</ele><time>2012-11-30T09:00:43Z</time></trkpt><trkpt lat="32.6105917431" lon="35.1164232194"><ele>155.39</ele><time>2012-11-30T09:00:45Z</time></trkpt><trkpt lat="32.6105548628" lon="35.1164725889"><ele>154.91</ele><time>2012-11-30T09:00:46Z</time></trkpt><trkpt lat="32.6104754861" lon="35.1165569946"><ele>153.47</ele><time>2012-11-30T09:00:48Z</time></trkpt><trkpt lat="32.6104324032" lon="35.1165919472"><ele>153.47</ele><time>2012-11-30T09:00:49Z</time></trkpt><trkpt lat="32.6102383621" lon="35.1167057734"><ele>151.54</ele><time>2012-11-30T09:00:58Z</time></trkpt><trkpt lat="32.6101088617" lon="35.1167299971"><ele>152.51</ele><time>2012-11-30T09:01:15Z</time></trkpt><trkpt lat="32.6098374557" lon="35.1167819649"><ele>153.95</ele><time>2012-11-30T09:01:29Z</time></trkpt><trkpt lat="32.6095510460" lon="35.1167952083"><ele>154.43</ele><time>2012-11-30T09:01:41Z</time></trkpt><trkpt lat="32.6092414185" lon="35.1168158278"><ele>155.39</ele><time>2012-11-30T09:01:55Z</time></trkpt><trkpt lat="32.6089581940" lon="35.1168022491"><ele>156.83</ele><time>2012-11-30T09:02:09Z</time></trkpt><trkpt lat="32.6086846925" lon="35.1167471800"><ele>158.75</ele><time>2012-11-30T09:02:23Z</time></trkpt><trkpt lat="32.6086702757" lon="35.1167478506"><ele>158.27</ele><time>2012-11-30T09:02:24Z</time></trkpt><trkpt lat="32.6086550206" lon="35.1167482696"><ele>158.27</ele><time>2012-11-30T09:02:25Z</time></trkpt><trkpt lat="32.6083575469" lon="35.1167029236"><ele>159.24</ele><time>2012-11-30T09:02:38Z</time></trkpt><trkpt lat="32.6080019865" lon="35.1166104712"><ele>159.24</ele><time>2012-11-30T09:02:51Z</time></trkpt><trkpt lat="32.6076413132" lon="35.1163741853"><ele>159.24</ele><time>2012-11-30T09:03:05Z</time></trkpt><trkpt lat="32.6072334498" lon="35.1162005961"><ele>159.72</ele><time>2012-11-30T09:03:18Z</time></trkpt><trkpt lat="32.6069926377" lon="35.1160529070"><ele>161.16</ele><time>2012-11-30T09:03:29Z</time></trkpt><trkpt lat="32.6069293544" lon="35.1159580238"><ele>162.12</ele><time>2012-11-30T09:03:34Z</time></trkpt><trkpt lat="32.6069182064" lon="35.1159375720"><ele>162.12</ele><time>2012-11-30T09:03:35Z</time></trkpt><trkpt lat="32.6069024485" lon="35.1159136835"><ele>162.12</ele><time>2012-11-30T09:03:36Z</time></trkpt><trkpt lat="32.6068877801" lon="35.1158949081"><ele>162.12</ele><time>2012-11-30T09:03:37Z</time></trkpt><trkpt lat="32.6068705134" lon="35.1158788987"><ele>162.12</ele><time>2012-11-30T09:03:38Z</time></trkpt><trkpt lat="32.6068540849" lon="35.1158643980"><ele>162.12</ele><time>2012-11-30T09:03:39Z</time></trkpt><trkpt lat="32.6066213194" lon="35.1156877913"><ele>165.00</ele><time>2012-11-30T09:03:54Z</time></trkpt><trkpt lat="32.6064184774" lon="35.1155205723"><ele>165.48</ele><time>2012-11-30T09:04:08Z</time></trkpt><trkpt lat="32.6062293816" lon="35.1153194904"><ele>166.45</ele><time>2012-11-30T09:04:21Z</time></trkpt><trkpt lat="32.6059929281" lon="35.1150852162"><ele>167.89</ele><time>2012-11-30T09:04:34Z</time></trkpt><trkpt lat="32.6058026589" lon="35.1147855632"><ele>167.41</ele><time>2012-11-30T09:04:46Z</time></trkpt><trkpt lat="32.6057299040" lon="35.1146331802"><ele>167.89</ele><time>2012-11-30T09:04:54Z</time></trkpt><trkpt lat="32.6057131402" lon="35.1146258041"><ele>167.89</ele><time>2012-11-30T09:04:55Z</time></trkpt><trkpt lat="32.6056970470" lon="35.1146507822"><ele>167.41</ele><time>2012-11-30T09:05:12Z</time></trkpt><trkpt lat="32.6056834683" lon="35.1147136465"><ele>167.89</ele><time>2012-11-30T09:05:50Z</time></trkpt><trkpt lat="32.6056731585" lon="35.1147226151"><ele>167.41</ele><time>2012-11-30T09:05:52Z</time></trkpt><trkpt lat="32.6056537963" lon="35.1147378702"><ele>167.41</ele><time>2012-11-30T09:05:53Z</time></trkpt><trkpt lat="32.6053892635" lon="35.1147719007"><ele>168.85</ele><time>2012-11-30T09:06:03Z</time></trkpt><trkpt lat="32.6051668916" lon="35.1148140617"><ele>170.77</ele><time>2012-11-30T09:06:16Z</time></trkpt><trkpt lat="32.6051218808" lon="35.1148283109"><ele>171.73</ele><time>2012-11-30T09:06:20Z</time></trkpt><trkpt lat="32.6051114872" lon="35.1148377825"><ele>171.25</ele><time>2012-11-30T09:06:21Z</time></trkpt><trkpt lat="32.6050767023" lon="35.1148646884"><ele>171.25</ele><time>2012-11-30T09:06:32Z</time></trkpt><trkpt lat="32.6050691586" lon="35.1148431469"><ele>171.73</ele><time>2012-11-30T09:07:05Z</time></trkpt><trkpt lat="32.6050783787" lon="35.1148122177"><ele>171.25</ele><time>2012-11-30T09:07:37Z</time></trkpt><trkpt lat="32.6050555799" lon="35.1147984713"><ele>171.73</ele><time>2012-11-30T09:08:01Z</time></trkpt><trkpt lat="32.6050369721" lon="35.1149072684"><ele>171.73</ele><time>2012-11-30T09:08:29Z</time></trkpt><trkpt lat="32.6050445158" lon="35.1148392074"><ele>172.21</ele><time>2012-11-30T09:08:55Z</time></trkpt><trkpt lat="32.6050404087" lon="35.1148449909"><ele>171.73</ele><time>2012-11-30T09:09:20Z</time></trkpt><trkpt lat="32.6050450187" lon="35.1148296520"><ele>172.69</ele><time>2012-11-30T09:09:48Z</time></trkpt><trkpt lat="32.6050425880" lon="35.1148116309"><ele>172.21</ele><time>2012-11-30T09:10:15Z</time></trkpt><trkpt lat="32.6050473657" lon="35.1148345135"><ele>172.21</ele><time>2012-11-30T09:10:38Z</time></trkpt><trkpt lat="32.6050446834" lon="35.1148379501"><ele>171.73</ele><time>2012-11-30T09:11:07Z</time></trkpt><trkpt lat="32.6050393190" lon="35.1148837991"><ele>171.73</ele><time>2012-11-30T09:11:40Z</time></trkpt><trkpt lat="32.6049083099" lon="35.1150327455"><ele>171.25</ele><time>2012-11-30T09:11:55Z</time></trkpt><trkpt lat="32.6046537515" lon="35.1152291335"><ele>171.25</ele><time>2012-11-30T09:12:08Z</time></trkpt><trkpt lat="32.6043589599" lon="35.1153059117"><ele>171.25</ele><time>2012-11-30T09:12:21Z</time></trkpt><trkpt lat="32.6040794235" lon="35.1152653433"><ele>173.17</ele><time>2012-11-30T09:12:35Z</time></trkpt><trkpt lat="32.6037811954" lon="35.1152868010"><ele>174.14</ele><time>2012-11-30T09:12:49Z</time></trkpt><trkpt lat="32.6036858093" lon="35.1152858790"><ele>175.10</ele><time>2012-11-30T09:12:54Z</time></trkpt><trkpt lat="32.6033864915" lon="35.1152434666"><ele>176.54</ele><time>2012-11-30T09:13:09Z</time></trkpt><trkpt lat="32.6032037660" lon="35.1154075004"><ele>176.06</ele><time>2012-11-30T09:13:22Z</time></trkpt><trkpt lat="32.6031813864" lon="35.1156038884"><ele>176.54</ele><time>2012-11-30T09:13:33Z</time></trkpt><trkpt lat="32.6032543927" lon="35.1157638151"><ele>177.50</ele><time>2012-11-30T09:13:47Z</time></trkpt><trkpt lat="32.6032790355" lon="35.1158529986"><ele>177.50</ele><time>2012-11-30T09:14:04Z</time></trkpt><trkpt lat="32.6032947097" lon="35.1158832572"><ele>177.50</ele><time>2012-11-30T09:14:34Z</time></trkpt><trkpt lat="32.6033790316" lon="35.1158210635"><ele>177.98</ele><time>2012-11-30T09:14:51Z</time></trkpt><trkpt lat="32.6034454163" lon="35.1158160344"><ele>177.98</ele><time>2012-11-30T09:14:58Z</time></trkpt><trkpt lat="32.6034565642" lon="35.1158093289"><ele>177.50</ele><time>2012-11-30T09:14:59Z</time></trkpt><trkpt lat="32.6034688856" lon="35.1158063114"><ele>177.98</ele><time>2012-11-30T09:15:00Z</time></trkpt><trkpt lat="32.6034848113" lon="35.1157992706"><ele>177.98</ele><time>2012-11-30T09:15:01Z</time></trkpt><trkpt lat="32.6035017427" lon="35.1157945767"><ele>177.98</ele><time>2012-11-30T09:15:02Z</time></trkpt><trkpt lat="32.6035199314" lon="35.1157907210"><ele>177.50</ele><time>2012-11-30T09:15:03Z</time></trkpt><trkpt lat="32.6038243622" lon="35.1157937385"><ele>176.54</ele><time>2012-11-30T09:15:15Z</time></trkpt><trkpt lat="32.6042157132" lon="35.1158065628"><ele>174.14</ele><time>2012-11-30T09:15:28Z</time></trkpt><trkpt lat="32.6044365764" lon="35.1157929003"><ele>172.69</ele><time>2012-11-30T09:15:33Z</time></trkpt><trkpt lat="32.6050216332" lon="35.1158107538"><ele>169.33</ele><time>2012-11-30T09:15:42Z</time></trkpt><trkpt lat="32.6053067017" lon="35.1158324629"><ele>168.37</ele><time>2012-11-30T09:15:46Z</time></trkpt><trkpt lat="32.6053733379" lon="35.1158465445"><ele>168.37</ele><time>2012-11-30T09:15:47Z</time></trkpt><trkpt lat="32.6059483364" lon="35.1160991751"><ele>165.96</ele><time>2012-11-30T09:15:56Z</time></trkpt><trkpt lat="32.6061247755" lon="35.1162278373"><ele>165.48</ele><time>2012-11-30T09:15:59Z</time></trkpt><trkpt lat="32.6061848737" lon="35.1162674837"><ele>165.00</ele><time>2012-11-30T09:16:00Z</time></trkpt><trkpt lat="32.6062473189" lon="35.1163045317"><ele>165.00</ele><time>2012-11-30T09:16:01Z</time></trkpt><trkpt lat="32.6069348026" lon="35.1166310068"><ele>161.64</ele><time>2012-11-30T09:16:11Z</time></trkpt><trkpt lat="32.6070593577" lon="35.1166970562"><ele>162.12</ele><time>2012-11-30T09:16:13Z</time></trkpt><trkpt lat="32.6071656402" lon="35.1167726610"><ele>161.64</ele><time>2012-11-30T09:16:15Z</time></trkpt><trkpt lat="32.6072710007" lon="35.1168705616"><ele>161.16</ele><time>2012-11-30T09:16:17Z</time></trkpt><trkpt lat="32.6073202025" lon="35.1169193443"><ele>161.64</ele><time>2012-11-30T09:16:18Z</time></trkpt><trkpt lat="32.6073668897" lon="35.1169630978"><ele>160.68</ele><time>2012-11-30T09:16:19Z</time></trkpt><trkpt lat="32.6074984856" lon="35.1170946937"><ele>160.68</ele><time>2012-11-30T09:16:22Z</time></trkpt><trkpt lat="32.6076082885" lon="35.1171684545"><ele>159.72</ele><time>2012-11-30T09:16:24Z</time></trkpt><trkpt lat="32.6076707337" lon="35.1171921752"><ele>159.72</ele><time>2012-11-30T09:16:25Z</time></trkpt><trkpt lat="32.6080387831" lon="35.1172866393"><ele>158.75</ele><time>2012-11-30T09:16:31Z</time></trkpt><trkpt lat="32.6086801663" lon="35.1172978710"><ele>154.91</ele><time>2012-11-30T09:16:42Z</time></trkpt><trkpt lat="32.6094219647" lon="35.1173122879"><ele>152.99</ele><time>2012-11-30T09:16:53Z</time></trkpt><trkpt lat="32.6100499369" lon="35.1172519382"><ele>149.62</ele><time>2012-11-30T09:17:03Z</time></trkpt><trkpt lat="32.6103271265" lon="35.1172674447"><ele>148.66</ele><time>2012-11-30T09:17:07Z</time></trkpt><trkpt lat="32.6103917509" lon="35.1172889024"><ele>148.18</ele><time>2012-11-30T09:17:08Z</time></trkpt><trkpt lat="32.6105015539" lon="35.1173391100"><ele>148.66</ele><time>2012-11-30T09:17:10Z</time></trkpt><trkpt lat="32.6105446368" lon="35.1173704583"><ele>149.62</ele><time>2012-11-30T09:17:11Z</time></trkpt><trkpt lat="32.6107789949" lon="35.1176373381"><ele>149.14</ele><time>2012-11-30T09:17:21Z</time></trkpt><trkpt lat="32.6108994428" lon="35.1178339776"><ele>147.70</ele><time>2012-11-30T09:17:27Z</time></trkpt><trkpt lat="32.6109274384" lon="35.1178793237"><ele>147.70</ele><time>2012-11-30T09:17:28Z</time></trkpt><trkpt lat="32.6109894644" lon="35.1179706026"><ele>147.22</ele><time>2012-11-30T09:17:30Z</time></trkpt><trkpt lat="32.6110198069" lon="35.1180138532"><ele>146.74</ele><time>2012-11-30T09:17:31Z</time></trkpt><trkpt lat="32.6110476349" lon="35.1180541702"><ele>146.74</ele><time>2012-11-30T09:17:32Z</time></trkpt><trkpt lat="32.6110717747" lon="35.1180971693"><ele>146.74</ele><time>2012-11-30T09:17:33Z</time></trkpt><trkpt lat="32.6110958308" lon="35.1181436051"><ele>146.74</ele><time>2012-11-30T09:17:34Z</time></trkpt><trkpt lat="32.6113609504" lon="35.1185357105"><ele>145.30</ele><time>2012-11-30T09:17:45Z</time></trkpt><trkpt lat="32.6116829831" lon="35.1188077871"><ele>144.34</ele><time>2012-11-30T09:17:56Z</time></trkpt><trkpt lat="32.6119045168" lon="35.1191200968"><ele>144.34</ele><time>2012-11-30T09:18:07Z</time></trkpt><trkpt lat="32.6120759267" lon="35.1194108650"><ele>145.78</ele><time>2012-11-30T09:18:19Z</time></trkpt><trkpt lat="32.6121848077" lon="35.1196923293"><ele>147.22</ele><time>2012-11-30T09:18:32Z</time></trkpt><trkpt lat="32.6121935248" lon="35.1197019685"><ele>147.22</ele><time>2012-11-30T09:18:33Z</time></trkpt><trkpt lat="32.6122876536" lon="35.1197124459"><ele>144.34</ele><time>2012-11-30T09:18:36Z</time></trkpt><trkpt lat="32.6125725545" lon="35.1198917348"><ele>142.89</ele><time>2012-11-30T09:18:44Z</time></trkpt><trkpt lat="32.6126320660" lon="35.1199859474"><ele>143.85</ele><time>2012-11-30T09:18:54Z</time></trkpt><trkpt lat="32.6126070879" lon="35.1199660823"><ele>144.34</ele><time>2012-11-30T09:19:08Z</time></trkpt><trkpt lat="32.6125324052" lon="35.1200149488"><ele>144.82</ele><time>2012-11-30T09:19:33Z</time></trkpt><trkpt lat="32.6125407871" lon="35.1200346462"><ele>143.85</ele><time>2012-11-30T09:19:58Z</time></trkpt><trkpt lat="32.6125979517" lon="35.1200054772"><ele>144.34</ele><time>2012-11-30T09:20:22Z</time></trkpt><trkpt lat="32.6126372628" lon="35.1199832652"><ele>143.85</ele><time>2012-11-30T09:20:36Z</time></trkpt><trkpt lat="32.6126640011" lon="35.1199864503"><ele>143.85</ele><time>2012-11-30T09:20:45Z</time></trkpt><trkpt lat="32.6127213333" lon="35.1199142821"><ele>143.85</ele><time>2012-11-30T09:20:50Z</time></trkpt><trkpt lat="32.6131500676" lon="35.1196818519"><ele>140.97</ele><time>2012-11-30T09:21:03Z</time></trkpt><trkpt lat="32.6134052128" lon="35.1196034811"><ele>140.97</ele><time>2012-11-30T09:21:08Z</time></trkpt><trkpt lat="32.6134513132" lon="35.1195943449"><ele>140.97</ele><time>2012-11-30T09:21:09Z</time></trkpt><trkpt lat="32.6138440054" lon="35.1195365936"><ele>142.41</ele><time>2012-11-30T09:21:20Z</time></trkpt><trkpt lat="32.6141246315" lon="35.1193859708"><ele>141.45</ele><time>2012-11-30T09:21:30Z</time></trkpt><trkpt lat="32.6142008230" lon="35.1193295605"><ele>140.97</ele><time>2012-11-30T09:21:32Z</time></trkpt><trkpt lat="32.6143033337" lon="35.1192735694"><ele>140.01</ele><time>2012-11-30T09:21:34Z</time></trkpt><trkpt lat="32.6143589895" lon="35.1192474179"><ele>140.01</ele><time>2012-11-30T09:21:35Z</time></trkpt><trkpt lat="32.6144770067" lon="35.1191962883"><ele>139.53</ele><time>2012-11-30T09:21:37Z</time></trkpt><trkpt lat="32.6145399548" lon="35.1191795245"><ele>139.05</ele><time>2012-11-30T09:21:38Z</time></trkpt><trkpt lat="32.6147096045" lon="35.1191573124"><ele>139.05</ele><time>2012-11-30T09:21:41Z</time></trkpt><trkpt lat="32.6147607341" lon="35.1191584859"><ele>139.05</ele><time>2012-11-30T09:21:42Z</time></trkpt><trkpt lat="32.6148127019" lon="35.1191592403"><ele>139.05</ele><time>2012-11-30T09:21:43Z</time></trkpt><trkpt lat="32.6148629095" lon="35.1191511098"><ele>138.57</ele><time>2012-11-30T09:21:44Z</time></trkpt><trkpt lat="32.6149095129" lon="35.1191357709"><ele>139.05</ele><time>2012-11-30T09:21:45Z</time></trkpt><trkpt lat="32.6149550267" lon="35.1191164088"><ele>138.57</ele><time>2012-11-30T09:21:46Z</time></trkpt><trkpt lat="32.6151359919" lon="35.1190559752"><ele>138.09</ele><time>2012-11-30T09:21:50Z</time></trkpt><trkpt lat="32.6151803322" lon="35.1190419775"><ele>137.61</ele><time>2012-11-30T09:21:51Z</time></trkpt><trkpt lat="32.6152256783" lon="35.1190342661"><ele>137.61</ele><time>2012-11-30T09:21:52Z</time></trkpt><trkpt lat="32.6155351382" lon="35.1190012414"><ele>134.72</ele><time>2012-11-30T09:21:57Z</time></trkpt><trkpt lat="32.6156091504" lon="35.1189967990"><ele>134.72</ele><time>2012-11-30T09:21:58Z</time></trkpt><trkpt lat="32.6156819053" lon="35.1189983916"><ele>134.24</ele><time>2012-11-30T09:21:59Z</time></trkpt><trkpt lat="32.6158333663" lon="35.1190148201"><ele>133.28</ele><time>2012-11-30T09:22:01Z</time></trkpt><trkpt lat="32.6162530482" lon="35.1191439852"><ele>131.84</ele><time>2012-11-30T09:22:07Z</time></trkpt><trkpt lat="32.6163146552" lon="35.1191769261"><ele>131.84</ele><time>2012-11-30T09:22:08Z</time></trkpt><trkpt lat="32.6164360251" lon="35.1192477532"><ele>131.36</ele><time>2012-11-30T09:22:10Z</time></trkpt><trkpt lat="32.6164951175" lon="35.1192762516"><ele>131.84</ele><time>2012-11-30T09:22:11Z</time></trkpt><trkpt lat="32.6165559702" lon="35.1192962844"><ele>131.84</ele><time>2012-11-30T09:22:12Z</time></trkpt><trkpt lat="32.6166108716" lon="35.1192989666"><ele>131.84</ele><time>2012-11-30T09:22:13Z</time></trkpt><trkpt lat="32.6166671980" lon="35.1192934345"><ele>131.84</ele><time>2012-11-30T09:22:14Z</time></trkpt><trkpt lat="32.6166987978" lon="35.1192874834"><ele>131.84</ele><time>2012-11-30T09:22:15Z</time></trkpt><trkpt lat="32.6167895738" lon="35.1192735694"><ele>131.36</ele><time>2012-11-30T09:22:16Z</time></trkpt><trkpt lat="32.6169033162" lon="35.1192475855"><ele>130.88</ele><time>2012-11-30T09:22:18Z</time></trkpt><trkpt lat="32.6170457248" lon="35.1191821229"><ele>131.36</ele><time>2012-11-30T09:22:21Z</time></trkpt><trkpt lat="32.6171370875" lon="35.1191241201"><ele>131.36</ele><time>2012-11-30T09:22:23Z</time></trkpt><trkpt lat="32.6171804219" lon="35.1190866530"><ele>131.36</ele><time>2012-11-30T09:22:24Z</time></trkpt><trkpt lat="32.6172204036" lon="35.1190470066"><ele>131.36</ele><time>2012-11-30T09:22:25Z</time></trkpt><trkpt lat="32.6172533445" lon="35.1190021634"><ele>130.88</ele><time>2012-11-30T09:22:26Z</time></trkpt><trkpt lat="32.6172837708" lon="35.1189491898"><ele>130.88</ele><time>2012-11-30T09:22:27Z</time></trkpt><trkpt lat="32.6176192984" lon="35.1183322817"><ele>128.47</ele><time>2012-11-30T09:22:38Z</time></trkpt><trkpt lat="32.6176533289" lon="35.1182866003"><ele>128.47</ele><time>2012-11-30T09:22:39Z</time></trkpt><trkpt lat="32.6177471224" lon="35.1181731094"><ele>128.47</ele><time>2012-11-30T09:22:42Z</time></trkpt><trkpt lat="32.6180801354" lon="35.1180244144"><ele>127.51</ele><time>2012-11-30T09:22:51Z</time></trkpt><trkpt lat="32.6181968953" lon="35.1179530006"><ele>127.03</ele><time>2012-11-30T09:22:55Z</time></trkpt><trkpt lat="32.6182031818" lon="35.1179080736"><ele>126.07</ele><time>2012-11-30T09:22:56Z</time></trkpt><trkpt lat="32.6181980688" lon="35.1178630628"><ele>126.55</ele><time>2012-11-30T09:22:57Z</time></trkpt><trkpt lat="32.6181908604" lon="35.1178184710"><ele>126.55</ele><time>2012-11-30T09:22:58Z</time></trkpt><trkpt lat="32.6181859151" lon="35.1177735440"><ele>126.55</ele><time>2012-11-30T09:22:59Z</time></trkpt><trkpt lat="32.6181843225" lon="35.1177289523"><ele>126.07</ele><time>2012-11-30T09:23:00Z</time></trkpt><trkpt lat="32.6181847416" lon="35.1176863723"><ele>126.55</ele><time>2012-11-30T09:23:01Z</time></trkpt><trkpt lat="32.6181870047" lon="35.1176447980"><ele>126.07</ele><time>2012-11-30T09:23:02Z</time></trkpt><trkpt lat="32.6181916986" lon="35.1176039781"><ele>126.07</ele><time>2012-11-30T09:23:03Z</time></trkpt><trkpt lat="32.6181969792" lon="35.1172410417"><ele>127.03</ele><time>2012-11-30T09:23:15Z</time></trkpt><trkpt lat="32.6181969792" lon="35.1171418838"><ele>127.51</ele><time>2012-11-30T09:23:26Z</time></trkpt><trkpt lat="32.6182090491" lon="35.1170954481"><ele>127.51</ele><time>2012-11-30T09:23:53Z</time></trkpt><trkpt lat="32.6182128210" lon="35.1170811988"><ele>127.99</ele><time>2012-11-30T09:24:29Z</time></trkpt><trkpt lat="32.6182047743" lon="35.1170506049"><ele>128.47</ele><time>2012-11-30T09:24:49Z</time></trkpt><trkpt lat="32.6181977335" lon="35.1170385350"><ele>128.47</ele><time>2012-11-30T09:24:50Z</time></trkpt><trkpt lat="32.6181915309" lon="35.1170256268"><ele>127.99</ele><time>2012-11-30T09:24:51Z</time></trkpt><trkpt lat="32.6181891002" lon="35.1170101203"><ele>128.95</ele><time>2012-11-30T09:24:52Z</time></trkpt><trkpt lat="32.6181863341" lon="35.1169968769"><ele>128.95</ele><time>2012-11-30T09:24:53Z</time></trkpt><trkpt lat="32.6181834843" lon="35.1169838849"><ele>128.95</ele><time>2012-11-30T09:24:54Z</time></trkpt><trkpt lat="32.6181787066" lon="35.1169704739"><ele>128.95</ele><time>2012-11-30T09:24:55Z</time></trkpt><trkpt lat="32.6181735937" lon="35.1169578172"><ele>128.95</ele><time>2012-11-30T09:24:56Z</time></trkpt><trkpt lat="32.6181598473" lon="35.1168271434"><ele>130.40</ele><time>2012-11-30T09:25:05Z</time></trkpt><trkpt lat="32.6181535609" lon="35.1165611856"><ele>132.32</ele><time>2012-11-30T09:25:21Z</time></trkpt><trkpt lat="32.6181305945" lon="35.1164938789"><ele>132.32</ele><time>2012-11-30T09:25:25Z</time></trkpt><trkpt lat="32.6181276608" lon="35.1164759416"><ele>132.80</ele><time>2012-11-30T09:25:26Z</time></trkpt><trkpt lat="32.6181248948" lon="35.1164589263"><ele>132.80</ele><time>2012-11-30T09:25:27Z</time></trkpt><trkpt lat="32.6181254815" lon="35.1164383069"><ele>132.80</ele><time>2012-11-30T09:25:28Z</time></trkpt><trkpt lat="32.6181265712" lon="35.1164215431"><ele>133.28</ele><time>2012-11-30T09:25:29Z</time></trkpt><trkpt lat="32.6181290857" lon="35.1163104828"><ele>133.76</ele><time>2012-11-30T09:25:35Z</time></trkpt><trkpt lat="32.6181270741" lon="35.1162888575"><ele>133.76</ele><time>2012-11-30T09:25:36Z</time></trkpt><trkpt lat="32.6181257330" lon="35.1162694115"><ele>134.24</ele><time>2012-11-30T09:25:37Z</time></trkpt><trkpt lat="32.6181025989" lon="35.1160435192"><ele>135.68</ele><time>2012-11-30T09:25:52Z</time></trkpt><trkpt lat="32.6181019284" lon="35.1160147693"><ele>135.68</ele><time>2012-11-30T09:25:54Z</time></trkpt><trkpt lat="32.6181025151" lon="35.1160001010"><ele>136.16</ele><time>2012-11-30T09:25:55Z</time></trkpt><trkpt lat="32.6181019284" lon="35.1159845944"><ele>136.16</ele><time>2012-11-30T09:25:56Z</time></trkpt><trkpt lat="32.6181008387" lon="35.1159687527"><ele>135.68</ele><time>2012-11-30T09:25:57Z</time></trkpt><trkpt lat="32.6180984080" lon="35.1159514859"><ele>135.68</ele><time>2012-11-30T09:25:58Z</time></trkpt><trkpt lat="32.6180963125" lon="35.1159334648"><ele>136.64</ele><time>2012-11-30T09:25:59Z</time></trkpt><trkpt lat="32.6180682331" lon="35.1157241687"><ele>138.57</ele><time>2012-11-30T09:26:13Z</time></trkpt><trkpt lat="32.6180709992" lon="35.1156878751"><ele>138.57</ele><time>2012-11-30T09:26:15Z</time></trkpt><trkpt lat="32.6180684008" lon="35.1156729553"><ele>138.57</ele><time>2012-11-30T09:26:16Z</time></trkpt><trkpt lat="32.6180684008" lon="35.1156583708"><ele>138.57</ele><time>2012-11-30T09:26:17Z</time></trkpt><trkpt lat="32.6180689037" lon="35.1156432834"><ele>139.05</ele><time>2012-11-30T09:26:18Z</time></trkpt><trkpt lat="32.6180668082" lon="35.1156290341"><ele>139.05</ele><time>2012-11-30T09:26:19Z</time></trkpt><trkpt lat="32.6180637907" lon="35.1156144496"><ele>139.53</ele><time>2012-11-30T09:26:20Z</time></trkpt><trkpt lat="32.6180626173" lon="35.1155982725"><ele>139.53</ele><time>2012-11-30T09:26:21Z</time></trkpt><trkpt lat="32.6180616952" lon="35.1155817602"><ele>139.53</ele><time>2012-11-30T09:26:22Z</time></trkpt><trkpt lat="32.6180601027" lon="35.1155653317"><ele>139.53</ele><time>2012-11-30T09:26:23Z</time></trkpt><trkpt lat="32.6180538163" lon="35.1153365057"><ele>140.97</ele><time>2012-11-30T09:26:38Z</time></trkpt><trkpt lat="32.6180313528" lon="35.1152246911"><ele>142.89</ele><time>2012-11-30T09:26:46Z</time></trkpt><trkpt lat="32.6180262398" lon="35.1152085979"><ele>142.89</ele><time>2012-11-30T09:26:47Z</time></trkpt><trkpt lat="32.6180223841" lon="35.1151929237"><ele>142.41</ele><time>2012-11-30T09:26:48Z</time></trkpt><trkpt lat="32.6180191990" lon="35.1151768304"><ele>142.89</ele><time>2012-11-30T09:26:49Z</time></trkpt><trkpt lat="32.6180157624" lon="35.1151612401"><ele>143.37</ele><time>2012-11-30T09:26:50Z</time></trkpt><trkpt lat="32.6180143375" lon="35.1151535287"><ele>142.89</ele><time>2012-11-30T09:26:51Z</time></trkpt><trkpt lat="32.6180090569" lon="35.1150671951"><ele>143.85</ele><time>2012-11-30T09:26:56Z</time></trkpt><trkpt lat="32.6180138346" lon="35.1150487550"><ele>143.85</ele><time>2012-11-30T09:26:57Z</time></trkpt><trkpt lat="32.6180186961" lon="35.1150322426"><ele>143.37</ele><time>2012-11-30T09:26:58Z</time></trkpt><trkpt lat="32.6180215459" lon="35.1150165685"><ele>144.34</ele><time>2012-11-30T09:26:59Z</time></trkpt><trkpt lat="32.6180233900" lon="35.1149981283"><ele>144.34</ele><time>2012-11-30T09:27:00Z</time></trkpt><trkpt lat="32.6180224679" lon="35.1149809454"><ele>144.82</ele><time>2012-11-30T09:27:01Z</time></trkpt><trkpt lat="32.6180198696" lon="35.1149654388"><ele>144.34</ele><time>2012-11-30T09:27:02Z</time></trkpt><trkpt lat="32.6180153433" lon="35.1149523631"><ele>144.82</ele><time>2012-11-30T09:27:03Z</time></trkpt><trkpt lat="32.6180114038" lon="35.1149377786"><ele>145.30</ele><time>2012-11-30T09:27:04Z</time></trkpt><trkpt lat="32.6180093084" lon="35.1149242837"><ele>144.82</ele><time>2012-11-30T09:27:05Z</time></trkpt><trkpt lat="32.6180060394" lon="35.1149107888"><ele>145.30</ele><time>2012-11-30T09:27:06Z</time></trkpt><trkpt lat="32.6180056203" lon="35.1148956176"><ele>144.82</ele><time>2012-11-30T09:27:07Z</time></trkpt><trkpt lat="32.6180062909" lon="35.1148789376"><ele>145.30</ele><time>2012-11-30T09:27:08Z</time></trkpt><trkpt lat="32.6180073805" lon="35.1148608327"><ele>145.30</ele><time>2012-11-30T09:27:09Z</time></trkpt><trkpt lat="32.6180084702" lon="35.1148435660"><ele>145.30</ele><time>2012-11-30T09:27:10Z</time></trkpt><trkpt lat="32.6180089731" lon="35.1148262993"><ele>145.78</ele><time>2012-11-30T09:27:11Z</time></trkpt><trkpt lat="32.6180042792" lon="35.1147404686"><ele>146.74</ele><time>2012-11-30T09:27:18Z</time></trkpt><trkpt lat="32.6180109847" lon="35.1147217769"><ele>146.74</ele><time>2012-11-30T09:27:19Z</time></trkpt><trkpt lat="32.6180141699" lon="35.1147035882"><ele>146.74</ele><time>2012-11-30T09:27:20Z</time></trkpt><trkpt lat="32.6179990824" lon="35.1144131552"><ele>149.14</ele><time>2012-11-30T09:27:38Z</time></trkpt><trkpt lat="32.6180004235" lon="35.1143978164"><ele>149.62</ele><time>2012-11-30T09:27:39Z</time></trkpt><trkpt lat="32.6180000044" lon="35.1143827289"><ele>149.62</ele><time>2012-11-30T09:27:40Z</time></trkpt><trkpt lat="32.6179907843" lon="35.1142633706"><ele>151.06</ele><time>2012-11-30T09:27:48Z</time></trkpt><trkpt lat="32.6179564185" lon="35.1140171941"><ele>152.99</ele><time>2012-11-30T09:28:03Z</time></trkpt><trkpt lat="32.6179342065" lon="35.1139512286"><ele>152.99</ele><time>2012-11-30T09:28:08Z</time></trkpt><trkpt lat="32.6178492140" lon="35.1137585286"><ele>155.87</ele><time>2012-11-30T09:28:25Z</time></trkpt><trkpt lat="32.6178404130" lon="35.1137001906"><ele>156.35</ele><time>2012-11-30T09:28:30Z</time></trkpt><trkpt lat="32.6178425923" lon="35.1135636494"><ele>157.31</ele><time>2012-11-30T09:28:40Z</time></trkpt><trkpt lat="32.6178627927" lon="35.1133438759"><ele>159.24</ele><time>2012-11-30T09:28:54Z</time></trkpt><trkpt lat="32.6178881899" lon="35.1132136211"><ele>160.20</ele><time>2012-11-30T09:29:02Z</time></trkpt><trkpt lat="32.6178897824" lon="35.1131959353"><ele>160.68</ele><time>2012-11-30T09:29:03Z</time></trkpt><trkpt lat="32.6179404091" lon="35.1130004693"><ele>162.60</ele><time>2012-11-30T09:29:17Z</time></trkpt><trkpt lat="32.6179681532" lon="35.1128485054"><ele>164.04</ele><time>2012-11-30T09:29:29Z</time></trkpt><trkpt lat="32.6179770380" lon="35.1126916800"><ele>166.45</ele><time>2012-11-30T09:29:41Z</time></trkpt><trkpt lat="32.6179802231" lon="35.1125453319"><ele>168.37</ele><time>2012-11-30T09:29:54Z</time></trkpt><trkpt lat="32.6179943047" lon="35.1123871654"><ele>169.81</ele><time>2012-11-30T09:30:07Z</time></trkpt><trkpt lat="32.6179833245" lon="35.1122137439"><ele>172.21</ele><time>2012-11-30T09:30:22Z</time></trkpt><trkpt lat="32.6179754455" lon="35.1121014263"><ele>173.17</ele><time>2012-11-30T09:30:31Z</time></trkpt><trkpt lat="32.6179741044" lon="35.1120627858"><ele>173.17</ele><time>2012-11-30T09:30:34Z</time></trkpt><trkpt lat="32.6179681532" lon="35.1120057888"><ele>173.66</ele><time>2012-11-30T09:30:39Z</time></trkpt><trkpt lat="32.6179715060" lon="35.1119933836"><ele>173.66</ele><time>2012-11-30T09:30:40Z</time></trkpt><trkpt lat="32.6179953106" lon="35.1118140109"><ele>175.58</ele><time>2012-11-30T09:30:54Z</time></trkpt><trkpt lat="32.6179937180" lon="35.1117893681"><ele>176.06</ele><time>2012-11-30T09:30:56Z</time></trkpt><trkpt lat="32.6179920416" lon="35.1117617916"><ele>176.54</ele><time>2012-11-30T09:30:58Z</time></trkpt><trkpt lat="32.6180145890" lon="35.1116492227"><ele>177.50</ele><time>2012-11-30T09:31:08Z</time></trkpt><trkpt lat="32.6180329453" lon="35.1116017811"><ele>177.98</ele><time>2012-11-30T09:31:13Z</time></trkpt><trkpt lat="32.6180378068" lon="35.1115892921"><ele>177.98</ele><time>2012-11-30T09:31:14Z</time></trkpt><trkpt lat="32.6180452667" lon="35.1115520764"><ele>178.46</ele><time>2012-11-30T09:31:17Z</time></trkpt><trkpt lat="32.6180502959" lon="35.1115381625"><ele>178.46</ele><time>2012-11-30T09:31:18Z</time></trkpt><trkpt lat="32.6180555765" lon="35.1114970911"><ele>178.94</ele><time>2012-11-30T09:31:21Z</time></trkpt><trkpt lat="32.6180750225" lon="35.1114521641"><ele>179.42</ele><time>2012-11-30T09:31:25Z</time></trkpt><trkpt lat="32.6180790458" lon="35.1114394236"><ele>179.90</ele><time>2012-11-30T09:31:26Z</time></trkpt><trkpt lat="32.6180825662" lon="35.1114271861"><ele>179.90</ele><time>2012-11-30T09:31:27Z</time></trkpt><trkpt lat="32.6180868410" lon="35.1114162896"><ele>179.90</ele><time>2012-11-30T09:31:28Z</time></trkpt><trkpt lat="32.6180931274" lon="35.1114041358"><ele>180.38</ele><time>2012-11-30T09:31:29Z</time></trkpt><trkpt lat="32.6181163453" lon="35.1113134436"><ele>181.83</ele><time>2012-11-30T09:31:37Z</time></trkpt><trkpt lat="32.6181349531" lon="35.1112721208"><ele>182.31</ele><time>2012-11-30T09:31:41Z</time></trkpt><trkpt lat="32.6181861665" lon="35.1110776607"><ele>183.75</ele><time>2012-11-30T09:31:56Z</time></trkpt><trkpt lat="32.6182125695" lon="35.1108896546"><ele>186.15</ele><time>2012-11-30T09:32:11Z</time></trkpt><trkpt lat="32.6182437502" lon="35.1108163968"><ele>186.63</ele><time>2012-11-30T09:32:17Z</time></trkpt><trkpt lat="32.6182454266" lon="35.1108039077"><ele>187.11</ele><time>2012-11-30T09:32:18Z</time></trkpt><trkpt lat="32.6182509586" lon="35.1107904129"><ele>187.11</ele><time>2012-11-30T09:32:19Z</time></trkpt><trkpt lat="32.6182565745" lon="35.1107775047"><ele>187.59</ele><time>2012-11-30T09:32:20Z</time></trkpt><trkpt lat="32.6182644535" lon="35.1107675303"><ele>187.59</ele><time>2012-11-30T09:32:21Z</time></trkpt><trkpt lat="32.6182723325" lon="35.1107557118"><ele>187.59</ele><time>2012-11-30T09:32:22Z</time></trkpt><trkpt lat="32.6182776131" lon="35.1107420493"><ele>187.59</ele><time>2012-11-30T09:32:23Z</time></trkpt><trkpt lat="32.6182833128" lon="35.1107309014"><ele>187.59</ele><time>2012-11-30T09:32:24Z</time></trkpt><trkpt lat="32.6182910241" lon="35.1107203402"><ele>188.08</ele><time>2012-11-30T09:32:25Z</time></trkpt><trkpt lat="32.6183320116" lon="35.1106997207"><ele>188.56</ele><time>2012-11-30T09:32:29Z</time></trkpt><trkpt lat="32.6183459256" lon="35.1107065938"><ele>188.56</ele><time>2012-11-30T09:32:30Z</time></trkpt><trkpt lat="32.6183590852" lon="35.1107164845"><ele>188.56</ele><time>2012-11-30T09:32:31Z</time></trkpt><trkpt lat="32.6183697302" lon="35.1107257884"><ele>188.56</ele><time>2012-11-30T09:32:32Z</time></trkpt><trkpt lat="32.6183807105" lon="35.1107340027"><ele>189.04</ele><time>2012-11-30T09:32:33Z</time></trkpt><trkpt lat="32.6183885895" lon="35.1107495930"><ele>189.04</ele><time>2012-11-30T09:32:34Z</time></trkpt><trkpt lat="32.6184118912" lon="35.1108084340"><ele>189.04</ele><time>2012-11-30T09:32:38Z</time></trkpt><trkpt lat="32.6184135675" lon="35.1108258683"><ele>189.04</ele><time>2012-11-30T09:32:39Z</time></trkpt><trkpt lat="32.6184124779" lon="35.1108460687"><ele>189.04</ele><time>2012-11-30T09:32:40Z</time></trkpt><trkpt lat="32.6184123103" lon="35.1108639222"><ele>189.04</ele><time>2012-11-30T09:32:41Z</time></trkpt><trkpt lat="32.6184305828" lon="35.1110199094"><ele>190.48</ele><time>2012-11-30T09:32:54Z</time></trkpt><trkpt lat="32.6184722409" lon="35.1111627370"><ele>190.96</ele><time>2012-11-30T09:33:08Z</time></trkpt><trkpt lat="32.6184870768" lon="35.1113748830"><ele>191.44</ele><time>2012-11-30T09:33:22Z</time></trkpt><trkpt lat="32.6185092889" lon="35.1116167847"><ele>191.92</ele><time>2012-11-30T09:33:38Z</time></trkpt><trkpt lat="32.6184982248" lon="35.1117166970"><ele>192.40</ele><time>2012-11-30T09:33:43Z</time></trkpt><trkpt lat="32.6185490191" lon="35.1119195390"><ele>192.40</ele><time>2012-11-30T09:33:55Z</time></trkpt><trkpt lat="32.6185763441" lon="35.1119990833"><ele>192.40</ele><time>2012-11-30T09:34:01Z</time></trkpt><trkpt lat="32.6185913477" lon="35.1120232232"><ele>192.88</ele><time>2012-11-30T09:34:03Z</time></trkpt><trkpt lat="32.6187206805" lon="35.1123024244"><ele>193.36</ele><time>2012-11-30T09:34:22Z</time></trkpt><trkpt lat="32.6187281404" lon="35.1123191044"><ele>193.36</ele><time>2012-11-30T09:34:23Z</time></trkpt><trkpt lat="32.6187375281" lon="35.1123353653"><ele>193.36</ele><time>2012-11-30T09:34:24Z</time></trkpt><trkpt lat="32.6187475026" lon="35.1123494469"><ele>193.36</ele><time>2012-11-30T09:34:25Z</time></trkpt><trkpt lat="32.6187600754" lon="35.1123612653"><ele>193.36</ele><time>2012-11-30T09:34:26Z</time></trkpt><trkpt lat="32.6189187448" lon="35.1125619281"><ele>193.84</ele><time>2012-11-30T09:34:41Z</time></trkpt><trkpt lat="32.6190842036" lon="35.1125532109"><ele>194.32</ele><time>2012-11-30T09:34:54Z</time></trkpt><trkpt lat="32.6191186532" lon="35.1125686336"><ele>194.32</ele><time>2012-11-30T09:35:06Z</time></trkpt><trkpt lat="32.6191235986" lon="35.1125622634"><ele>193.84</ele><time>2012-11-30T09:35:30Z</time></trkpt><trkpt lat="32.6191349141" lon="35.1125521213"><ele>194.80</ele><time>2012-11-30T09:36:03Z</time></trkpt><trkpt lat="32.6191657595" lon="35.1125783566"><ele>194.32</ele><time>2012-11-30T09:36:14Z</time></trkpt><trkpt lat="32.6191734709" lon="35.1125925221"><ele>193.84</ele><time>2012-11-30T09:36:15Z</time></trkpt><trkpt lat="32.6191755664" lon="35.1126103755"><ele>193.84</ele><time>2012-11-30T09:36:16Z</time></trkpt><trkpt lat="32.6191802602" lon="35.1126334257"><ele>192.88</ele><time>2012-11-30T09:36:17Z</time></trkpt><trkpt lat="32.6191769075" lon="35.1126634330"><ele>192.88</ele><time>2012-11-30T09:36:18Z</time></trkpt><trkpt lat="32.6191682741" lon="35.1126919314"><ele>192.40</ele><time>2012-11-30T09:36:19Z</time></trkpt><trkpt lat="32.6191546116" lon="35.1127209328"><ele>192.40</ele><time>2012-11-30T09:36:20Z</time></trkpt><trkpt lat="32.6191133726" lon="35.1127708051"><ele>192.40</ele><time>2012-11-30T09:36:21Z</time></trkpt><trkpt lat="32.6190851256" lon="35.1128148101"><ele>191.92</ele><time>2012-11-30T09:36:22Z</time></trkpt><trkpt lat="32.6189750712" lon="35.1130143832"><ele>190.48</ele><time>2012-11-30T09:36:26Z</time></trkpt><trkpt lat="32.6189594809" lon="35.1130658481"><ele>190.00</ele><time>2012-11-30T09:36:27Z</time></trkpt><trkpt lat="32.6189425495" lon="35.1131698675"><ele>189.52</ele><time>2012-11-30T09:36:29Z</time></trkpt><trkpt lat="32.6189487521" lon="35.1132261101"><ele>189.04</ele><time>2012-11-30T09:36:30Z</time></trkpt><trkpt lat="32.6189621631" lon="35.1132815145"><ele>188.56</ele><time>2012-11-30T09:36:31Z</time></trkpt><trkpt lat="32.6189852133" lon="35.1133347396"><ele>188.08</ele><time>2012-11-30T09:36:32Z</time></trkpt><trkpt lat="32.6190162264" lon="35.1133845281"><ele>188.08</ele><time>2012-11-30T09:36:33Z</time></trkpt><trkpt lat="32.6190541964" lon="35.1134335622"><ele>187.11</ele><time>2012-11-30T09:36:34Z</time></trkpt><trkpt lat="32.6190963574" lon="35.1134818420"><ele>187.11</ele><time>2012-11-30T09:36:35Z</time></trkpt><trkpt lat="32.6195104234" lon="35.1139113307"><ele>186.15</ele><time>2012-11-30T09:36:47Z</time></trkpt><trkpt lat="32.6196699310" lon="35.1140996721"><ele>184.23</ele><time>2012-11-30T09:37:00Z</time></trkpt><trkpt lat="32.6196835097" lon="35.1141010132"><ele>184.23</ele><time>2012-11-30T09:37:28Z</time></trkpt><trkpt lat="32.6196844317" lon="35.1141118258"><ele>184.23</ele><time>2012-11-30T09:37:53Z</time></trkpt><trkpt lat="32.6196956635" lon="35.1141242310"><ele>184.23</ele><time>2012-11-30T09:37:54Z</time></trkpt><trkpt lat="32.6197070628" lon="35.1141376421"><ele>183.75</ele><time>2012-11-30T09:37:55Z</time></trkpt><trkpt lat="32.6199646387" lon="35.1143113151"><ele>182.31</ele><time>2012-11-30T09:38:05Z</time></trkpt><trkpt lat="32.6201873459" lon="35.1143083815"><ele>184.71</ele><time>2012-11-30T09:38:19Z</time></trkpt><trkpt lat="32.6204707380" lon="35.1142953895"><ele>186.63</ele><time>2012-11-30T09:38:35Z</time></trkpt><trkpt lat="32.6206914335" lon="35.1143408194"><ele>187.59</ele><time>2012-11-30T09:38:47Z</time></trkpt><trkpt lat="32.6207040064" lon="35.1143450104"><ele>188.08</ele><time>2012-11-30T09:38:48Z</time></trkpt><trkpt lat="32.6207188424" lon="35.1143507101"><ele>187.59</ele><time>2012-11-30T09:38:49Z</time></trkpt><trkpt lat="32.6209401246" lon="35.1143721677"><ele>190.00</ele><time>2012-11-30T09:39:02Z</time></trkpt><trkpt lat="32.6210454851" lon="35.1143316831"><ele>190.48</ele><time>2012-11-30T09:39:10Z</time></trkpt><trkpt lat="32.6210557111" lon="35.1143170986"><ele>190.48</ele><time>2012-11-30T09:39:11Z</time></trkpt><trkpt lat="32.6210663561" lon="35.1143027656"><ele>190.48</ele><time>2012-11-30T09:39:12Z</time></trkpt><trkpt lat="32.6210773364" lon="35.1142916176"><ele>190.48</ele><time>2012-11-30T09:39:13Z</time></trkpt><trkpt lat="32.6210891549" lon="35.1142813917"><ele>190.48</ele><time>2012-11-30T09:39:14Z</time></trkpt><trkpt lat="32.6211014763" lon="35.1142751053"><ele>190.96</ele><time>2012-11-30T09:39:15Z</time></trkpt><trkpt lat="32.6211139653" lon="35.1142696571"><ele>190.96</ele><time>2012-11-30T09:39:16Z</time></trkpt><trkpt lat="32.6211277954" lon="35.1142616943"><ele>190.96</ele><time>2012-11-30T09:39:17Z</time></trkpt><trkpt lat="32.6211396139" lon="35.1142516360"><ele>190.96</ele><time>2012-11-30T09:39:18Z</time></trkpt><trkpt lat="32.6211511809" lon="35.1142403204"><ele>190.96</ele><time>2012-11-30T09:39:19Z</time></trkpt><trkpt lat="32.6211816072" lon="35.1142040268"><ele>190.96</ele><time>2012-11-30T09:39:32Z</time></trkpt><trkpt lat="32.6211935934" lon="35.1141896099"><ele>190.00</ele><time>2012-11-30T09:40:00Z</time></trkpt><trkpt lat="32.6211881451" lon="35.1141697448"><ele>190.96</ele><time>2012-11-30T09:40:24Z</time></trkpt><trkpt lat="32.6212076750" lon="35.1141534839"><ele>191.44</ele><time>2012-11-30T09:40:55Z</time></trkpt><trkpt lat="32.6212066691" lon="35.1141533162"><ele>190.96</ele><time>2012-11-30T09:41:22Z</time></trkpt><trkpt lat="32.6212111954" lon="35.1141806412"><ele>191.44</ele><time>2012-11-30T09:41:46Z</time></trkpt><trkpt lat="32.6212150510" lon="35.1141881011"><ele>191.44</ele><time>2012-11-30T09:42:12Z</time></trkpt><trkpt lat="32.6212176494" lon="35.1141946390"><ele>191.44</ele><time>2012-11-30T09:42:17Z</time></trkpt><trkpt lat="32.6212283783" lon="35.1141911186"><ele>191.44</ele><time>2012-11-30T09:42:18Z</time></trkpt><trkpt lat="32.6212420408" lon="35.1141881850"><ele>191.44</ele><time>2012-11-30T09:42:19Z</time></trkpt><trkpt lat="32.6212551165" lon="35.1141820662"><ele>191.44</ele><time>2012-11-30T09:42:20Z</time></trkpt><trkpt lat="32.6212659292" lon="35.1141720917"><ele>191.44</ele><time>2012-11-30T09:42:21Z</time></trkpt><trkpt lat="32.6215927396" lon="35.1139684115"><ele>189.04</ele><time>2012-11-30T09:42:31Z</time></trkpt><trkpt lat="32.6217053924" lon="35.1139083132"><ele>188.08</ele><time>2012-11-30T09:42:33Z</time></trkpt><trkpt lat="32.6219477970" lon="35.1138191298"><ele>183.75</ele><time>2012-11-30T09:42:37Z</time></trkpt><trkpt lat="32.6220645569" lon="35.1137981750"><ele>181.83</ele><time>2012-11-30T09:42:39Z</time></trkpt><trkpt lat="32.6221134234" lon="35.1137911342"><ele>181.35</ele><time>2012-11-30T09:42:40Z</time></trkpt><trkpt lat="32.6223253179" lon="35.1137675811"><ele>177.50</ele><time>2012-11-30T09:42:45Z</time></trkpt><trkpt lat="32.6224294212" lon="35.1137363166"><ele>174.14</ele><time>2012-11-30T09:42:49Z</time></trkpt><trkpt lat="32.6224748511" lon="35.1136835944"><ele>173.17</ele><time>2012-11-30T09:42:54Z</time></trkpt><trkpt lat="32.6224885974" lon="35.1136742905"><ele>173.17</ele><time>2012-11-30T09:42:55Z</time></trkpt><trkpt lat="32.6225022599" lon="35.1136669144"><ele>173.17</ele><time>2012-11-30T09:42:56Z</time></trkpt><trkpt lat="32.6225138269" lon="35.1136604603"><ele>173.17</ele><time>2012-11-30T09:42:57Z</time></trkpt><trkpt lat="32.6225266512" lon="35.1136543415"><ele>173.66</ele><time>2012-11-30T09:42:58Z</time></trkpt><trkpt lat="32.6225430798" lon="35.1136462111"><ele>173.17</ele><time>2012-11-30T09:42:59Z</time></trkpt><trkpt lat="32.6225583348" lon="35.1136386674"><ele>172.69</ele><time>2012-11-30T09:43:00Z</time></trkpt><trkpt lat="32.6225716621" lon="35.1136278547"><ele>173.66</ele><time>2012-11-30T09:43:01Z</time></trkpt><trkpt lat="32.6228067745" lon="35.1135051437"><ele>173.66</ele><time>2012-11-30T09:43:15Z</time></trkpt><trkpt lat="32.6230759174" lon="35.1133750565"><ele>174.14</ele><time>2012-11-30T09:43:29Z</time></trkpt><trkpt lat="32.6232956909" lon="35.1132324804"><ele>174.14</ele><time>2012-11-30T09:43:40Z</time></trkpt><trkpt lat="32.6236768998" lon="35.1128537022"><ele>173.17</ele><time>2012-11-30T09:43:53Z</time></trkpt><trkpt lat="32.6238572784" lon="35.1125190128"><ele>171.25</ele><time>2012-11-30T09:43:59Z</time></trkpt><trkpt lat="32.6238847710" lon="35.1124534663"><ele>171.73</ele><time>2012-11-30T09:44:00Z</time></trkpt><trkpt lat="32.6239070669" lon="35.1123818010"><ele>170.77</ele><time>2012-11-30T09:44:01Z</time></trkpt><trkpt lat="32.6239390858" lon="35.1121784560"><ele>170.29</ele><time>2012-11-30T09:44:04Z</time></trkpt><trkpt lat="32.6239286922" lon="35.1120052859"><ele>170.29</ele><time>2012-11-30T09:44:07Z</time></trkpt><trkpt lat="32.6237157919" lon="35.1116040442"><ele>169.81</ele><time>2012-11-30T09:44:19Z</time></trkpt><trkpt lat="32.6234147977" lon="35.1113707758"><ele>170.77</ele><time>2012-11-30T09:44:33Z</time></trkpt><trkpt lat="32.6233748160" lon="35.1113449596"><ele>171.25</ele><time>2012-11-30T09:44:36Z</time></trkpt><trkpt lat="32.6232184097" lon="35.1112421136"><ele>171.25</ele><time>2012-11-30T09:44:51Z</time></trkpt><trkpt lat="32.6231748238" lon="35.1112062391"><ele>170.77</ele><time>2012-11-30T09:45:06Z</time></trkpt><trkpt lat="32.6231722254" lon="35.1111697778"><ele>170.77</ele><time>2012-11-30T09:45:28Z</time></trkpt><trkpt lat="32.6231693756" lon="35.1111223362"><ele>170.77</ele><time>2012-11-30T09:45:47Z</time></trkpt><trkpt lat="32.6232738979" lon="35.1111538522"><ele>168.37</ele><time>2012-11-30T09:45:55Z</time></trkpt><trkpt lat="32.6234158874" lon="35.1112131961"><ele>165.00</ele><time>2012-11-30T09:46:03Z</time></trkpt><trkpt lat="32.6234581321" lon="35.1112159621"><ele>162.60</ele><time>2012-11-30T09:46:14Z</time></trkpt><trkpt lat="32.6234819368" lon="35.1112463046"><ele>162.60</ele><time>2012-11-30T09:46:22Z</time></trkpt><trkpt lat="32.6234943420" lon="35.1112562791"><ele>162.60</ele><time>2012-11-30T09:46:23Z</time></trkpt><trkpt lat="32.6235047355" lon="35.1112665888"><ele>162.12</ele><time>2012-11-30T09:46:24Z</time></trkpt><trkpt lat="32.6235236786" lon="35.1112730429"><ele>162.12</ele><time>2012-11-30T09:46:25Z</time></trkpt><trkpt lat="32.6235423703" lon="35.1112717018"><ele>161.64</ele><time>2012-11-30T09:46:26Z</time></trkpt><trkpt lat="32.6235609781" lon="35.1112656668"><ele>161.64</ele><time>2012-11-30T09:46:27Z</time></trkpt><trkpt lat="32.6235748921" lon="35.1112555247"><ele>161.16</ele><time>2012-11-30T09:46:28Z</time></trkpt><trkpt lat="32.6235886384" lon="35.1112398505"><ele>160.68</ele><time>2012-11-30T09:46:29Z</time></trkpt><trkpt lat="32.6236037258" lon="35.1112256013"><ele>160.68</ele><time>2012-11-30T09:46:30Z</time></trkpt><trkpt lat="32.6236199867" lon="35.1112131961"><ele>160.68</ele><time>2012-11-30T09:46:31Z</time></trkpt><trkpt lat="32.6236328110" lon="35.1112021320"><ele>160.68</ele><time>2012-11-30T09:46:32Z</time></trkpt><trkpt lat="32.6237047277" lon="35.1111758966"><ele>160.20</ele><time>2012-11-30T09:46:36Z</time></trkpt><trkpt lat="32.6240110025" lon="35.1111908164"><ele>157.79</ele><time>2012-11-30T09:46:49Z</time></trkpt><trkpt lat="32.6241990924" lon="35.1112099271"><ele>156.35</ele><time>2012-11-30T09:46:53Z</time></trkpt><trkpt lat="32.6243045367" lon="35.1112351567"><ele>155.87</ele><time>2012-11-30T09:46:55Z</time></trkpt><trkpt lat="32.6247755159" lon="35.1113229990"><ele>153.95</ele><time>2012-11-30T09:47:04Z</time></trkpt><trkpt lat="32.6248227060" lon="35.1113281120"><ele>152.99</ele><time>2012-11-30T09:47:05Z</time></trkpt><trkpt lat="32.6248720754" lon="35.1113340631"><ele>152.99</ele><time>2012-11-30T09:47:06Z</time></trkpt><trkpt lat="32.6249665394" lon="35.1113364939"><ele>152.03</ele><time>2012-11-30T09:47:08Z</time></trkpt><trkpt lat="32.6250144839" lon="35.1113304589"><ele>151.54</ele><time>2012-11-30T09:47:09Z</time></trkpt><trkpt lat="32.6250625122" lon="35.1113205682"><ele>151.54</ele><time>2012-11-30T09:47:10Z</time></trkpt><trkpt lat="32.6251055114" lon="35.1113077439"><ele>151.54</ele><time>2012-11-30T09:47:11Z</time></trkpt><trkpt lat="32.6251493488" lon="35.1112945005"><ele>151.06</ele><time>2012-11-30T09:47:12Z</time></trkpt><trkpt lat="32.6257300470" lon="35.1109954342"><ele>148.66</ele><time>2012-11-30T09:47:23Z</time></trkpt><trkpt lat="32.6259166282" lon="35.1107667759"><ele>148.66</ele><time>2012-11-30T09:47:28Z</time></trkpt><trkpt lat="32.6259385049" lon="35.1107236929"><ele>148.18</ele><time>2012-11-30T09:47:29Z</time></trkpt><trkpt lat="32.6261095796" lon="35.1102687232"><ele>148.18</ele><time>2012-11-30T09:47:41Z</time></trkpt><trkpt lat="32.6262018643" lon="35.1097402442"><ele>149.62</ele><time>2012-11-30T09:47:55Z</time></trkpt><trkpt lat="32.6263238210" lon="35.1093025412"><ele>151.06</ele><time>2012-11-30T09:48:07Z</time></trkpt><trkpt lat="32.6263699215" lon="35.1089183986"><ele>152.51</ele><time>2012-11-30T09:48:20Z</time></trkpt><trkpt lat="32.6263436023" lon="35.1085143909"><ele>154.43</ele><time>2012-11-30T09:48:33Z</time></trkpt><trkpt lat="32.6261878666" lon="35.1081209444"><ele>156.35</ele><time>2012-11-30T09:48:49Z</time></trkpt><trkpt lat="32.6260509063" lon="35.1078796294"><ele>158.27</ele><time>2012-11-30T09:49:03Z</time></trkpt><trkpt lat="32.6260397583" lon="35.1078648772"><ele>158.27</ele><time>2012-11-30T09:49:04Z</time></trkpt><trkpt lat="32.6260294486" lon="35.1078512985"><ele>158.27</ele><time>2012-11-30T09:49:05Z</time></trkpt><trkpt lat="32.6260197256" lon="35.1078383904"><ele>158.27</ele><time>2012-11-30T09:49:06Z</time></trkpt><trkpt lat="32.6260118466" lon="35.1078243926"><ele>158.27</ele><time>2012-11-30T09:49:07Z</time></trkpt><trkpt lat="32.6260043029" lon="35.1078093890"><ele>158.27</ele><time>2012-11-30T09:49:08Z</time></trkpt><trkpt lat="32.6259965077" lon="35.1077946369"><ele>158.27</ele><time>2012-11-30T09:49:09Z</time></trkpt><trkpt lat="32.6259888802" lon="35.1077794656"><ele>158.75</ele><time>2012-11-30T09:49:10Z</time></trkpt><trkpt lat="32.6259826776" lon="35.1077627018"><ele>159.24</ele><time>2012-11-30T09:49:11Z</time></trkpt><trkpt lat="32.6259765588" lon="35.1077478658"><ele>158.75</ele><time>2012-11-30T09:49:12Z</time></trkpt><trkpt lat="32.6258849446" lon="35.1074870210"><ele>160.20</ele><time>2012-11-30T09:49:28Z</time></trkpt><trkpt lat="32.6259260997" lon="35.1074255817"><ele>159.72</ele><time>2012-11-30T09:49:34Z</time></trkpt><trkpt lat="32.6259411033" lon="35.1074384060"><ele>159.72</ele><time>2012-11-30T09:49:35Z</time></trkpt><trkpt lat="32.6259671710" lon="35.1074901223"><ele>158.75</ele><time>2012-11-30T09:49:47Z</time></trkpt><trkpt lat="32.6260383334" lon="35.1075171959"><ele>159.24</ele><time>2012-11-30T09:50:15Z</time></trkpt><trkpt lat="32.6260669157" lon="35.1075000968"><ele>159.24</ele><time>2012-11-30T09:50:43Z</time></trkpt><trkpt lat="32.6260785665" lon="35.1075163577"><ele>159.24</ele><time>2012-11-30T09:51:10Z</time></trkpt><trkpt lat="32.6261767186" lon="35.1075884420"><ele>157.31</ele><time>2012-11-30T09:51:19Z</time></trkpt><trkpt lat="32.6262172032" lon="35.1076261606"><ele>156.35</ele><time>2012-11-30T09:51:21Z</time></trkpt><trkpt lat="32.6262710989" lon="35.1077072136"><ele>152.99</ele><time>2012-11-30T09:51:25Z</time></trkpt><trkpt lat="32.6263410877" lon="35.1077952236"><ele>149.14</ele><time>2012-11-30T09:51:29Z</time></trkpt><trkpt lat="32.6264363900" lon="35.1079042722"><ele>146.26</ele><time>2012-11-30T09:51:34Z</time></trkpt><trkpt lat="32.6264487114" lon="35.1079202816"><ele>145.30</ele><time>2012-11-30T09:51:35Z</time></trkpt><trkpt lat="32.6264595240" lon="35.1079355367"><ele>144.82</ele><time>2012-11-30T09:51:36Z</time></trkpt><trkpt lat="32.6264690794" lon="35.1079487801"><ele>144.34</ele><time>2012-11-30T09:51:37Z</time></trkpt><trkpt lat="32.6264783833" lon="35.1079594251"><ele>143.85</ele><time>2012-11-30T09:51:38Z</time></trkpt><trkpt lat="32.6264825743" lon="35.1079720818"><ele>143.37</ele><time>2012-11-30T09:51:39Z</time></trkpt><trkpt lat="32.6264860108" lon="35.1079908572"><ele>143.37</ele><time>2012-11-30T09:51:40Z</time></trkpt><trkpt lat="32.6264971588" lon="35.1080135722"><ele>142.41</ele><time>2012-11-30T09:51:41Z</time></trkpt><trkpt lat="32.6265122462" lon="35.1080340240"><ele>142.41</ele><time>2012-11-30T09:51:42Z</time></trkpt><trkpt lat="32.6266328618" lon="35.1081393007"><ele>139.05</ele><time>2012-11-30T09:51:47Z</time></trkpt><trkpt lat="32.6267361268" lon="35.1082327589"><ele>135.68</ele><time>2012-11-30T09:51:52Z</time></trkpt><trkpt lat="32.6267496217" lon="35.1082442421"><ele>135.68</ele><time>2012-11-30T09:51:53Z</time></trkpt><trkpt lat="32.6267709117" lon="35.1082641073"><ele>134.24</ele><time>2012-11-30T09:51:55Z</time></trkpt><trkpt lat="32.6267850772" lon="35.1082707290"><ele>134.24</ele><time>2012-11-30T09:51:56Z</time></trkpt><trkpt lat="32.6268801279" lon="35.1083573978"><ele>130.40</ele><time>2012-11-30T09:52:02Z</time></trkpt><trkpt lat="32.6269592531" lon="35.1084151492"><ele>127.03</ele><time>2012-11-30T09:52:07Z</time></trkpt><trkpt lat="32.6270601712" lon="35.1084922627"><ele>125.11</ele><time>2012-11-30T09:52:11Z</time></trkpt><trkpt lat="32.6271829661" lon="35.1086038258"><ele>120.78</ele><time>2012-11-30T09:52:16Z</time></trkpt><trkpt lat="32.6272750832" lon="35.1086824480"><ele>117.90</ele><time>2012-11-30T09:52:20Z</time></trkpt><trkpt lat="32.6273050066" lon="35.1086737309"><ele>117.42</ele><time>2012-11-30T09:52:21Z</time></trkpt><trkpt lat="32.6273314934" lon="35.1086526923"><ele>116.46</ele><time>2012-11-30T09:52:22Z</time></trkpt><trkpt lat="32.6273536216" lon="35.1086260378"><ele>116.94</ele><time>2012-11-30T09:52:23Z</time></trkpt><trkpt lat="32.6273733191" lon="35.1086001378"><ele>116.94</ele><time>2012-11-30T09:52:24Z</time></trkpt><trkpt lat="32.6273913402" lon="35.1085713040"><ele>116.46</ele><time>2012-11-30T09:52:25Z</time></trkpt><trkpt lat="32.6274101995" lon="35.1085414644"><ele>116.46</ele><time>2012-11-30T09:52:26Z</time></trkpt><trkpt lat="32.6277639158" lon="35.1081180107"><ele>115.98</ele><time>2012-11-30T09:52:42Z</time></trkpt><trkpt lat="32.6279960107" lon="35.1078850776"><ele>116.46</ele><time>2012-11-30T09:52:55Z</time></trkpt><trkpt lat="32.6282105874" lon="35.1076176949"><ele>117.42</ele><time>2012-11-30T09:53:11Z</time></trkpt><trkpt lat="32.6283935644" lon="35.1073924731"><ele>117.42</ele><time>2012-11-30T09:53:24Z</time></trkpt><trkpt lat="32.6286367234" lon="35.1073638070"><ele>116.94</ele><time>2012-11-30T09:53:39Z</time></trkpt><trkpt lat="32.6287196204" lon="35.1074428484"><ele>117.90</ele><time>2012-11-30T09:53:46Z</time></trkpt><trkpt lat="32.6287217997" lon="35.1074575167"><ele>117.90</ele><time>2012-11-30T09:53:47Z</time></trkpt><trkpt lat="32.6287192013" lon="35.1074728556"><ele>117.90</ele><time>2012-11-30T09:53:48Z</time></trkpt><trkpt lat="32.6287113223" lon="35.1074834168"><ele>117.90</ele><time>2012-11-30T09:53:49Z</time></trkpt><trkpt lat="32.6286924630" lon="35.1074963249"><ele>117.90</ele><time>2012-11-30T09:54:03Z</time></trkpt><trkpt lat="32.6286699157" lon="35.1075263321"><ele>117.42</ele><time>2012-11-30T09:54:34Z</time></trkpt><trkpt lat="32.6286554988" lon="35.1075146813"><ele>118.38</ele><time>2012-11-30T09:55:12Z</time></trkpt><trkpt lat="32.6287062094" lon="35.1075005159"><ele>118.38</ele><time>2012-11-30T09:55:51Z</time></trkpt><trkpt lat="32.6287126634" lon="35.1074959058"><ele>118.38</ele><time>2012-11-30T09:56:24Z</time></trkpt><trkpt lat="32.6287459396" lon="35.1075120829"><ele>118.38</ele><time>2012-11-30T09:56:34Z</time></trkpt><trkpt lat="32.6287561655" lon="35.1075193752"><ele>119.34</ele><time>2012-11-30T09:56:35Z</time></trkpt><trkpt lat="32.6287652180" lon="35.1075275894"><ele>119.34</ele><time>2012-11-30T09:56:36Z</time></trkpt><trkpt lat="32.6287725102" lon="35.1075361390"><ele>118.38</ele><time>2012-11-30T09:56:37Z</time></trkpt><trkpt lat="32.6288222149" lon="35.1075575966"><ele>119.34</ele><time>2012-11-30T09:56:50Z</time></trkpt><trkpt lat="32.6288811397" lon="35.1076335367"><ele>119.82</ele><time>2012-11-30T09:57:07Z</time></trkpt><trkpt lat="32.6291285735" lon="35.1075992547"><ele>120.30</ele><time>2012-11-30T09:57:19Z</time></trkpt><trkpt lat="32.6292680483" lon="35.1071763877"><ele>121.74</ele><time>2012-11-30T09:57:35Z</time></trkpt><trkpt lat="32.6292872429" lon="35.1065997966"><ele>121.26</ele><time>2012-11-30T09:57:54Z</time></trkpt><trkpt lat="32.6292242948" lon="35.1060370356"><ele>120.30</ele><time>2012-11-30T09:58:09Z</time></trkpt><trkpt lat="32.6290102210" lon="35.1055922918"><ele>121.74</ele><time>2012-11-30T09:58:27Z</time></trkpt><trkpt lat="32.6288875099" lon="35.1051977556"><ele>122.22</ele><time>2012-11-30T09:58:40Z</time></trkpt><trkpt lat="32.6287611946" lon="35.1047751401"><ele>123.67</ele><time>2012-11-30T09:58:56Z</time></trkpt><trkpt lat="32.6285764575" lon="35.1043666899"><ele>124.63</ele><time>2012-11-30T09:59:16Z</time></trkpt><trkpt lat="32.6284857653" lon="35.1040962059"><ele>126.55</ele><time>2012-11-30T09:59:33Z</time></trkpt><trkpt lat="32.6284454484" lon="35.1039078645"><ele>127.99</ele><time>2012-11-30T09:59:45Z</time></trkpt><trkpt lat="32.6284426823" lon="35.1038947050"><ele>127.99</ele><time>2012-11-30T09:59:46Z</time></trkpt><trkpt lat="32.6284405030" lon="35.1038797852"><ele>127.99</ele><time>2012-11-30T09:59:47Z</time></trkpt><trkpt lat="32.6284399163" lon="35.1038632728"><ele>128.47</ele><time>2012-11-30T09:59:48Z</time></trkpt><trkpt lat="32.6284378208" lon="35.1038428210"><ele>128.47</ele><time>2012-11-30T09:59:49Z</time></trkpt><trkpt lat="32.6284349710" lon="35.1038208604"><ele>128.95</ele><time>2012-11-30T09:59:50Z</time></trkpt><trkpt lat="32.6284320373" lon="35.1038000733"><ele>129.43</ele><time>2012-11-30T09:59:51Z</time></trkpt><trkpt lat="32.6284285169" lon="35.1037792861"><ele>129.92</ele><time>2012-11-30T09:59:52Z</time></trkpt><trkpt lat="32.6284279302" lon="35.1037590858"><ele>129.43</ele><time>2012-11-30T09:59:53Z</time></trkpt><trkpt lat="32.6284266729" lon="35.1037398074"><ele>129.92</ele><time>2012-11-30T09:59:54Z</time></trkpt><trkpt lat="32.6284287684" lon="35.1037205290"><ele>129.43</ele><time>2012-11-30T09:59:55Z</time></trkpt><trkpt lat="32.6284316182" lon="35.1037005801"><ele>129.92</ele><time>2012-11-30T09:59:56Z</time></trkpt><trkpt lat="32.6284270920" lon="35.1034658868"><ele>131.84</ele><time>2012-11-30T10:00:09Z</time></trkpt><trkpt lat="32.6284377370" lon="35.1031343825"><ele>133.28</ele><time>2012-11-30T10:00:23Z</time></trkpt><trkpt lat="32.6284489688" lon="35.1026361622"><ele>134.72</ele><time>2012-11-30T10:00:41Z</time></trkpt><trkpt lat="32.6284404192" lon="35.1020102855"><ele>134.72</ele><time>2012-11-30T10:00:59Z</time></trkpt><trkpt lat="32.6284727734" lon="35.1019968744"><ele>134.72</ele><time>2012-11-30T10:01:00Z</time></trkpt><trkpt lat="32.6285069715" lon="35.1019899175"><ele>135.20</ele><time>2012-11-30T10:01:01Z</time></trkpt><trkpt lat="32.6289478596" lon="35.1018422283"><ele>136.16</ele><time>2012-11-30T10:01:16Z</time></trkpt><trkpt lat="32.6292952057" lon="35.1018087845"><ele>136.64</ele><time>2012-11-30T10:01:30Z</time></trkpt><trkpt lat="32.6296971180" lon="35.1017921045"><ele>137.61</ele><time>2012-11-30T10:01:48Z</time></trkpt><trkpt lat="32.6300131157" lon="35.1017602533"><ele>137.61</ele><time>2012-11-30T10:02:02Z</time></trkpt><trkpt lat="32.6304255892" lon="35.1017998159"><ele>137.61</ele><time>2012-11-30T10:02:18Z</time></trkpt><trkpt lat="32.6308927126" lon="35.1019733213"><ele>137.61</ele><time>2012-11-30T10:02:34Z</time></trkpt><trkpt lat="32.6312748436" lon="35.1018403005"><ele>136.64</ele><time>2012-11-30T10:02:47Z</time></trkpt><trkpt lat="32.6316364389" lon="35.1016116422"><ele>137.13</ele><time>2012-11-30T10:03:03Z</time></trkpt><trkpt lat="32.6319839526" lon="35.1013916172"><ele>139.05</ele><time>2012-11-30T10:03:21Z</time></trkpt><trkpt lat="32.6322370861" lon="35.1013658009"><ele>140.49</ele><time>2012-11-30T10:03:35Z</time></trkpt><trkpt lat="32.6325037982" lon="35.1014076266"><ele>142.89</ele><time>2012-11-30T10:03:53Z</time></trkpt><trkpt lat="32.6326839253" lon="35.1014368795"><ele>144.82</ele><time>2012-11-30T10:04:06Z</time></trkpt><trkpt lat="32.6327300258" lon="35.1014446747"><ele>144.82</ele><time>2012-11-30T10:04:09Z</time></trkpt><trkpt lat="32.6327413414" lon="35.1014512125"><ele>145.30</ele><time>2012-11-30T10:04:10Z</time></trkpt><trkpt lat="32.6327548362" lon="35.1014543977"><ele>145.30</ele><time>2012-11-30T10:04:11Z</time></trkpt><trkpt lat="32.6329435129" lon="35.1014927868"><ele>147.22</ele><time>2012-11-30T10:04:25Z</time></trkpt><trkpt lat="32.6329858415" lon="35.1014954690"><ele>147.70</ele><time>2012-11-30T10:04:28Z</time></trkpt><trkpt lat="32.6329979952" lon="35.1015015878"><ele>147.70</ele><time>2012-11-30T10:04:29Z</time></trkpt><trkpt lat="32.6332178526" lon="35.1015362889"><ele>148.66</ele><time>2012-11-30T10:04:44Z</time></trkpt><trkpt lat="32.6332818903" lon="35.1015620213"><ele>149.14</ele><time>2012-11-30T10:04:49Z</time></trkpt><trkpt lat="32.6332969777" lon="35.1015551481"><ele>149.62</ele><time>2012-11-30T10:04:50Z</time></trkpt><trkpt lat="32.6333131548" lon="35.1015513763"><ele>149.14</ele><time>2012-11-30T10:04:51Z</time></trkpt><trkpt lat="32.6333297510" lon="35.1015537232"><ele>149.14</ele><time>2012-11-30T10:04:52Z</time></trkpt><trkpt lat="32.6333457604" lon="35.1015574113"><ele>149.62</ele><time>2012-11-30T10:04:53Z</time></trkpt><trkpt lat="32.6333605964" lon="35.1015619375"><ele>149.62</ele><time>2012-11-30T10:04:54Z</time></trkpt><trkpt lat="32.6333748456" lon="35.1015673019"><ele>150.10</ele><time>2012-11-30T10:04:55Z</time></trkpt><trkpt lat="32.6333901845" lon="35.1015711576"><ele>150.10</ele><time>2012-11-30T10:04:56Z</time></trkpt><trkpt lat="32.6335764304" lon="35.1015967224"><ele>151.54</ele><time>2012-11-30T10:05:10Z</time></trkpt><trkpt lat="32.6335900929" lon="35.1015938725"><ele>151.54</ele><time>2012-11-30T10:05:11Z</time></trkpt><trkpt lat="32.6336042583" lon="35.1015953813"><ele>151.54</ele><time>2012-11-30T10:05:12Z</time></trkpt><trkpt lat="32.6338132191" lon="35.1016595028"><ele>153.47</ele><time>2012-11-30T10:05:27Z</time></trkpt><trkpt lat="32.6340718847" lon="35.1016819663"><ele>155.39</ele><time>2012-11-30T10:05:44Z</time></trkpt><trkpt lat="32.6340859663" lon="35.1016833074"><ele>155.39</ele><time>2012-11-30T10:05:45Z</time></trkpt><trkpt lat="32.6341004670" lon="35.1016902644"><ele>155.39</ele><time>2012-11-30T10:05:46Z</time></trkpt><trkpt lat="32.6341127884" lon="35.1016985625"><ele>155.39</ele><time>2012-11-30T10:05:47Z</time></trkpt><trkpt lat="32.6341256127" lon="35.1017058548"><ele>155.39</ele><time>2012-11-30T10:05:48Z</time></trkpt><trkpt lat="32.6341383532" lon="35.1017099619"><ele>155.39</ele><time>2012-11-30T10:05:49Z</time></trkpt><trkpt lat="32.6341525186" lon="35.1017147396"><ele>155.87</ele><time>2012-11-30T10:05:50Z</time></trkpt><trkpt lat="32.6341663487" lon="35.1017183438"><ele>155.87</ele><time>2012-11-30T10:05:51Z</time></trkpt><trkpt lat="32.6341785025" lon="35.1017183438"><ele>155.87</ele><time>2012-11-30T10:05:52Z</time></trkpt><trkpt lat="32.6341926679" lon="35.1017151587"><ele>156.35</ele><time>2012-11-30T10:05:53Z</time></trkpt><trkpt lat="32.6342059113" lon="35.1017157454"><ele>156.35</ele><time>2012-11-30T10:05:54Z</time></trkpt><trkpt lat="32.6342184003" lon="35.1017187629"><ele>156.35</ele><time>2012-11-30T10:05:55Z</time></trkpt><trkpt lat="32.6343137026" lon="35.1017315872"><ele>157.79</ele><time>2012-11-30T10:06:02Z</time></trkpt><trkpt lat="32.6343242638" lon="35.1017352752"><ele>157.79</ele><time>2012-11-30T10:06:03Z</time></trkpt><trkpt lat="32.6343337353" lon="35.1017384604"><ele>157.31</ele><time>2012-11-30T10:06:04Z</time></trkpt><trkpt lat="32.6343432907" lon="35.1017412264"><ele>157.79</ele><time>2012-11-30T10:06:05Z</time></trkpt><trkpt lat="32.6343550254" lon="35.1017439086"><ele>157.79</ele><time>2012-11-30T10:06:06Z</time></trkpt><trkpt lat="32.6345742960" lon="35.1017893385"><ele>160.20</ele><time>2012-11-30T10:06:23Z</time></trkpt><trkpt lat="32.6346043870" lon="35.1017879974"><ele>160.20</ele><time>2012-11-30T10:06:25Z</time></trkpt><trkpt lat="32.6346166246" lon="35.1017903443"><ele>160.20</ele><time>2012-11-30T10:06:26Z</time></trkpt><trkpt lat="32.6346292812" lon="35.1017936133"><ele>160.20</ele><time>2012-11-30T10:06:27Z</time></trkpt><trkpt lat="32.6346405130" lon="35.1017958764"><ele>160.20</ele><time>2012-11-30T10:06:28Z</time></trkpt><trkpt lat="32.6346524991" lon="35.1017983072"><ele>160.20</ele><time>2012-11-30T10:06:29Z</time></trkpt><trkpt lat="32.6346664131" lon="35.1018010732"><ele>160.20</ele><time>2012-11-30T10:06:30Z</time></trkpt><trkpt lat="32.6346815843" lon="35.1018072758"><ele>160.68</ele><time>2012-11-30T10:06:31Z</time></trkpt><trkpt lat="32.6348582748" lon="35.1018387917"><ele>162.60</ele><time>2012-11-30T10:06:44Z</time></trkpt><trkpt lat="32.6350736897" lon="35.1018801145"><ele>164.04</ele><time>2012-11-30T10:07:00Z</time></trkpt><trkpt lat="32.6352843270" lon="35.1019110437"><ele>165.48</ele><time>2012-11-30T10:07:15Z</time></trkpt><trkpt lat="32.6353543159" lon="35.1019105408"><ele>165.48</ele><time>2012-11-30T10:07:19Z</time></trkpt><trkpt lat="32.6353693195" lon="35.1019128878"><ele>165.48</ele><time>2012-11-30T10:07:20Z</time></trkpt><trkpt lat="32.6357534621" lon="35.1019222755"><ele>164.04</ele><time>2012-11-30T10:07:38Z</time></trkpt><trkpt lat="32.6360780094" lon="35.1019962877"><ele>160.68</ele><time>2012-11-30T10:07:47Z</time></trkpt><trkpt lat="32.6363653410" lon="35.1021959446"><ele>157.31</ele><time>2012-11-30T10:07:52Z</time></trkpt><trkpt lat="32.6365546044" lon="35.1023697853"><ele>153.47</ele><time>2012-11-30T10:07:55Z</time></trkpt><trkpt lat="32.6366153732" lon="35.1024334040"><ele>153.47</ele><time>2012-11-30T10:07:56Z</time></trkpt><trkpt lat="32.6367905550" lon="35.1026634034"><ele>150.58</ele><time>2012-11-30T10:07:59Z</time></trkpt><trkpt lat="32.6368398406" lon="35.1027511619"><ele>149.62</ele><time>2012-11-30T10:08:00Z</time></trkpt><trkpt lat="32.6368840132" lon="35.1028416865"><ele>148.18</ele><time>2012-11-30T10:08:01Z</time></trkpt><trkpt lat="32.6369270962" lon="35.1029319596"><ele>147.22</ele><time>2012-11-30T10:08:02Z</time></trkpt><trkpt lat="32.6369761303" lon="35.1030238252"><ele>146.26</ele><time>2012-11-30T10:08:03Z</time></trkpt><trkpt lat="32.6371238194" lon="35.1033153478"><ele>142.41</ele><time>2012-11-30T10:08:06Z</time></trkpt><trkpt lat="32.6372191217" lon="35.1035207044"><ele>140.97</ele><time>2012-11-30T10:08:08Z</time></trkpt><trkpt lat="32.6373451017" lon="35.1038528793"><ele>137.61</ele><time>2012-11-30T10:08:11Z</time></trkpt><trkpt lat="32.6374285016" lon="35.1041834615"><ele>134.72</ele><time>2012-11-30T10:08:14Z</time></trkpt><trkpt lat="32.6374630351" lon="35.1045334060"><ele>130.88</ele><time>2012-11-30T10:08:17Z</time></trkpt><trkpt lat="32.6374590956" lon="35.1050229091"><ele>127.03</ele><time>2012-11-30T10:08:21Z</time></trkpt><trkpt lat="32.6374570839" lon="35.1051477995"><ele>126.55</ele><time>2012-11-30T10:08:22Z</time></trkpt><trkpt lat="32.6374364644" lon="35.1053800620"><ele>124.63</ele><time>2012-11-30T10:08:24Z</time></trkpt><trkpt lat="32.6374173537" lon="35.1054952294"><ele>124.63</ele><time>2012-11-30T10:08:25Z</time></trkpt><trkpt lat="32.6373875141" lon="35.1056081336"><ele>123.19</ele><time>2012-11-30T10:08:26Z</time></trkpt><trkpt lat="32.6373490412" lon="35.1057163440"><ele>122.22</ele><time>2012-11-30T10:08:27Z</time></trkpt><trkpt lat="32.6373094786" lon="35.1058183517"><ele>122.71</ele><time>2012-11-30T10:08:28Z</time></trkpt><trkpt lat="32.6370803174" lon="35.1065027341"><ele>118.86</ele><time>2012-11-30T10:08:35Z</time></trkpt><trkpt lat="32.6370462868" lon="35.1065977849"><ele>118.86</ele><time>2012-11-30T10:08:36Z</time></trkpt><trkpt lat="32.6368398406" lon="35.1071780641"><ele>115.98</ele><time>2012-11-30T10:08:42Z</time></trkpt><trkpt lat="32.6366264373" lon="35.1077787112"><ele>113.09</ele><time>2012-11-30T10:08:48Z</time></trkpt><trkpt lat="32.6365183108" lon="35.1080828067"><ele>112.13</ele><time>2012-11-30T10:08:51Z</time></trkpt><trkpt lat="32.6364953443" lon="35.1081889216"><ele>111.65</ele><time>2012-11-30T10:08:52Z</time></trkpt><trkpt lat="32.6364785805" lon="35.1082934439"><ele>111.17</ele><time>2012-11-30T10:08:53Z</time></trkpt><trkpt lat="32.6364380121" lon="35.1088127866"><ele>109.25</ele><time>2012-11-30T10:08:59Z</time></trkpt><trkpt lat="32.6364800893" lon="35.1091524214"><ele>107.81</ele><time>2012-11-30T10:09:03Z</time></trkpt><trkpt lat="32.6365155447" lon="35.1092227455"><ele>107.32</ele><time>2012-11-30T10:09:04Z</time></trkpt><trkpt lat="32.6365675125" lon="35.1092679240"><ele>107.32</ele><time>2012-11-30T10:09:05Z</time></trkpt><trkpt lat="32.6366271079" lon="35.1092921477"><ele>105.88</ele><time>2012-11-30T10:09:06Z</time></trkpt><trkpt lat="32.6366832666" lon="35.1093015354"><ele>105.88</ele><time>2012-11-30T10:09:07Z</time></trkpt><trkpt lat="32.6367319655" lon="35.1092964225"><ele>105.88</ele><time>2012-11-30T10:09:08Z</time></trkpt><trkpt lat="32.6367681753" lon="35.1092819218"><ele>106.36</ele><time>2012-11-30T10:09:09Z</time></trkpt><trkpt lat="32.6367929019" lon="35.1092670020"><ele>106.36</ele><time>2012-11-30T10:09:10Z</time></trkpt><trkpt lat="32.6368102524" lon="35.1092653256"><ele>106.84</ele><time>2012-11-30T10:09:11Z</time></trkpt><trkpt lat="32.6368230768" lon="35.1092711091"><ele>106.84</ele><time>2012-11-30T10:09:12Z</time></trkpt><trkpt lat="32.6368360687" lon="35.1092815865"><ele>106.36</ele><time>2012-11-30T10:09:13Z</time></trkpt><trkpt lat="32.6368524134" lon="35.1092910580"><ele>106.84</ele><time>2012-11-30T10:09:14Z</time></trkpt><trkpt lat="32.6368688419" lon="35.1092886273"><ele>106.84</ele><time>2012-11-30T10:09:15Z</time></trkpt><trkpt lat="32.6368843485" lon="35.1092794910"><ele>107.32</ele><time>2012-11-30T10:09:16Z</time></trkpt><trkpt lat="32.6368979272" lon="35.1092696004"><ele>107.32</ele><time>2012-11-30T10:09:17Z</time></trkpt><trkpt lat="32.6369110029" lon="35.1092576981"><ele>107.32</ele><time>2012-11-30T10:09:18Z</time></trkpt><trkpt lat="32.6369227376" lon="35.1092442032"><ele>107.81</ele><time>2012-11-30T10:09:19Z</time></trkpt><trkpt lat="32.6369332150" lon="35.1092314627"><ele>108.29</ele><time>2012-11-30T10:09:20Z</time></trkpt><trkpt lat="32.6369451173" lon="35.1092175487"><ele>108.77</ele><time>2012-11-30T10:09:21Z</time></trkpt><trkpt lat="32.6369540021" lon="35.1092035510"><ele>108.77</ele><time>2012-11-30T10:09:22Z</time></trkpt><trkpt lat="32.6370109152" lon="35.1091088355"><ele>109.73</ele><time>2012-11-30T10:09:29Z</time></trkpt><trkpt lat="32.6370191295" lon="35.1090956759"><ele>109.73</ele><time>2012-11-30T10:09:30Z</time></trkpt><trkpt lat="32.6370254997" lon="35.1090803370"><ele>109.73</ele><time>2012-11-30T10:09:31Z</time></trkpt><trkpt lat="32.6370326243" lon="35.1090655010"><ele>110.21</ele><time>2012-11-30T10:09:32Z</time></trkpt><trkpt lat="32.6370379049" lon="35.1090506651"><ele>109.73</ele><time>2012-11-30T10:09:33Z</time></trkpt><trkpt lat="32.6370434370" lon="35.1090379246"><ele>110.21</ele><time>2012-11-30T10:09:34Z</time></trkpt><trkpt lat="32.6370622963" lon="35.1089920755"><ele>110.69</ele><time>2012-11-30T10:09:37Z</time></trkpt><trkpt lat="32.6370718516" lon="35.1089859568"><ele>110.69</ele><time>2012-11-30T10:09:38Z</time></trkpt><trkpt lat="32.6370784733" lon="35.1089753956"><ele>110.69</ele><time>2012-11-30T10:09:39Z</time></trkpt><trkpt lat="32.6370830834" lon="35.1089613978"><ele>110.69</ele><time>2012-11-30T10:09:40Z</time></trkpt><trkpt lat="32.6370856818" lon="35.1089475676"><ele>111.17</ele><time>2012-11-30T10:09:41Z</time></trkpt><trkpt lat="32.6370946504" lon="35.1089348271"><ele>111.17</ele><time>2012-11-30T10:09:42Z</time></trkpt><trkpt lat="32.6371013559" lon="35.1089224219"><ele>111.17</ele><time>2012-11-30T10:09:43Z</time></trkpt><trkpt lat="32.6371088997" lon="35.1089093462"><ele>110.69</ele><time>2012-11-30T10:09:44Z</time></trkpt><trkpt lat="32.6371185388" lon="35.1089011319"><ele>111.17</ele><time>2012-11-30T10:09:45Z</time></trkpt><trkpt lat="32.6371245738" lon="35.1088892296"><ele>110.69</ele><time>2012-11-30T10:09:46Z</time></trkpt><trkpt lat="32.6371310279" lon="35.1088769920"><ele>110.69</ele><time>2012-11-30T10:09:47Z</time></trkpt><trkpt lat="32.6371335424" lon="35.1088614855"><ele>110.69</ele><time>2012-11-30T10:09:48Z</time></trkpt><trkpt lat="32.6371048763" lon="35.1088515110"><ele>111.17</ele><time>2012-11-30T10:09:58Z</time></trkpt><trkpt lat="32.6370975841" lon="35.1088546123"><ele>110.69</ele><time>2012-11-30T10:10:28Z</time></trkpt><trkpt lat="32.6370927226" lon="35.1088515949"><ele>111.65</ele><time>2012-11-30T10:10:31Z</time></trkpt><trkpt lat="32.6371057983" lon="35.1088478230"><ele>111.17</ele><time>2012-11-30T10:10:55Z</time></trkpt><trkpt lat="32.6370849274" lon="35.1088400278"><ele>111.17</ele><time>2012-11-30T10:11:27Z</time></trkpt><trkpt lat="32.6370826643" lon="35.1088361721"><ele>111.65</ele><time>2012-11-30T10:12:06Z</time></trkpt><trkpt lat="32.6370881125" lon="35.1088518463"><ele>111.65</ele><time>2012-11-30T10:12:35Z</time></trkpt><trkpt lat="32.6370875258" lon="35.1088484935"><ele>111.65</ele><time>2012-11-30T10:13:11Z</time></trkpt><trkpt lat="32.6371104922" lon="35.1088571269"><ele>111.17</ele><time>2012-11-30T10:13:45Z</time></trkpt><trkpt lat="32.6370999310" lon="35.1088356692"><ele>110.69</ele><time>2012-11-30T10:14:13Z</time></trkpt><trkpt lat="32.6371142641" lon="35.1088130381"><ele>110.69</ele><time>2012-11-30T10:14:42Z</time></trkpt><trkpt lat="32.6371135935" lon="35.1087814383"><ele>110.69</ele><time>2012-11-30T10:15:13Z</time></trkpt><trkpt lat="32.6371140126" lon="35.1087932568"><ele>111.17</ele><time>2012-11-30T10:15:50Z</time></trkpt><trkpt lat="32.6370915491" lon="35.1087745652"><ele>110.69</ele><time>2012-11-30T10:16:18Z</time></trkpt><trkpt lat="32.6371078100" lon="35.1087749843"><ele>111.65</ele><time>2012-11-30T10:16:51Z</time></trkpt><trkpt lat="32.6371148508" lon="35.1087848749"><ele>111.65</ele><time>2012-11-30T10:16:56Z</time></trkpt><trkpt lat="32.6371493004" lon="35.1087545324"><ele>111.65</ele><time>2012-11-30T10:17:00Z</time></trkpt><trkpt lat="32.6372581813" lon="35.1085808594"><ele>114.05</ele><time>2012-11-30T10:17:13Z</time></trkpt><trkpt lat="32.6372956485" lon="35.1084357686"><ele>115.01</ele><time>2012-11-30T10:17:22Z</time></trkpt><trkpt lat="32.6374070439" lon="35.1082415599"><ele>116.94</ele><time>2012-11-30T10:17:39Z</time></trkpt><trkpt lat="32.6374640409" lon="35.1081205253"><ele>117.90</ele><time>2012-11-30T10:17:48Z</time></trkpt><trkpt lat="32.6375251450" lon="35.1080151647"><ele>118.86</ele><time>2012-11-30T10:17:57Z</time></trkpt><trkpt lat="32.6375832316" lon="35.1079099718"><ele>120.30</ele><time>2012-11-30T10:18:05Z</time></trkpt><trkpt lat="32.6376810484" lon="35.1077404898"><ele>121.74</ele><time>2012-11-30T10:18:21Z</time></trkpt><trkpt lat="32.6378107164" lon="35.1075166930"><ele>123.19</ele><time>2012-11-30T10:18:37Z</time></trkpt><trkpt lat="32.6378166676" lon="35.1075073052"><ele>123.67</ele><time>2012-11-30T10:18:38Z</time></trkpt><trkpt lat="32.6379292365" lon="35.1073347218"><ele>125.11</ele><time>2012-11-30T10:18:53Z</time></trkpt><trkpt lat="32.6380854752" lon="35.1071744598"><ele>126.55</ele><time>2012-11-30T10:19:09Z</time></trkpt><trkpt lat="32.6381526142" lon="35.1071312930"><ele>127.99</ele><time>2012-11-30T10:19:15Z</time></trkpt><trkpt lat="32.6382302307" lon="35.1070861146"><ele>128.95</ele><time>2012-11-30T10:19:22Z</time></trkpt><trkpt lat="32.6384051610" lon="35.1069254335"><ele>132.32</ele><time>2012-11-30T10:19:38Z</time></trkpt><trkpt lat="32.6385323983" lon="35.1067448873"><ele>135.20</ele><time>2012-11-30T10:19:53Z</time></trkpt><trkpt lat="32.6386629045" lon="35.1066554524"><ele>137.13</ele><time>2012-11-30T10:20:07Z</time></trkpt><trkpt lat="32.6388829295" lon="35.1065164804"><ele>139.05</ele><time>2012-11-30T10:20:22Z</time></trkpt><trkpt lat="32.6389257610" lon="35.1064891554"><ele>140.49</ele><time>2012-11-30T10:20:26Z</time></trkpt><trkpt lat="32.6390429400" lon="35.1063894946"><ele>142.41</ele><time>2012-11-30T10:20:39Z</time></trkpt><trkpt lat="32.6391847618" lon="35.1062744111"><ele>143.37</ele><time>2012-11-30T10:20:53Z</time></trkpt><trkpt lat="32.6392420102" lon="35.1062260475"><ele>143.37</ele><time>2012-11-30T10:20:58Z</time></trkpt><trkpt lat="32.6394018531" lon="35.1061548013"><ele>145.30</ele><time>2012-11-30T10:21:10Z</time></trkpt><trkpt lat="32.6396436710" lon="35.1060967986"><ele>146.74</ele><time>2012-11-30T10:21:25Z</time></trkpt><trkpt lat="32.6396565791" lon="35.1061009057"><ele>146.74</ele><time>2012-11-30T10:21:26Z</time></trkpt><trkpt lat="32.6398720779" lon="35.1060693059"><ele>149.14</ele><time>2012-11-30T10:21:42Z</time></trkpt><trkpt lat="32.6400198508" lon="35.1060887519"><ele>151.06</ele><time>2012-11-30T10:21:54Z</time></trkpt><trkpt lat="32.6400643587" lon="35.1060930267"><ele>151.54</ele><time>2012-11-30T10:21:58Z</time></trkpt><trkpt lat="32.6402031630" lon="35.1061485987"><ele>153.47</ele><time>2012-11-30T10:22:08Z</time></trkpt><trkpt lat="32.6404015627" lon="35.1062218565"><ele>156.83</ele><time>2012-11-30T10:22:23Z</time></trkpt><trkpt lat="32.6404904947" lon="35.1062604133"><ele>157.79</ele><time>2012-11-30T10:22:30Z</time></trkpt><trkpt lat="32.6405655965" lon="35.1062653586"><ele>158.75</ele><time>2012-11-30T10:22:36Z</time></trkpt><trkpt lat="32.6406370103" lon="35.1062850561"><ele>159.72</ele><time>2012-11-30T10:22:43Z</time></trkpt><trkpt lat="32.6406771597" lon="35.1062907558"><ele>160.20</ele><time>2012-11-30T10:22:47Z</time></trkpt><trkpt lat="32.6408252679" lon="35.1063133869"><ele>161.64</ele><time>2012-11-30T10:22:59Z</time></trkpt><trkpt lat="32.6408696081" lon="35.1063262951"><ele>162.12</ele><time>2012-11-30T10:23:03Z</time></trkpt><trkpt lat="32.6410217397" lon="35.1063615829"><ele>163.56</ele><time>2012-11-30T10:23:17Z</time></trkpt><trkpt lat="32.6410494000" lon="35.1063776761"><ele>164.04</ele><time>2012-11-30T10:23:20Z</time></trkpt><trkpt lat="32.6410859451" lon="35.1063806936"><ele>164.04</ele><time>2012-11-30T10:23:22Z</time></trkpt><trkpt lat="32.6411059778" lon="35.1063799392"><ele>164.04</ele><time>2012-11-30T10:23:23Z</time></trkpt><trkpt lat="32.6411245856" lon="35.1063780114"><ele>165.00</ele><time>2012-11-30T10:23:24Z</time></trkpt><trkpt lat="32.6411353983" lon="35.1063687075"><ele>165.00</ele><time>2012-11-30T10:23:25Z</time></trkpt><trkpt lat="32.6411435287" lon="35.1063613314"><ele>165.00</ele><time>2012-11-30T10:23:26Z</time></trkpt><trkpt lat="32.6411547605" lon="35.1063523628"><ele>165.48</ele><time>2012-11-30T10:23:27Z</time></trkpt><trkpt lat="32.6411654055" lon="35.1063366048"><ele>165.96</ele><time>2012-11-30T10:23:28Z</time></trkpt><trkpt lat="32.6411741227" lon="35.1063182484"><ele>165.96</ele><time>2012-11-30T10:23:29Z</time></trkpt><trkpt lat="32.6411739551" lon="35.1062911749"><ele>166.45</ele><time>2012-11-30T10:23:31Z</time></trkpt><trkpt lat="32.6411574427" lon="35.1062605809"><ele>166.93</ele><time>2012-11-30T10:23:34Z</time></trkpt><trkpt lat="32.6411490608" lon="35.1062485948"><ele>166.93</ele><time>2012-11-30T10:23:35Z</time></trkpt><trkpt lat="32.6411374100" lon="35.1062387042"><ele>167.41</ele><time>2012-11-30T10:23:36Z</time></trkpt><trkpt lat="32.6411267649" lon="35.1062312443"><ele>167.41</ele><time>2012-11-30T10:23:37Z</time></trkpt><trkpt lat="32.6411180478" lon="35.1062223595"><ele>166.93</ele><time>2012-11-30T10:23:38Z</time></trkpt><trkpt lat="32.6411089953" lon="35.1062153187"><ele>166.93</ele><time>2012-11-30T10:23:39Z</time></trkpt><trkpt lat="32.6409999467" lon="35.1061438210"><ele>166.45</ele><time>2012-11-30T10:23:52Z</time></trkpt><trkpt lat="32.6409033034" lon="35.1060776878"><ele>166.45</ele><time>2012-11-30T10:24:06Z</time></trkpt><trkpt lat="32.6408687700" lon="35.1060793642"><ele>166.45</ele><time>2012-11-30T10:24:28Z</time></trkpt><trkpt lat="32.6408630703" lon="35.1060722396"><ele>166.93</ele><time>2012-11-30T10:25:06Z</time></trkpt><trkpt lat="32.6408391818" lon="35.1060315035"><ele>166.45</ele><time>2012-11-30T10:25:33Z</time></trkpt><trkpt lat="32.6408177242" lon="35.1060246304"><ele>166.45</ele><time>2012-11-30T10:25:43Z</time></trkpt><trkpt lat="32.6408203226" lon="35.1059750933"><ele>166.45</ele><time>2012-11-30T10:25:47Z</time></trkpt><trkpt lat="32.6408184785" lon="35.1059565693"><ele>166.45</ele><time>2012-11-30T10:25:48Z</time></trkpt><trkpt lat="32.6408150420" lon="35.1059422363"><ele>166.45</ele><time>2012-11-30T10:25:49Z</time></trkpt><trkpt lat="32.6408092584" lon="35.1059299987"><ele>166.45</ele><time>2012-11-30T10:25:50Z</time></trkpt><trkpt lat="32.6408039778" lon="35.1059158333"><ele>166.45</ele><time>2012-11-30T10:25:51Z</time></trkpt><trkpt lat="32.6407989487" lon="35.1059015840"><ele>166.45</ele><time>2012-11-30T10:25:52Z</time></trkpt><trkpt lat="32.6407924108" lon="35.1058830600"><ele>166.93</ele><time>2012-11-30T10:25:53Z</time></trkpt><trkpt lat="32.6407852024" lon="35.1058686431"><ele>166.45</ele><time>2012-11-30T10:25:54Z</time></trkpt><trkpt lat="32.6407074183" lon="35.1057204511"><ele>166.45</ele><time>2012-11-30T10:26:03Z</time></trkpt><trkpt lat="32.6406263653" lon="35.1053715125"><ele>165.96</ele><time>2012-11-30T10:26:17Z</time></trkpt><trkpt lat="32.6406275388" lon="35.1053146832"><ele>165.48</ele><time>2012-11-30T10:26:26Z</time></trkpt><trkpt lat="32.6406525169" lon="35.1052318700"><ele>165.00</ele><time>2012-11-30T10:26:51Z</time></trkpt><trkpt lat="32.6406577975" lon="35.1052443590"><ele>165.00</ele><time>2012-11-30T10:27:10Z</time></trkpt><trkpt lat="32.6406416204" lon="35.1052296069"><ele>165.48</ele><time>2012-11-30T10:27:12Z</time></trkpt><trkpt lat="32.6406366751" lon="35.1052142680"><ele>165.00</ele><time>2012-11-30T10:27:13Z</time></trkpt><trkpt lat="32.6406660117" lon="35.1048605517"><ele>165.48</ele><time>2012-11-30T10:27:27Z</time></trkpt><trkpt lat="32.6407997031" lon="35.1044060010"><ele>165.48</ele><time>2012-11-30T10:27:40Z</time></trkpt><trkpt lat="32.6410652418" lon="35.1039138995"><ele>165.48</ele><time>2012-11-30T10:27:54Z</time></trkpt><trkpt lat="32.6413078979" lon="35.1035608537"><ele>165.48</ele><time>2012-11-30T10:28:04Z</time></trkpt><trkpt lat="32.6413359772" lon="35.1035281643"><ele>163.56</ele><time>2012-11-30T10:28:05Z</time></trkpt><trkpt lat="32.6413619611" lon="35.1035025995"><ele>163.56</ele><time>2012-11-30T10:28:06Z</time></trkpt><trkpt lat="32.6417205390" lon="35.1033000927"><ele>164.52</ele><time>2012-11-30T10:28:18Z</time></trkpt><trkpt lat="32.6420302503" lon="35.1032235660"><ele>165.96</ele><time>2012-11-30T10:28:29Z</time></trkpt><trkpt lat="32.6423288975" lon="35.1032270864"><ele>166.45</ele><time>2012-11-30T10:28:42Z</time></trkpt><trkpt lat="32.6425434742" lon="35.1031245757"><ele>166.45</ele><time>2012-11-30T10:28:54Z</time></trkpt><trkpt lat="32.6427508425" lon="35.1031015255"><ele>167.89</ele><time>2012-11-30T10:29:06Z</time></trkpt><trkpt lat="32.6428370923" lon="35.1031140145"><ele>168.85</ele><time>2012-11-30T10:29:12Z</time></trkpt><trkpt lat="32.6430220809" lon="35.1029897947"><ele>169.33</ele><time>2012-11-30T10:29:25Z</time></trkpt><trkpt lat="32.6431182213" lon="35.1025159657"><ele>168.85</ele><time>2012-11-30T10:29:37Z</time></trkpt><trkpt lat="32.6431614719" lon="35.1023049094"><ele>170.29</ele><time>2012-11-30T10:29:44Z</time></trkpt><trkpt lat="32.6432141941" lon="35.1021940168"><ele>171.73</ele><time>2012-11-30T10:29:49Z</time></trkpt><trkpt lat="32.6432431117" lon="35.1021013130"><ele>173.17</ele><time>2012-11-30T10:29:57Z</time></trkpt><trkpt lat="32.6432551816" lon="35.1020734012"><ele>173.66</ele><time>2012-11-30T10:30:09Z</time></trkpt><trkpt lat="32.6432597078" lon="35.1020615827"><ele>174.14</ele><time>2012-11-30T10:30:37Z</time></trkpt><trkpt lat="32.6432559360" lon="35.1020693779"><ele>173.66</ele><time>2012-11-30T10:30:58Z</time></trkpt><trkpt lat="32.6432575285" lon="35.1020563021"><ele>174.14</ele><time>2012-11-30T10:31:32Z</time></trkpt><trkpt lat="32.6432552654" lon="35.1020558830"><ele>174.14</ele><time>2012-11-30T10:31:51Z</time></trkpt><trkpt lat="32.6432379149" lon="35.1020194218"><ele>174.14</ele><time>2012-11-30T10:32:15Z</time></trkpt><trkpt lat="32.6432555169" lon="35.1020078547"><ele>174.14</ele><time>2012-11-30T10:32:39Z</time></trkpt><trkpt lat="32.6432509907" lon="35.1020057593"><ele>174.62</ele><time>2012-11-30T10:32:59Z</time></trkpt><trkpt lat="32.6432638150" lon="35.1019744109"><ele>174.62</ele><time>2012-11-30T10:33:18Z</time></trkpt><trkpt lat="32.6434215624" lon="35.1018741634"><ele>178.94</ele><time>2012-11-30T10:33:33Z</time></trkpt><trkpt lat="32.6434350573" lon="35.1018799469"><ele>178.94</ele><time>2012-11-30T10:33:34Z</time></trkpt><trkpt lat="32.6435051300" lon="35.1018905919"><ele>179.90</ele><time>2012-11-30T10:33:39Z</time></trkpt><trkpt lat="32.6436686609" lon="35.1019357704"><ele>182.31</ele><time>2012-11-30T10:33:51Z</time></trkpt><trkpt lat="32.6437221374" lon="35.1019244548"><ele>183.27</ele><time>2012-11-30T10:33:56Z</time></trkpt><trkpt lat="32.6437488757" lon="35.1019148994"><ele>183.75</ele><time>2012-11-30T10:33:59Z</time></trkpt><trkpt lat="32.6438290067" lon="35.1018704753"><ele>185.19</ele><time>2012-11-30T10:34:07Z</time></trkpt><trkpt lat="32.6438662224" lon="35.1018436532"><ele>185.67</ele><time>2012-11-30T10:34:11Z</time></trkpt><trkpt lat="32.6440562401" lon="35.1017461717"><ele>187.11</ele><time>2012-11-30T10:34:28Z</time></trkpt><trkpt lat="32.6442183461" lon="35.1016581617"><ele>188.08</ele><time>2012-11-30T10:34:41Z</time></trkpt><trkpt lat="32.6444903389" lon="35.1015296672"><ele>189.52</ele><time>2012-11-30T10:34:57Z</time></trkpt><trkpt lat="32.6448295545" lon="35.1012016833"><ele>187.11</ele><time>2012-11-30T10:35:09Z</time></trkpt><trkpt lat="32.6450145431" lon="35.1010903716"><ele>185.67</ele><time>2012-11-30T10:35:13Z</time></trkpt><trkpt lat="32.6451855339" lon="35.1009743661"><ele>184.23</ele><time>2012-11-30T10:35:17Z</time></trkpt><trkpt lat="32.6454312913" lon="35.1007882878"><ele>182.79</ele><time>2012-11-30T10:35:26Z</time></trkpt><trkpt lat="32.6454727817" lon="35.1007747091"><ele>183.27</ele><time>2012-11-30T10:35:35Z</time></trkpt><trkpt lat="32.6454782300" lon="35.1007906348"><ele>182.79</ele><time>2012-11-30T10:35:57Z</time></trkpt><trkpt lat="32.6454817504" lon="35.1007865276"><ele>182.79</ele><time>2012-11-30T10:36:09Z</time></trkpt><trkpt lat="32.6454793196" lon="35.1007861923"><ele>182.79</ele><time>2012-11-30T10:36:21Z</time></trkpt><trkpt lat="32.6454717759" lon="35.1007706858"><ele>181.83</ele><time>2012-11-30T10:36:35Z</time></trkpt><trkpt lat="32.6454747096" lon="35.1007669140"><ele>181.83</ele><time>2012-11-30T10:37:24Z</time></trkpt><trkpt lat="32.6454820856" lon="35.1007721946"><ele>181.83</ele><time>2012-11-30T10:38:10Z</time></trkpt><trkpt lat="32.6454773080" lon="35.1007645670"><ele>181.83</ele><time>2012-11-30T10:38:59Z</time></trkpt><trkpt lat="32.6454675011" lon="35.1007705182"><ele>181.83</ele><time>2012-11-30T10:39:51Z</time></trkpt><trkpt lat="32.6454908028" lon="35.1007404272"><ele>181.83</ele><time>2012-11-30T10:40:35Z</time></trkpt><trkpt lat="32.6454929821" lon="35.1007463783"><ele>182.31</ele><time>2012-11-30T10:40:58Z</time></trkpt><trkpt lat="32.6454765536" lon="35.1007576939"><ele>182.31</ele><time>2012-11-30T10:41:00Z</time></trkpt><trkpt lat="32.6454794873" lon="35.1007690094"><ele>183.27</ele><time>2012-11-30T10:41:11Z</time></trkpt><trkpt lat="32.6454798225" lon="35.1007666625"><ele>182.79</ele><time>2012-11-30T10:41:16Z</time></trkpt></trkseg></trk></gpx>